<?xml version='1.0' encoding='UTF-8'?><gpx version="1.1" creator="JPX - https://github.com/jenetics/jpx" xmlns="http://www.topografix.com/GPX/1/1"><trk><trkseg><trkpt lat="43.5349533" lon="12.8318433"><ele>310.0</ele><time>2026-05-03T08:13:48.609Z</time></trkpt><trkpt lat="43.53489" lon="12.8318333"><ele>310.0</ele><time>2026-05-03T08:13:50.599Z</time></trkpt><trkpt lat="43.5348183" lon="12.831875"><ele>310.0</ele><time>2026-05-03T08:13:53.604Z</time></trkpt><trkpt lat="43.5348633" lon="12.831975"><ele>310.0</ele><time>2026-05-03T08:13:59.611Z</time></trkpt><trkpt lat="43.5349667" lon="12.8320067"><ele>310.0</ele><time>2026-05-03T08:14:01.6Z</time></trkpt><trkpt lat="43.53509" lon="12.8320367"><ele>310.0</ele><time>2026-05-03T08:14:03.606Z</time></trkpt><trkpt lat="43.5351583" lon="12.8320533"><ele>310.0</ele><time>2026-05-03T08:14:04.601Z</time></trkpt><trkpt lat="43.5352283" lon="12.83207"><ele>310.0</ele><time>2026-05-03T08:14:05.606Z</time></trkpt><trkpt lat="43.5352967" lon="12.8320867"><ele>310.0</ele><time>2026-05-03T08:14:06.604Z</time></trkpt><trkpt lat="43.535365" lon="12.8321033"><ele>310.0</ele><time>2026-05-03T08:14:07.602Z</time></trkpt><trkpt lat="43.5354333" lon="12.8321217"><ele>310.0</ele><time>2026-05-03T08:14:08.613Z</time></trkpt><trkpt lat="43.5355017" lon="12.8321383"><ele>310.0</ele><time>2026-05-03T08:14:09.601Z</time></trkpt><trkpt lat="43.5355767" lon="12.8321567"><ele>310.0</ele><time>2026-05-03T08:14:10.605Z</time></trkpt><trkpt lat="43.53566" lon="12.8321783"><ele>310.0</ele><time>2026-05-03T08:14:11.601Z</time></trkpt><trkpt lat="43.5357517" lon="12.8321967"><ele>310.0</ele><time>2026-05-03T08:14:12.605Z</time></trkpt><trkpt lat="43.5358367" lon="12.8322133"><ele>310.0</ele><time>2026-05-03T08:14:13.609Z</time></trkpt><trkpt lat="43.535915" lon="12.83223"><ele>310.0</ele><time>2026-05-03T08:14:14.602Z</time></trkpt><trkpt lat="43.535985" lon="12.8322467"><ele>310.0</ele><time>2026-05-03T08:14:15.606Z</time></trkpt><trkpt lat="43.5360517" lon="12.8322683"><ele>310.0</ele><time>2026-05-03T08:14:16.6Z</time></trkpt><trkpt lat="43.5361183" lon="12.8322817"><ele>310.0</ele><time>2026-05-03T08:14:17.61Z</time></trkpt><trkpt lat="43.5361833" lon="12.8322917"><ele>310.0</ele><time>2026-05-03T08:14:18.604Z</time></trkpt><trkpt lat="43.53625" lon="12.832305"><ele>310.0</ele><time>2026-05-03T08:14:19.605Z</time></trkpt><trkpt lat="43.5363217" lon="12.8323217"><ele>310.0</ele><time>2026-05-03T08:14:20.607Z</time></trkpt><trkpt lat="43.5363983" lon="12.8323383"><ele>310.0</ele><time>2026-05-03T08:14:21.599Z</time></trkpt><trkpt lat="43.53648" lon="12.8323567"><ele>310.0</ele><time>2026-05-03T08:14:22.594Z</time></trkpt><trkpt lat="43.5365667" lon="12.832375"><ele>309.4</ele><time>2026-05-03T08:14:23.6Z</time></trkpt><trkpt lat="43.53666" lon="12.8323967"><ele>308.8</ele><time>2026-05-03T08:14:24.605Z</time></trkpt><trkpt lat="43.5367617" lon="12.83242"><ele>308.2</ele><time>2026-05-03T08:14:25.603Z</time></trkpt><trkpt lat="43.5368683" lon="12.832445"><ele>307.6</ele><time>2026-05-03T08:14:26.604Z</time></trkpt><trkpt lat="43.53698" lon="12.83247"><ele>307.0</ele><time>2026-05-03T08:14:27.605Z</time></trkpt><trkpt lat="43.5370967" lon="12.832495"><ele>307.0</ele><time>2026-05-03T08:14:28.606Z</time></trkpt><trkpt lat="43.5372133" lon="12.8325233"><ele>307.0</ele><time>2026-05-03T08:14:29.599Z</time></trkpt><trkpt lat="43.5373233" lon="12.8325483"><ele>307.0</ele><time>2026-05-03T08:14:30.6Z</time></trkpt><trkpt lat="43.53742" lon="12.8325733"><ele>307.0</ele><time>2026-05-03T08:14:31.604Z</time></trkpt><trkpt lat="43.5375067" lon="12.8326083"><ele>307.0</ele><time>2026-05-03T08:14:32.601Z</time></trkpt><trkpt lat="43.5375817" lon="12.8326617"><ele>306.99999999999994</ele><time>2026-05-03T08:14:33.605Z</time></trkpt><trkpt lat="43.5376433" lon="12.8327383"><ele>307.0</ele><time>2026-05-03T08:14:34.601Z</time></trkpt><trkpt lat="43.5376983" lon="12.8328133"><ele>307.0</ele><time>2026-05-03T08:14:35.607Z</time></trkpt><trkpt lat="43.5377567" lon="12.832865"><ele>307.0</ele><time>2026-05-03T08:14:36.604Z</time></trkpt><trkpt lat="43.53782" lon="12.8328833"><ele>307.0</ele><time>2026-05-03T08:14:37.605Z</time></trkpt><trkpt lat="43.5378867" lon="12.832865"><ele>306.99999999999994</ele><time>2026-05-03T08:14:38.63Z</time></trkpt><trkpt lat="43.53796" lon="12.8328217"><ele>307.0</ele><time>2026-05-03T08:14:39.609Z</time></trkpt><trkpt lat="43.5380417" lon="12.8327933"><ele>306.0</ele><time>2026-05-03T08:14:40.604Z</time></trkpt><trkpt lat="43.5381333" lon="12.8327967"><ele>305.0</ele><time>2026-05-03T08:14:41.595Z</time></trkpt><trkpt lat="43.5382567" lon="12.8328567"><ele>304.0</ele><time>2026-05-03T08:14:42.6Z</time></trkpt><trkpt lat="43.53839" lon="12.8329317"><ele>303.0</ele><time>2026-05-03T08:14:43.604Z</time></trkpt><trkpt lat="43.5385367" lon="12.8330083"><ele>303.0</ele><time>2026-05-03T08:14:44.601Z</time></trkpt><trkpt lat="43.53869" lon="12.8330933"><ele>303.0</ele><time>2026-05-03T08:14:45.603Z</time></trkpt><trkpt lat="43.5388483" lon="12.83318"><ele>303.0</ele><time>2026-05-03T08:14:46.603Z</time></trkpt><trkpt lat="43.5389967" lon="12.8332633"><ele>303.0</ele><time>2026-05-03T08:14:47.6Z</time></trkpt><trkpt lat="43.539135" lon="12.833345"><ele>303.0</ele><time>2026-05-03T08:14:48.6Z</time></trkpt><trkpt lat="43.5392633" lon="12.8334217"><ele>303.0</ele><time>2026-05-03T08:14:49.598Z</time></trkpt><trkpt lat="43.5393867" lon="12.833495"><ele>303.0</ele><time>2026-05-03T08:14:50.602Z</time></trkpt><trkpt lat="43.5395067" lon="12.83356"><ele>302.0</ele><time>2026-05-03T08:14:51.609Z</time></trkpt><trkpt lat="43.53963" lon="12.833625"><ele>301.0</ele><time>2026-05-03T08:14:52.6Z</time></trkpt><trkpt lat="43.5397567" lon="12.833695"><ele>300.0</ele><time>2026-05-03T08:14:53.609Z</time></trkpt><trkpt lat="43.5398817" lon="12.833765"><ele>299.0</ele><time>2026-05-03T08:14:54.604Z</time></trkpt><trkpt lat="43.5400133" lon="12.8338367"><ele>299.0</ele><time>2026-05-03T08:14:55.603Z</time></trkpt><trkpt lat="43.5401467" lon="12.8339033"><ele>299.0</ele><time>2026-05-03T08:14:56.607Z</time></trkpt><trkpt lat="43.5402817" lon="12.833965"><ele>299.0</ele><time>2026-05-03T08:14:57.598Z</time></trkpt><trkpt lat="43.5404183" lon="12.8340217"><ele>299.0</ele><time>2026-05-03T08:14:58.606Z</time></trkpt><trkpt lat="43.5405583" lon="12.834065"><ele>299.0</ele><time>2026-05-03T08:14:59.602Z</time></trkpt><trkpt lat="43.5407017" lon="12.8340867"><ele>299.0</ele><time>2026-05-03T08:15:00.606Z</time></trkpt><trkpt lat="43.5408417" lon="12.8341083"><ele>299.0</ele><time>2026-05-03T08:15:01.602Z</time></trkpt><trkpt lat="43.5409817" lon="12.8341317"><ele>299.0</ele><time>2026-05-03T08:15:02.605Z</time></trkpt><trkpt lat="43.5411217" lon="12.8341483"><ele>298.6666666666667</ele><time>2026-05-03T08:15:03.606Z</time></trkpt><trkpt lat="43.5412667" lon="12.8341567"><ele>298.3333333333333</ele><time>2026-05-03T08:15:04.61Z</time></trkpt><trkpt lat="43.5414183" lon="12.8341617"><ele>298.0</ele><time>2026-05-03T08:15:05.6Z</time></trkpt><trkpt lat="43.541575" lon="12.8341617"><ele>298.0</ele><time>2026-05-03T08:15:06.609Z</time></trkpt><trkpt lat="43.5417317" lon="12.83416"><ele>298.0</ele><time>2026-05-03T08:15:07.605Z</time></trkpt><trkpt lat="43.5418883" lon="12.8341517"><ele>298.0</ele><time>2026-05-03T08:15:08.606Z</time></trkpt><trkpt lat="43.5420383" lon="12.83414"><ele>297.75</ele><time>2026-05-03T08:15:09.608Z</time></trkpt><trkpt lat="43.5421833" lon="12.834125"><ele>297.5</ele><time>2026-05-03T08:15:10.599Z</time></trkpt><trkpt lat="43.542325" lon="12.8341083"><ele>297.25</ele><time>2026-05-03T08:15:11.605Z</time></trkpt><trkpt lat="43.542465" lon="12.8340933"><ele>297.0</ele><time>2026-05-03T08:15:12.598Z</time></trkpt><trkpt lat="43.5426083" lon="12.83409"><ele>297.0</ele><time>2026-05-03T08:15:13.599Z</time></trkpt><trkpt lat="43.5427517" lon="12.8340933"><ele>297.0</ele><time>2026-05-03T08:15:14.608Z</time></trkpt><trkpt lat="43.542895" lon="12.8341"><ele>297.0</ele><time>2026-05-03T08:15:15.597Z</time></trkpt><trkpt lat="43.5430433" lon="12.8341083"><ele>297.0</ele><time>2026-05-03T08:15:16.6Z</time></trkpt><trkpt lat="43.5431917" lon="12.8341267"><ele>297.3333333333333</ele><time>2026-05-03T08:15:17.598Z</time></trkpt><trkpt lat="43.5433417" lon="12.8341517"><ele>297.66666666666663</ele><time>2026-05-03T08:15:18.603Z</time></trkpt><trkpt lat="43.543495" lon="12.8341783"><ele>298.0</ele><time>2026-05-03T08:15:19.601Z</time></trkpt><trkpt lat="43.54365" lon="12.8342033"><ele>296.66666666666663</ele><time>2026-05-03T08:15:20.604Z</time></trkpt><trkpt lat="43.5438017" lon="12.83423"><ele>295.3333333333333</ele><time>2026-05-03T08:15:21.606Z</time></trkpt><trkpt lat="43.5439517" lon="12.83426"><ele>294.0</ele><time>2026-05-03T08:15:22.606Z</time></trkpt><trkpt lat="43.5440967" lon="12.8342917"><ele>293.6666666666667</ele><time>2026-05-03T08:15:23.603Z</time></trkpt><trkpt lat="43.54424" lon="12.834325"><ele>293.33333333333337</ele><time>2026-05-03T08:15:24.608Z</time></trkpt><trkpt lat="43.5443883" lon="12.8343667"><ele>293.0</ele><time>2026-05-03T08:15:25.603Z</time></trkpt><trkpt lat="43.544545" lon="12.834415"><ele>293.0</ele><time>2026-05-03T08:15:26.6Z</time></trkpt><trkpt lat="43.5447033" lon="12.834465"><ele>293.0</ele><time>2026-05-03T08:15:27.599Z</time></trkpt><trkpt lat="43.5448583" lon="12.834515"><ele>293.0</ele><time>2026-05-03T08:15:28.601Z</time></trkpt><trkpt lat="43.5450117" lon="12.8345667"><ele>293.0</ele><time>2026-05-03T08:15:29.609Z</time></trkpt><trkpt lat="43.545165" lon="12.8346167"><ele>293.0</ele><time>2026-05-03T08:15:30.6Z</time></trkpt><trkpt lat="43.5453233" lon="12.8346683"><ele>293.0</ele><time>2026-05-03T08:15:31.604Z</time></trkpt><trkpt lat="43.545485" lon="12.834725"><ele>292.33333333333337</ele><time>2026-05-03T08:15:32.62Z</time></trkpt><trkpt lat="43.545645" lon="12.8347817"><ele>291.6666666666667</ele><time>2026-05-03T08:15:33.604Z</time></trkpt><trkpt lat="43.5458033" lon="12.8348417"><ele>291.0</ele><time>2026-05-03T08:15:34.599Z</time></trkpt><trkpt lat="43.5459567" lon="12.8348917"><ele>291.0</ele><time>2026-05-03T08:15:35.602Z</time></trkpt><trkpt lat="43.5461067" lon="12.8349383"><ele>291.0</ele><time>2026-05-03T08:15:36.608Z</time></trkpt><trkpt lat="43.546255" lon="12.8349783"><ele>291.0</ele><time>2026-05-03T08:15:37.606Z</time></trkpt><trkpt lat="43.5464" lon="12.8350083"><ele>290.75</ele><time>2026-05-03T08:15:38.607Z</time></trkpt><trkpt lat="43.5465483" lon="12.8350367"><ele>290.5</ele><time>2026-05-03T08:15:39.605Z</time></trkpt><trkpt lat="43.5466967" lon="12.8350567"><ele>290.25</ele><time>2026-05-03T08:15:40.602Z</time></trkpt><trkpt lat="43.5468467" lon="12.835075"><ele>290.0</ele><time>2026-05-03T08:15:41.607Z</time></trkpt><trkpt lat="43.5469983" lon="12.835095"><ele>290.0</ele><time>2026-05-03T08:15:42.604Z</time></trkpt><trkpt lat="43.5471467" lon="12.835115"><ele>290.0</ele><time>2026-05-03T08:15:43.596Z</time></trkpt><trkpt lat="43.5472933" lon="12.835135"><ele>290.0</ele><time>2026-05-03T08:15:44.595Z</time></trkpt><trkpt lat="43.5474333" lon="12.8351517"><ele>290.0</ele><time>2026-05-03T08:15:45.602Z</time></trkpt><trkpt lat="43.54757" lon="12.835165"><ele>290.0</ele><time>2026-05-03T08:15:46.603Z</time></trkpt><trkpt lat="43.5477067" lon="12.835175"><ele>290.0</ele><time>2026-05-03T08:15:47.597Z</time></trkpt><trkpt lat="43.547845" lon="12.8351867"><ele>290.0</ele><time>2026-05-03T08:15:48.621Z</time></trkpt><trkpt lat="43.5479833" lon="12.8352017"><ele>290.0</ele><time>2026-05-03T08:15:49.598Z</time></trkpt><trkpt lat="43.5481233" lon="12.83522"><ele>289.0</ele><time>2026-05-03T08:15:50.605Z</time></trkpt><trkpt lat="43.5482667" lon="12.8352333"><ele>288.0</ele><time>2026-05-03T08:15:51.603Z</time></trkpt><trkpt lat="43.5484117" lon="12.8352433"><ele>287.0</ele><time>2026-05-03T08:15:52.602Z</time></trkpt><trkpt lat="43.5485583" lon="12.8352583"><ele>286.0</ele><time>2026-05-03T08:15:53.603Z</time></trkpt><trkpt lat="43.548705" lon="12.8352717"><ele>285.75</ele><time>2026-05-03T08:15:54.604Z</time></trkpt><trkpt lat="43.5488517" lon="12.8352883"><ele>285.5</ele><time>2026-05-03T08:15:55.598Z</time></trkpt><trkpt lat="43.5489917" lon="12.835305"><ele>285.25</ele><time>2026-05-03T08:15:56.602Z</time></trkpt><trkpt lat="43.549125" lon="12.83532"><ele>285.0</ele><time>2026-05-03T08:15:57.597Z</time></trkpt><trkpt lat="43.54925" lon="12.8353333"><ele>285.0</ele><time>2026-05-03T08:15:58.603Z</time></trkpt><trkpt lat="43.54937" lon="12.8353467"><ele>285.0</ele><time>2026-05-03T08:15:59.604Z</time></trkpt><trkpt lat="43.5494817" lon="12.8353583"><ele>285.0</ele><time>2026-05-03T08:16:00.601Z</time></trkpt><trkpt lat="43.54959" lon="12.83537"><ele>285.0</ele><time>2026-05-03T08:16:01.602Z</time></trkpt><trkpt lat="43.5496917" lon="12.8353783"><ele>285.0</ele><time>2026-05-03T08:16:02.604Z</time></trkpt><trkpt lat="43.5497917" lon="12.8353867"><ele>284.6</ele><time>2026-05-03T08:16:03.601Z</time></trkpt><trkpt lat="43.5498933" lon="12.8353933"><ele>284.2</ele><time>2026-05-03T08:16:04.608Z</time></trkpt><trkpt lat="43.5499967" lon="12.8354"><ele>283.8</ele><time>2026-05-03T08:16:05.6Z</time></trkpt><trkpt lat="43.5500967" lon="12.8354083"><ele>283.4</ele><time>2026-05-03T08:16:06.604Z</time></trkpt><trkpt lat="43.550195" lon="12.8354167"><ele>283.0</ele><time>2026-05-03T08:16:07.602Z</time></trkpt><trkpt lat="43.5502883" lon="12.83543"><ele>283.16666666666663</ele><time>2026-05-03T08:16:08.604Z</time></trkpt><trkpt lat="43.550375" lon="12.8354433"><ele>283.3333333333333</ele><time>2026-05-03T08:16:09.6Z</time></trkpt><trkpt lat="43.5504583" lon="12.8354567"><ele>283.5</ele><time>2026-05-03T08:16:10.604Z</time></trkpt><trkpt lat="43.5505367" lon="12.835465"><ele>283.6666666666667</ele><time>2026-05-03T08:16:11.601Z</time></trkpt><trkpt lat="43.550615" lon="12.8354733"><ele>283.83333333333337</ele><time>2026-05-03T08:16:12.601Z</time></trkpt><trkpt lat="43.5506917" lon="12.8354833"><ele>284.0</ele><time>2026-05-03T08:16:13.596Z</time></trkpt><trkpt lat="43.5507733" lon="12.83549"><ele>284.0</ele><time>2026-05-03T08:16:14.603Z</time></trkpt><trkpt lat="43.550855" lon="12.835495"><ele>284.0</ele><time>2026-05-03T08:16:15.6Z</time></trkpt><trkpt lat="43.5509333" lon="12.8354983"><ele>284.0</ele><time>2026-05-03T08:16:16.6Z</time></trkpt><trkpt lat="43.55101" lon="12.8355017"><ele>284.0</ele><time>2026-05-03T08:16:17.601Z</time></trkpt><trkpt lat="43.5510833" lon="12.8355067"><ele>284.0</ele><time>2026-05-03T08:16:18.602Z</time></trkpt><trkpt lat="43.55116" lon="12.835515"><ele>284.0</ele><time>2026-05-03T08:16:19.605Z</time></trkpt><trkpt lat="43.5512417" lon="12.835525"><ele>283.6666666666667</ele><time>2026-05-03T08:16:20.609Z</time></trkpt><trkpt lat="43.5513233" lon="12.835535"><ele>283.33333333333337</ele><time>2026-05-03T08:16:21.602Z</time></trkpt><trkpt lat="43.5514133" lon="12.8355433"><ele>283.0</ele><time>2026-05-03T08:16:22.599Z</time></trkpt><trkpt lat="43.5515017" lon="12.8355533"><ele>282.6666666666667</ele><time>2026-05-03T08:16:23.602Z</time></trkpt><trkpt lat="43.551585" lon="12.8355617"><ele>282.3333333333333</ele><time>2026-05-03T08:16:24.598Z</time></trkpt><trkpt lat="43.5516667" lon="12.8355683"><ele>282.0</ele><time>2026-05-03T08:16:25.602Z</time></trkpt><trkpt lat="43.5517483" lon="12.835575"><ele>282.0</ele><time>2026-05-03T08:16:26.606Z</time></trkpt><trkpt lat="43.5518317" lon="12.8355817"><ele>282.0</ele><time>2026-05-03T08:16:27.599Z</time></trkpt><trkpt lat="43.551915" lon="12.8355933"><ele>282.0</ele><time>2026-05-03T08:16:28.594Z</time></trkpt><trkpt lat="43.5519983" lon="12.8355983"><ele>282.0</ele><time>2026-05-03T08:16:29.597Z</time></trkpt><trkpt lat="43.5520817" lon="12.8356067"><ele>282.0</ele><time>2026-05-03T08:16:30.604Z</time></trkpt><trkpt lat="43.5521667" lon="12.8356133"><ele>282.0</ele><time>2026-05-03T08:16:31.599Z</time></trkpt><trkpt lat="43.5522533" lon="12.8356283"><ele>281.6666666666667</ele><time>2026-05-03T08:16:32.603Z</time></trkpt><trkpt lat="43.55234" lon="12.8356417"><ele>281.3333333333333</ele><time>2026-05-03T08:16:33.608Z</time></trkpt><trkpt lat="43.552425" lon="12.8356517"><ele>281.0</ele><time>2026-05-03T08:16:34.604Z</time></trkpt><trkpt lat="43.5525117" lon="12.835665"><ele>280.66666666666663</ele><time>2026-05-03T08:16:35.607Z</time></trkpt><trkpt lat="43.5526" lon="12.8356783"><ele>280.3333333333333</ele><time>2026-05-03T08:16:36.597Z</time></trkpt><trkpt lat="43.5526883" lon="12.835695"><ele>280.0</ele><time>2026-05-03T08:16:37.605Z</time></trkpt><trkpt lat="43.5527767" lon="12.8357117"><ele>280.0</ele><time>2026-05-03T08:16:38.605Z</time></trkpt><trkpt lat="43.5528667" lon="12.8357267"><ele>280.0</ele><time>2026-05-03T08:16:39.603Z</time></trkpt><trkpt lat="43.5529583" lon="12.83574"><ele>280.0</ele><time>2026-05-03T08:16:40.606Z</time></trkpt><trkpt lat="43.5530517" lon="12.8357533"><ele>280.0</ele><time>2026-05-03T08:16:41.601Z</time></trkpt><trkpt lat="43.553145" lon="12.8357667"><ele>280.0</ele><time>2026-05-03T08:16:42.602Z</time></trkpt><trkpt lat="43.55324" lon="12.8357833"><ele>279.6</ele><time>2026-05-03T08:16:43.604Z</time></trkpt><trkpt lat="43.5533367" lon="12.8357983"><ele>279.2</ele><time>2026-05-03T08:16:44.607Z</time></trkpt><trkpt lat="43.5534367" lon="12.83581"><ele>278.8</ele><time>2026-05-03T08:16:45.606Z</time></trkpt><trkpt lat="43.55354" lon="12.83582"><ele>278.4</ele><time>2026-05-03T08:16:46.607Z</time></trkpt><trkpt lat="43.553645" lon="12.83583"><ele>278.0</ele><time>2026-05-03T08:16:47.611Z</time></trkpt><trkpt lat="43.5537483" lon="12.8358433"><ele>278.0</ele><time>2026-05-03T08:16:48.6Z</time></trkpt><trkpt lat="43.55385" lon="12.835855"><ele>278.0</ele><time>2026-05-03T08:16:49.602Z</time></trkpt><trkpt lat="43.553955" lon="12.8358683"><ele>278.0</ele><time>2026-05-03T08:16:50.605Z</time></trkpt><trkpt lat="43.5540583" lon="12.8358817"><ele>278.0</ele><time>2026-05-03T08:16:51.604Z</time></trkpt><trkpt lat="43.55416" lon="12.8358967"><ele>278.0</ele><time>2026-05-03T08:16:52.6Z</time></trkpt><trkpt lat="43.5542533" lon="12.8359167"><ele>278.0</ele><time>2026-05-03T08:16:53.604Z</time></trkpt><trkpt lat="43.5543433" lon="12.8359317"><ele>278.0</ele><time>2026-05-03T08:16:54.606Z</time></trkpt><trkpt lat="43.5544317" lon="12.8359417"><ele>278.0</ele><time>2026-05-03T08:16:55.604Z</time></trkpt><trkpt lat="43.554515" lon="12.83595"><ele>278.0</ele><time>2026-05-03T08:16:56.608Z</time></trkpt><trkpt lat="43.5545983" lon="12.835955"><ele>278.0</ele><time>2026-05-03T08:16:57.608Z</time></trkpt><trkpt lat="43.5546817" lon="12.8359667"><ele>278.0</ele><time>2026-05-03T08:16:58.601Z</time></trkpt><trkpt lat="43.5547633" lon="12.8359767"><ele>277.6666666666667</ele><time>2026-05-03T08:16:59.6Z</time></trkpt><trkpt lat="43.5548467" lon="12.835985"><ele>277.33333333333337</ele><time>2026-05-03T08:17:00.604Z</time></trkpt><trkpt lat="43.55493" lon="12.835995"><ele>277.0</ele><time>2026-05-03T08:17:01.606Z</time></trkpt><trkpt lat="43.55501" lon="12.8360067"><ele>276.6666666666667</ele><time>2026-05-03T08:17:02.607Z</time></trkpt><trkpt lat="43.555085" lon="12.8360183"><ele>276.3333333333333</ele><time>2026-05-03T08:17:03.601Z</time></trkpt><trkpt lat="43.55516" lon="12.8360283"><ele>276.0</ele><time>2026-05-03T08:17:04.601Z</time></trkpt><trkpt lat="43.5552383" lon="12.8360433"><ele>276.0</ele><time>2026-05-03T08:17:05.603Z</time></trkpt><trkpt lat="43.555325" lon="12.8360567"><ele>276.0</ele><time>2026-05-03T08:17:06.602Z</time></trkpt><trkpt lat="43.5554183" lon="12.8360667"><ele>276.0</ele><time>2026-05-03T08:17:07.604Z</time></trkpt><trkpt lat="43.5555217" lon="12.8360733"><ele>276.0</ele><time>2026-05-03T08:17:08.606Z</time></trkpt><trkpt lat="43.555625" lon="12.8360817"><ele>276.0</ele><time>2026-05-03T08:17:09.596Z</time></trkpt><trkpt lat="43.5557283" lon="12.836095"><ele>275.8</ele><time>2026-05-03T08:17:10.61Z</time></trkpt><trkpt lat="43.5558283" lon="12.8361133"><ele>275.6</ele><time>2026-05-03T08:17:11.605Z</time></trkpt><trkpt lat="43.555925" lon="12.8361283"><ele>275.4</ele><time>2026-05-03T08:17:12.608Z</time></trkpt><trkpt lat="43.5560167" lon="12.8361383"><ele>275.2</ele><time>2026-05-03T08:17:13.605Z</time></trkpt><trkpt lat="43.5561083" lon="12.83615"><ele>275.0</ele><time>2026-05-03T08:17:14.603Z</time></trkpt><trkpt lat="43.5562017" lon="12.836155"><ele>274.5</ele><time>2026-05-03T08:17:15.597Z</time></trkpt><trkpt lat="43.556295" lon="12.836165"><ele>274.0</ele><time>2026-05-03T08:17:16.612Z</time></trkpt><trkpt lat="43.5563833" lon="12.8361717"><ele>273.5</ele><time>2026-05-03T08:17:17.602Z</time></trkpt><trkpt lat="43.5564683" lon="12.8361833"><ele>273.0</ele><time>2026-05-03T08:17:18.604Z</time></trkpt><trkpt lat="43.5565467" lon="12.836195"><ele>272.5</ele><time>2026-05-03T08:17:19.607Z</time></trkpt><trkpt lat="43.5566283" lon="12.8362083"><ele>272.0</ele><time>2026-05-03T08:17:20.607Z</time></trkpt><trkpt lat="43.55671" lon="12.83622"><ele>272.0</ele><time>2026-05-03T08:17:21.606Z</time></trkpt><trkpt lat="43.55679" lon="12.8362317"><ele>272.0</ele><time>2026-05-03T08:17:22.606Z</time></trkpt><trkpt lat="43.55687" lon="12.8362467"><ele>272.0</ele><time>2026-05-03T08:17:23.599Z</time></trkpt><trkpt lat="43.5569517" lon="12.8362583"><ele>272.0</ele><time>2026-05-03T08:17:24.599Z</time></trkpt><trkpt lat="43.55703" lon="12.836265"><ele>272.0</ele><time>2026-05-03T08:17:25.602Z</time></trkpt><trkpt lat="43.5571083" lon="12.8362683"><ele>272.0</ele><time>2026-05-03T08:17:26.603Z</time></trkpt><trkpt lat="43.55719" lon="12.83627"><ele>271.83333333333337</ele><time>2026-05-03T08:17:27.606Z</time></trkpt><trkpt lat="43.5572667" lon="12.8362783"><ele>271.6666666666667</ele><time>2026-05-03T08:17:28.601Z</time></trkpt><trkpt lat="43.55735" lon="12.8362867"><ele>271.5</ele><time>2026-05-03T08:17:29.603Z</time></trkpt><trkpt lat="43.557435" lon="12.8362983"><ele>271.3333333333333</ele><time>2026-05-03T08:17:30.602Z</time></trkpt><trkpt lat="43.55752" lon="12.83631"><ele>271.16666666666663</ele><time>2026-05-03T08:17:31.598Z</time></trkpt><trkpt lat="43.5576067" lon="12.83633"><ele>271.0</ele><time>2026-05-03T08:17:32.602Z</time></trkpt><trkpt lat="43.5576917" lon="12.836345"><ele>271.0</ele><time>2026-05-03T08:17:33.594Z</time></trkpt><trkpt lat="43.5577783" lon="12.8363633"><ele>271.0</ele><time>2026-05-03T08:17:34.603Z</time></trkpt><trkpt lat="43.557865" lon="12.8363767"><ele>271.0</ele><time>2026-05-03T08:17:35.602Z</time></trkpt><trkpt lat="43.55795" lon="12.83639"><ele>271.0</ele><time>2026-05-03T08:17:36.606Z</time></trkpt><trkpt lat="43.5580367" lon="12.8364"><ele>271.0</ele><time>2026-05-03T08:17:37.61Z</time></trkpt><trkpt lat="43.5581367" lon="12.83644"><ele>270.8333333333333</ele><time>2026-05-03T08:17:38.607Z</time></trkpt><trkpt lat="43.5582233" lon="12.8364417"><ele>270.66666666666663</ele><time>2026-05-03T08:17:39.601Z</time></trkpt><trkpt lat="43.5583067" lon="12.8364517"><ele>270.5</ele><time>2026-05-03T08:17:40.609Z</time></trkpt><trkpt lat="43.558395" lon="12.836465"><ele>270.3333333333333</ele><time>2026-05-03T08:17:41.597Z</time></trkpt><trkpt lat="43.5584867" lon="12.8364733"><ele>270.1666666666667</ele><time>2026-05-03T08:17:42.6Z</time></trkpt><trkpt lat="43.55858" lon="12.836485"><ele>270.0</ele><time>2026-05-03T08:17:43.603Z</time></trkpt><trkpt lat="43.5586683" lon="12.8364883"><ele>269.5</ele><time>2026-05-03T08:17:44.603Z</time></trkpt><trkpt lat="43.5587583" lon="12.8364867"><ele>269.0</ele><time>2026-05-03T08:17:45.596Z</time></trkpt><trkpt lat="43.558845" lon="12.83648"><ele>268.5</ele><time>2026-05-03T08:17:46.608Z</time></trkpt><trkpt lat="43.5589283" lon="12.8364733"><ele>268.0</ele><time>2026-05-03T08:17:47.606Z</time></trkpt><trkpt lat="43.5590133" lon="12.836465"><ele>267.5</ele><time>2026-05-03T08:17:48.608Z</time></trkpt><trkpt lat="43.5591017" lon="12.8364517"><ele>267.0</ele><time>2026-05-03T08:17:49.601Z</time></trkpt><trkpt lat="43.55919" lon="12.83643"><ele>267.0</ele><time>2026-05-03T08:17:50.603Z</time></trkpt><trkpt lat="43.5592733" lon="12.8363983"><ele>267.0</ele><time>2026-05-03T08:17:51.604Z</time></trkpt><trkpt lat="43.5593533" lon="12.8363683"><ele>267.0</ele><time>2026-05-03T08:17:52.606Z</time></trkpt><trkpt lat="43.5594317" lon="12.8363333"><ele>267.0</ele><time>2026-05-03T08:17:53.601Z</time></trkpt><trkpt lat="43.55951" lon="12.8362983"><ele>267.0</ele><time>2026-05-03T08:17:54.6Z</time></trkpt><trkpt lat="43.55958" lon="12.8362617"><ele>267.0</ele><time>2026-05-03T08:17:55.598Z</time></trkpt><trkpt lat="43.55964" lon="12.8362333"><ele>266.5</ele><time>2026-05-03T08:17:56.605Z</time></trkpt><trkpt lat="43.5597283" lon="12.836195"><ele>266.0</ele><time>2026-05-03T08:17:58.606Z</time></trkpt><trkpt lat="43.5598117" lon="12.8361533"><ele>265.5</ele><time>2026-05-03T08:18:01.601Z</time></trkpt><trkpt lat="43.559895" lon="12.8361283"><ele>265.0</ele><time>2026-05-03T08:18:52.6Z</time></trkpt><trkpt lat="43.559965" lon="12.8360883"><ele>264.5</ele><time>2026-05-03T08:18:54.599Z</time></trkpt><trkpt lat="43.5600383" lon="12.8360517"><ele>264.0</ele><time>2026-05-03T08:18:56.602Z</time></trkpt><trkpt lat="43.560115" lon="12.8359767"><ele>264.7142857142857</ele><time>2026-05-03T08:18:58.6Z</time></trkpt><trkpt lat="43.5601733" lon="12.835855"><ele>265.42857142857144</ele><time>2026-05-03T08:19:00.599Z</time></trkpt><trkpt lat="43.560195" lon="12.8357733"><ele>266.14285714285717</ele><time>2026-05-03T08:19:01.607Z</time></trkpt><trkpt lat="43.5602083" lon="12.8356833"><ele>266.8571428571429</ele><time>2026-05-03T08:19:02.6Z</time></trkpt><trkpt lat="43.56022" lon="12.8355883"><ele>267.5714285714286</ele><time>2026-05-03T08:19:03.596Z</time></trkpt><trkpt lat="43.5602333" lon="12.8354933"><ele>268.2857142857143</ele><time>2026-05-03T08:19:04.609Z</time></trkpt><trkpt lat="43.5602383" lon="12.8353983"><ele>269.0</ele><time>2026-05-03T08:19:05.6Z</time></trkpt><trkpt lat="43.5602233" lon="12.835285"><ele>269.0</ele><time>2026-05-03T08:19:06.606Z</time></trkpt><trkpt lat="43.5602283" lon="12.8351883"><ele>269.0</ele><time>2026-05-03T08:19:07.599Z</time></trkpt><trkpt lat="43.5602433" lon="12.8350833"><ele>269.0</ele><time>2026-05-03T08:19:08.605Z</time></trkpt><trkpt lat="43.5602517" lon="12.8349767"><ele>269.0</ele><time>2026-05-03T08:19:09.602Z</time></trkpt><trkpt lat="43.5602633" lon="12.83486"><ele>269.0</ele><time>2026-05-03T08:19:10.604Z</time></trkpt><trkpt lat="43.5602717" lon="12.8347433"><ele>269.0</ele><time>2026-05-03T08:19:11.603Z</time></trkpt><trkpt lat="43.56028" lon="12.83461"><ele>270.0</ele><time>2026-05-03T08:19:12.605Z</time></trkpt><trkpt lat="43.56028" lon="12.8344617"><ele>271.0</ele><time>2026-05-03T08:19:13.606Z</time></trkpt><trkpt lat="43.56028" lon="12.8343217"><ele>272.0</ele><time>2026-05-03T08:19:14.603Z</time></trkpt><trkpt lat="43.5602833" lon="12.834185"><ele>273.0</ele><time>2026-05-03T08:19:15.606Z</time></trkpt><trkpt lat="43.5602917" lon="12.8340483"><ele>274.0</ele><time>2026-05-03T08:19:16.596Z</time></trkpt><trkpt lat="43.5602983" lon="12.8339083"><ele>276.25</ele><time>2026-05-03T08:19:17.603Z</time></trkpt><trkpt lat="43.56031" lon="12.8337567"><ele>278.5</ele><time>2026-05-03T08:19:18.607Z</time></trkpt><trkpt lat="43.560325" lon="12.833585"><ele>280.75</ele><time>2026-05-03T08:19:19.602Z</time></trkpt><trkpt lat="43.56034" lon="12.8334167"><ele>283.0</ele><time>2026-05-03T08:19:20.611Z</time></trkpt><trkpt lat="43.5603433" lon="12.8332683"><ele>283.4</ele><time>2026-05-03T08:19:21.606Z</time></trkpt><trkpt lat="43.5603583" lon="12.8331367"><ele>283.8</ele><time>2026-05-03T08:19:22.604Z</time></trkpt><trkpt lat="43.5603867" lon="12.8329983"><ele>284.2</ele><time>2026-05-03T08:19:23.604Z</time></trkpt><trkpt lat="43.560425" lon="12.8328583"><ele>284.6</ele><time>2026-05-03T08:19:24.599Z</time></trkpt><trkpt lat="43.5604867" lon="12.832725"><ele>285.0</ele><time>2026-05-03T08:19:25.603Z</time></trkpt><trkpt lat="43.5605583" lon="12.8326067"><ele>285.0</ele><time>2026-05-03T08:19:26.605Z</time></trkpt><trkpt lat="43.5606467" lon="12.83251"><ele>285.0</ele><time>2026-05-03T08:19:27.602Z</time></trkpt><trkpt lat="43.5607417" lon="12.83243"><ele>285.0</ele><time>2026-05-03T08:19:28.602Z</time></trkpt><trkpt lat="43.56084" lon="12.8323683"><ele>285.0</ele><time>2026-05-03T08:19:29.605Z</time></trkpt><trkpt lat="43.5609483" lon="12.832335"><ele>285.0</ele><time>2026-05-03T08:19:30.609Z</time></trkpt><trkpt lat="43.561075" lon="12.8323317"><ele>283.25</ele><time>2026-05-03T08:19:31.601Z</time></trkpt><trkpt lat="43.561205" lon="12.8323417"><ele>281.5</ele><time>2026-05-03T08:19:32.611Z</time></trkpt><trkpt lat="43.5613317" lon="12.832365"><ele>279.75</ele><time>2026-05-03T08:19:33.607Z</time></trkpt><trkpt lat="43.5614517" lon="12.832385"><ele>278.0</ele><time>2026-05-03T08:19:34.603Z</time></trkpt><trkpt lat="43.5615683" lon="12.8323933"><ele>278.0</ele><time>2026-05-03T08:19:35.612Z</time></trkpt><trkpt lat="43.56168" lon="12.83239"><ele>278.0</ele><time>2026-05-03T08:19:36.607Z</time></trkpt><trkpt lat="43.561795" lon="12.8323667"><ele>278.0</ele><time>2026-05-03T08:19:37.606Z</time></trkpt><trkpt lat="43.5619083" lon="12.8323267"><ele>278.0</ele><time>2026-05-03T08:19:38.605Z</time></trkpt><trkpt lat="43.562015" lon="12.83227"><ele>274.5</ele><time>2026-05-03T08:19:39.603Z</time></trkpt><trkpt lat="43.56212" lon="12.8321967"><ele>271.0</ele><time>2026-05-03T08:19:40.607Z</time></trkpt><trkpt lat="43.562215" lon="12.832105"><ele>267.5</ele><time>2026-05-03T08:19:41.606Z</time></trkpt><trkpt lat="43.5623017" lon="12.8319967"><ele>264.0</ele><time>2026-05-03T08:19:42.609Z</time></trkpt><trkpt lat="43.5623767" lon="12.8318683"><ele>264.0</ele><time>2026-05-03T08:19:43.602Z</time></trkpt><trkpt lat="43.5624367" lon="12.831725"><ele>264.0</ele><time>2026-05-03T08:19:44.605Z</time></trkpt><trkpt lat="43.5624817" lon="12.8315667"><ele>264.0</ele><time>2026-05-03T08:19:45.604Z</time></trkpt><trkpt lat="43.5625083" lon="12.8313983"><ele>264.0</ele><time>2026-05-03T08:19:46.6Z</time></trkpt><trkpt lat="43.5625133" lon="12.831235"><ele>264.0</ele><time>2026-05-03T08:19:47.605Z</time></trkpt><trkpt lat="43.562505" lon="12.8310783"><ele>264.0</ele><time>2026-05-03T08:19:48.605Z</time></trkpt><trkpt lat="43.5624933" lon="12.830925"><ele>264.0</ele><time>2026-05-03T08:19:49.601Z</time></trkpt><trkpt lat="43.5624667" lon="12.83078"><ele>264.0</ele><time>2026-05-03T08:19:50.599Z</time></trkpt><trkpt lat="43.5624233" lon="12.8306367"><ele>264.0</ele><time>2026-05-03T08:19:51.608Z</time></trkpt><trkpt lat="43.5623667" lon="12.8305033"><ele>264.0</ele><time>2026-05-03T08:19:52.6Z</time></trkpt><trkpt lat="43.5623017" lon="12.8303833"><ele>264.0</ele><time>2026-05-03T08:19:53.608Z</time></trkpt><trkpt lat="43.56223" lon="12.8302633"><ele>264.0</ele><time>2026-05-03T08:19:54.601Z</time></trkpt><trkpt lat="43.5621533" lon="12.8301317"><ele>264.0</ele><time>2026-05-03T08:19:55.605Z</time></trkpt><trkpt lat="43.562065" lon="12.8299767"><ele>265.0</ele><time>2026-05-03T08:19:56.606Z</time></trkpt><trkpt lat="43.5619667" lon="12.8298033"><ele>266.0</ele><time>2026-05-03T08:19:57.599Z</time></trkpt><trkpt lat="43.5618617" lon="12.8296383"><ele>267.0</ele><time>2026-05-03T08:19:58.6Z</time></trkpt><trkpt lat="43.561755" lon="12.8294783"><ele>267.0</ele><time>2026-05-03T08:19:59.601Z</time></trkpt><trkpt lat="43.5616517" lon="12.8293233"><ele>267.0</ele><time>2026-05-03T08:20:00.604Z</time></trkpt><trkpt lat="43.5615517" lon="12.82917"><ele>267.0</ele><time>2026-05-03T08:20:01.603Z</time></trkpt><trkpt lat="43.5614567" lon="12.8290267"><ele>267.0</ele><time>2026-05-03T08:20:02.608Z</time></trkpt><trkpt lat="43.56136" lon="12.828895"><ele>266.25</ele><time>2026-05-03T08:20:03.6Z</time></trkpt><trkpt lat="43.5612617" lon="12.8287783"><ele>265.5</ele><time>2026-05-03T08:20:04.604Z</time></trkpt><trkpt lat="43.5611533" lon="12.82868"><ele>264.75</ele><time>2026-05-03T08:20:05.605Z</time></trkpt><trkpt lat="43.5610317" lon="12.8285983"><ele>264.0</ele><time>2026-05-03T08:20:06.605Z</time></trkpt><trkpt lat="43.560905" lon="12.8285233"><ele>261.25</ele><time>2026-05-03T08:20:07.609Z</time></trkpt><trkpt lat="43.5607783" lon="12.8284533"><ele>258.5</ele><time>2026-05-03T08:20:08.598Z</time></trkpt><trkpt lat="43.560655" lon="12.8283867"><ele>255.75</ele><time>2026-05-03T08:20:09.6Z</time></trkpt><trkpt lat="43.560535" lon="12.8283217"><ele>253.0</ele><time>2026-05-03T08:20:10.597Z</time></trkpt><trkpt lat="43.5604167" lon="12.8282617"><ele>253.2</ele><time>2026-05-03T08:20:11.604Z</time></trkpt><trkpt lat="43.5603" lon="12.8282033"><ele>253.4</ele><time>2026-05-03T08:20:12.602Z</time></trkpt><trkpt lat="43.5601917" lon="12.828145"><ele>253.59999999999997</ele><time>2026-05-03T08:20:13.6Z</time></trkpt><trkpt lat="43.5601017" lon="12.82807"><ele>253.79999999999998</ele><time>2026-05-03T08:20:14.603Z</time></trkpt><trkpt lat="43.5600317" lon="12.8279667"><ele>254.0</ele><time>2026-05-03T08:20:15.595Z</time></trkpt><trkpt lat="43.559985" lon="12.8278417"><ele>254.0</ele><time>2026-05-03T08:20:16.605Z</time></trkpt><trkpt lat="43.559965" lon="12.8277033"><ele>253.99999999999997</ele><time>2026-05-03T08:20:17.606Z</time></trkpt><trkpt lat="43.5599733" lon="12.82756"><ele>253.99999999999997</ele><time>2026-05-03T08:20:18.604Z</time></trkpt><trkpt lat="43.56" lon="12.8274167"><ele>254.0</ele><time>2026-05-03T08:20:19.603Z</time></trkpt><trkpt lat="43.5600483" lon="12.8272683"><ele>254.0</ele><time>2026-05-03T08:20:20.598Z</time></trkpt><trkpt lat="43.560105" lon="12.82713"><ele>254.0</ele><time>2026-05-03T08:20:21.601Z</time></trkpt><trkpt lat="43.56016" lon="12.8270017"><ele>253.99999999999997</ele><time>2026-05-03T08:20:22.597Z</time></trkpt><trkpt lat="43.5601983" lon="12.8268733"><ele>253.99999999999997</ele><time>2026-05-03T08:20:23.607Z</time></trkpt><trkpt lat="43.5602183" lon="12.8267433"><ele>254.0</ele><time>2026-05-03T08:20:24.606Z</time></trkpt><trkpt lat="43.5602267" lon="12.82662"><ele>254.0</ele><time>2026-05-03T08:20:25.596Z</time></trkpt><trkpt lat="43.560225" lon="12.8265133"><ele>254.0</ele><time>2026-05-03T08:20:26.603Z</time></trkpt><trkpt lat="43.5602133" lon="12.82642"><ele>253.99999999999997</ele><time>2026-05-03T08:20:27.602Z</time></trkpt><trkpt lat="43.5601917" lon="12.8262633"><ele>253.99999999999997</ele><time>2026-05-03T08:20:29.599Z</time></trkpt><trkpt lat="43.5602183" lon="12.8261117"><ele>254.0</ele><time>2026-05-03T08:20:31.604Z</time></trkpt><trkpt lat="43.5602383" lon="12.8259967"><ele>254.0</ele><time>2026-05-03T08:20:33.601Z</time></trkpt><trkpt lat="43.5601767" lon="12.825875"><ele>254.0</ele><time>2026-05-03T08:20:35.6Z</time></trkpt><trkpt lat="43.560105" lon="12.8258133"><ele>254.0</ele><time>2026-05-03T08:20:36.604Z</time></trkpt><trkpt lat="43.560015" lon="12.8257483"><ele>254.0</ele><time>2026-05-03T08:20:37.603Z</time></trkpt><trkpt lat="43.559905" lon="12.8256533"><ele>254.0</ele><time>2026-05-03T08:20:38.598Z</time></trkpt><trkpt lat="43.559795" lon="12.8255383"><ele>254.0</ele><time>2026-05-03T08:20:39.607Z</time></trkpt><trkpt lat="43.5596833" lon="12.8254033"><ele>254.0</ele><time>2026-05-03T08:20:40.595Z</time></trkpt><trkpt lat="43.55957" lon="12.82524"><ele>254.0</ele><time>2026-05-03T08:20:41.607Z</time></trkpt><trkpt lat="43.5594633" lon="12.82506"><ele>255.33333333333334</ele><time>2026-05-03T08:20:42.606Z</time></trkpt><trkpt lat="43.5593633" lon="12.8248833"><ele>256.6666666666667</ele><time>2026-05-03T08:20:43.596Z</time></trkpt><trkpt lat="43.559275" lon="12.8247"><ele>258.0</ele><time>2026-05-03T08:20:44.599Z</time></trkpt><trkpt lat="43.559195" lon="12.8245067"><ele>259.3333333333333</ele><time>2026-05-03T08:20:45.602Z</time></trkpt><trkpt lat="43.5591217" lon="12.824305"><ele>260.66666666666663</ele><time>2026-05-03T08:20:46.617Z</time></trkpt><trkpt lat="43.5590583" lon="12.824095"><ele>262.0</ele><time>2026-05-03T08:20:47.598Z</time></trkpt><trkpt lat="43.5590033" lon="12.823885"><ele>262.0</ele><time>2026-05-03T08:20:48.601Z</time></trkpt><trkpt lat="43.55895" lon="12.8236767"><ele>262.0</ele><time>2026-05-03T08:20:49.596Z</time></trkpt><trkpt lat="43.5589017" lon="12.8234633"><ele>262.0</ele><time>2026-05-03T08:20:50.596Z</time></trkpt><trkpt lat="43.5588533" lon="12.8232433"><ele>263.0</ele><time>2026-05-03T08:20:51.599Z</time></trkpt><trkpt lat="43.558805" lon="12.823025"><ele>264.0</ele><time>2026-05-03T08:20:52.602Z</time></trkpt><trkpt lat="43.55876" lon="12.8228167"><ele>265.0</ele><time>2026-05-03T08:20:53.603Z</time></trkpt><trkpt lat="43.558715" lon="12.82262"><ele>263.5</ele><time>2026-05-03T08:20:54.605Z</time></trkpt><trkpt lat="43.55867" lon="12.8224383"><ele>262.0</ele><time>2026-05-03T08:20:55.6Z</time></trkpt><trkpt lat="43.5586317" lon="12.8222717"><ele>260.5</ele><time>2026-05-03T08:20:56.601Z</time></trkpt><trkpt lat="43.5585933" lon="12.8221167"><ele>259.0</ele><time>2026-05-03T08:20:57.6Z</time></trkpt><trkpt lat="43.5585533" lon="12.8219717"><ele>259.0</ele><time>2026-05-03T08:20:58.599Z</time></trkpt><trkpt lat="43.55852" lon="12.8218433"><ele>259.0</ele><time>2026-05-03T08:20:59.6Z</time></trkpt><trkpt lat="43.5585" lon="12.8217217"><ele>259.0</ele><time>2026-05-03T08:21:00.599Z</time></trkpt><trkpt lat="43.558505" lon="12.8216033"><ele>259.0</ele><time>2026-05-03T08:21:01.6Z</time></trkpt><trkpt lat="43.5585433" lon="12.821485"><ele>259.0</ele><time>2026-05-03T08:21:02.607Z</time></trkpt><trkpt lat="43.5586117" lon="12.821375"><ele>259.4</ele><time>2026-05-03T08:21:03.605Z</time></trkpt><trkpt lat="43.55869" lon="12.8212733"><ele>259.79999999999995</ele><time>2026-05-03T08:21:04.601Z</time></trkpt><trkpt lat="43.5587683" lon="12.8211833"><ele>260.20000000000005</ele><time>2026-05-03T08:21:05.604Z</time></trkpt><trkpt lat="43.5588383" lon="12.8210967"><ele>260.6</ele><time>2026-05-03T08:21:06.605Z</time></trkpt><trkpt lat="43.5589067" lon="12.82101"><ele>261.0</ele><time>2026-05-03T08:21:07.61Z</time></trkpt><trkpt lat="43.5589717" lon="12.82092"><ele>262.8</ele><time>2026-05-03T08:21:08.603Z</time></trkpt><trkpt lat="43.5590267" lon="12.8208267"><ele>264.6</ele><time>2026-05-03T08:21:09.611Z</time></trkpt><trkpt lat="43.5590717" lon="12.8207283"><ele>266.4</ele><time>2026-05-03T08:21:10.602Z</time></trkpt><trkpt lat="43.5591133" lon="12.820615"><ele>268.2</ele><time>2026-05-03T08:21:11.603Z</time></trkpt><trkpt lat="43.55915" lon="12.8204767"><ele>270.0</ele><time>2026-05-03T08:21:12.613Z</time></trkpt><trkpt lat="43.5591817" lon="12.8203333"><ele>270.0</ele><time>2026-05-03T08:21:13.596Z</time></trkpt><trkpt lat="43.55921" lon="12.8201917"><ele>270.0</ele><time>2026-05-03T08:21:14.604Z</time></trkpt><trkpt lat="43.55921" lon="12.82006"><ele>270.0</ele><time>2026-05-03T08:21:15.609Z</time></trkpt><trkpt lat="43.55919" lon="12.8199383"><ele>270.0</ele><time>2026-05-03T08:21:16.602Z</time></trkpt><trkpt lat="43.559145" lon="12.8198183"><ele>270.0</ele><time>2026-05-03T08:21:17.603Z</time></trkpt><trkpt lat="43.5590833" lon="12.8197067"><ele>270.2</ele><time>2026-05-03T08:21:18.6Z</time></trkpt><trkpt lat="43.5590167" lon="12.8196033"><ele>270.4</ele><time>2026-05-03T08:21:19.603Z</time></trkpt><trkpt lat="43.5589367" lon="12.819495"><ele>270.6</ele><time>2026-05-03T08:21:20.602Z</time></trkpt><trkpt lat="43.5588633" lon="12.8193717"><ele>270.8</ele><time>2026-05-03T08:21:21.603Z</time></trkpt><trkpt lat="43.55879" lon="12.81924"><ele>271.0</ele><time>2026-05-03T08:21:22.605Z</time></trkpt><trkpt lat="43.558725" lon="12.8190983"><ele>270.0</ele><time>2026-05-03T08:21:23.608Z</time></trkpt><trkpt lat="43.5586783" lon="12.8189517"><ele>269.0</ele><time>2026-05-03T08:21:24.598Z</time></trkpt><trkpt lat="43.5586483" lon="12.8188033"><ele>268.0</ele><time>2026-05-03T08:21:25.599Z</time></trkpt><trkpt lat="43.5586333" lon="12.8186483"><ele>267.0</ele><time>2026-05-03T08:21:26.607Z</time></trkpt><trkpt lat="43.5586333" lon="12.8184933"><ele>266.75</ele><time>2026-05-03T08:21:27.603Z</time></trkpt><trkpt lat="43.558655" lon="12.8183383"><ele>266.5</ele><time>2026-05-03T08:21:28.603Z</time></trkpt><trkpt lat="43.5587" lon="12.8181883"><ele>266.25</ele><time>2026-05-03T08:21:29.601Z</time></trkpt><trkpt lat="43.558765" lon="12.8180383"><ele>266.0</ele><time>2026-05-03T08:21:30.606Z</time></trkpt><trkpt lat="43.5588483" lon="12.8178817"><ele>268.75</ele><time>2026-05-03T08:21:31.604Z</time></trkpt><trkpt lat="43.55894" lon="12.8177317"><ele>271.5</ele><time>2026-05-03T08:21:32.61Z</time></trkpt><trkpt lat="43.559035" lon="12.8176133"><ele>274.25</ele><time>2026-05-03T08:21:33.606Z</time></trkpt><trkpt lat="43.5591367" lon="12.8175233"><ele>277.0</ele><time>2026-05-03T08:21:34.6Z</time></trkpt><trkpt lat="43.559235" lon="12.81744"><ele>277.0</ele><time>2026-05-03T08:21:35.605Z</time></trkpt><trkpt lat="43.5593283" lon="12.81735"><ele>277.0</ele><time>2026-05-03T08:21:36.594Z</time></trkpt><trkpt lat="43.55942" lon="12.81725"><ele>277.0</ele><time>2026-05-03T08:21:37.601Z</time></trkpt><trkpt lat="43.5595" lon="12.8171383"><ele>277.0</ele><time>2026-05-03T08:21:38.609Z</time></trkpt><trkpt lat="43.5595667" lon="12.817015"><ele>277.75</ele><time>2026-05-03T08:21:39.602Z</time></trkpt><trkpt lat="43.5596233" lon="12.8168783"><ele>278.5</ele><time>2026-05-03T08:21:40.605Z</time></trkpt><trkpt lat="43.5596783" lon="12.816735"><ele>279.25</ele><time>2026-05-03T08:21:41.6Z</time></trkpt><trkpt lat="43.559735" lon="12.8165817"><ele>280.0</ele><time>2026-05-03T08:21:42.603Z</time></trkpt><trkpt lat="43.5597883" lon="12.816425"><ele>280.5</ele><time>2026-05-03T08:21:43.599Z</time></trkpt><trkpt lat="43.5598383" lon="12.8162633"><ele>281.0</ele><time>2026-05-03T08:21:44.607Z</time></trkpt><trkpt lat="43.5598867" lon="12.8160967"><ele>281.5</ele><time>2026-05-03T08:21:45.603Z</time></trkpt><trkpt lat="43.559935" lon="12.815925"><ele>282.0</ele><time>2026-05-03T08:21:46.604Z</time></trkpt><trkpt lat="43.55998" lon="12.8157533"><ele>282.5</ele><time>2026-05-03T08:21:47.6Z</time></trkpt><trkpt lat="43.5600217" lon="12.815585"><ele>283.0</ele><time>2026-05-03T08:21:48.61Z</time></trkpt><trkpt lat="43.5600633" lon="12.8154167"><ele>283.5</ele><time>2026-05-03T08:21:49.601Z</time></trkpt><trkpt lat="43.5601033" lon="12.8152467"><ele>284.0</ele><time>2026-05-03T08:21:50.614Z</time></trkpt><trkpt lat="43.5601467" lon="12.8150783"><ele>284.0</ele><time>2026-05-03T08:21:51.608Z</time></trkpt><trkpt lat="43.5601933" lon="12.8149133"><ele>284.0</ele><time>2026-05-03T08:21:52.605Z</time></trkpt><trkpt lat="43.5602417" lon="12.8147583"><ele>284.0</ele><time>2026-05-03T08:21:53.608Z</time></trkpt><trkpt lat="43.5603033" lon="12.8146117"><ele>284.0</ele><time>2026-05-03T08:21:54.602Z</time></trkpt><trkpt lat="43.56038" lon="12.814475"><ele>285.33333333333337</ele><time>2026-05-03T08:21:55.602Z</time></trkpt><trkpt lat="43.56048" lon="12.8143467"><ele>286.6666666666667</ele><time>2026-05-03T08:21:56.606Z</time></trkpt><trkpt lat="43.5606017" lon="12.8142133"><ele>288.0</ele><time>2026-05-03T08:21:57.606Z</time></trkpt><trkpt lat="43.56073" lon="12.8140667"><ele>290.3333333333333</ele><time>2026-05-03T08:21:58.607Z</time></trkpt><trkpt lat="43.56085" lon="12.81391"><ele>292.66666666666663</ele><time>2026-05-03T08:21:59.599Z</time></trkpt><trkpt lat="43.5609567" lon="12.8137483"><ele>295.0</ele><time>2026-05-03T08:22:00.608Z</time></trkpt><trkpt lat="43.5610467" lon="12.8135717"><ele>295.66666666666663</ele><time>2026-05-03T08:22:01.605Z</time></trkpt><trkpt lat="43.5611267" lon="12.8133733"><ele>296.3333333333333</ele><time>2026-05-03T08:22:02.595Z</time></trkpt><trkpt lat="43.5612017" lon="12.81315"><ele>297.0</ele><time>2026-05-03T08:22:03.605Z</time></trkpt><trkpt lat="43.5612683" lon="12.8129383"><ele>297.0</ele><time>2026-05-03T08:22:04.606Z</time></trkpt><trkpt lat="43.5613283" lon="12.81276"><ele>297.0</ele><time>2026-05-03T08:22:05.595Z</time></trkpt><trkpt lat="43.5613767" lon="12.81259"><ele>297.0</ele><time>2026-05-03T08:22:06.601Z</time></trkpt><trkpt lat="43.561405" lon="12.8124217"><ele>297.0</ele><time>2026-05-03T08:22:07.604Z</time></trkpt><trkpt lat="43.5614283" lon="12.81224"><ele>299.5</ele><time>2026-05-03T08:22:08.606Z</time></trkpt><trkpt lat="43.5614583" lon="12.8120417"><ele>302.0</ele><time>2026-05-03T08:22:09.602Z</time></trkpt><trkpt lat="43.56151" lon="12.8118517"><ele>304.5</ele><time>2026-05-03T08:22:10.604Z</time></trkpt><trkpt lat="43.56156" lon="12.8116833"><ele>307.0</ele><time>2026-05-03T08:22:11.596Z</time></trkpt><trkpt lat="43.5615933" lon="12.8115217"><ele>308.75</ele><time>2026-05-03T08:22:12.605Z</time></trkpt><trkpt lat="43.5616067" lon="12.8113517"><ele>310.5</ele><time>2026-05-03T08:22:13.606Z</time></trkpt><trkpt lat="43.5616067" lon="12.81118"><ele>312.25</ele><time>2026-05-03T08:22:14.606Z</time></trkpt><trkpt lat="43.5615917" lon="12.811005"><ele>314.0</ele><time>2026-05-03T08:22:15.592Z</time></trkpt><trkpt lat="43.5615633" lon="12.8108067"><ele>316.33333333333337</ele><time>2026-05-03T08:22:16.603Z</time></trkpt><trkpt lat="43.56153" lon="12.81059"><ele>318.6666666666667</ele><time>2026-05-03T08:22:17.607Z</time></trkpt><trkpt lat="43.5614967" lon="12.8103617"><ele>321.0</ele><time>2026-05-03T08:22:18.607Z</time></trkpt><trkpt lat="43.56146" lon="12.8101267"><ele>322.0</ele><time>2026-05-03T08:22:19.604Z</time></trkpt><trkpt lat="43.561425" lon="12.8098833"><ele>323.0</ele><time>2026-05-03T08:22:20.606Z</time></trkpt><trkpt lat="43.5613867" lon="12.8096283"><ele>324.0</ele><time>2026-05-03T08:22:21.606Z</time></trkpt><trkpt lat="43.5613467" lon="12.8093667"><ele>325.3333333333333</ele><time>2026-05-03T08:22:22.601Z</time></trkpt><trkpt lat="43.5613067" lon="12.8090967"><ele>326.66666666666663</ele><time>2026-05-03T08:22:23.61Z</time></trkpt><trkpt lat="43.56127" lon="12.8088333"><ele>328.0</ele><time>2026-05-03T08:22:24.602Z</time></trkpt><trkpt lat="43.561235" lon="12.8085933"><ele>330.75</ele><time>2026-05-03T08:22:25.603Z</time></trkpt><trkpt lat="43.56121" lon="12.80837"><ele>333.5</ele><time>2026-05-03T08:22:26.607Z</time></trkpt><trkpt lat="43.5611867" lon="12.8081733"><ele>336.25</ele><time>2026-05-03T08:22:27.61Z</time></trkpt><trkpt lat="43.5611683" lon="12.8079967"><ele>339.0</ele><time>2026-05-03T08:22:28.601Z</time></trkpt><trkpt lat="43.5611633" lon="12.8078283"><ele>340.5</ele><time>2026-05-03T08:22:29.603Z</time></trkpt><trkpt lat="43.5611783" lon="12.8076567"><ele>342.0</ele><time>2026-05-03T08:22:30.61Z</time></trkpt><trkpt lat="43.5612117" lon="12.807485"><ele>343.5</ele><time>2026-05-03T08:22:31.604Z</time></trkpt><trkpt lat="43.561255" lon="12.8073183"><ele>345.0</ele><time>2026-05-03T08:22:32.595Z</time></trkpt><trkpt lat="43.5613133" lon="12.8071583"><ele>345.0</ele><time>2026-05-03T08:22:33.606Z</time></trkpt><trkpt lat="43.5613983" lon="12.8069933"><ele>345.0</ele><time>2026-05-03T08:22:34.601Z</time></trkpt><trkpt lat="43.561505" lon="12.8068267"><ele>345.0</ele><time>2026-05-03T08:22:35.605Z</time></trkpt><trkpt lat="43.5616333" lon="12.8066583"><ele>348.0</ele><time>2026-05-03T08:22:36.609Z</time></trkpt><trkpt lat="43.5617617" lon="12.806495"><ele>351.0</ele><time>2026-05-03T08:22:37.604Z</time></trkpt><trkpt lat="43.56189" lon="12.8063367"><ele>354.0</ele><time>2026-05-03T08:22:38.602Z</time></trkpt><trkpt lat="43.5620133" lon="12.80618"><ele>352.0</ele><time>2026-05-03T08:22:39.601Z</time></trkpt><trkpt lat="43.5621317" lon="12.8060267"><ele>350.0</ele><time>2026-05-03T08:22:40.603Z</time></trkpt><trkpt lat="43.562245" lon="12.80588"><ele>348.0</ele><time>2026-05-03T08:22:41.602Z</time></trkpt><trkpt lat="43.5623533" lon="12.8057333"><ele>353.0</ele><time>2026-05-03T08:22:42.602Z</time></trkpt><trkpt lat="43.56246" lon="12.80559"><ele>358.0</ele><time>2026-05-03T08:22:43.601Z</time></trkpt><trkpt lat="43.5625683" lon="12.8054483"><ele>363.0</ele><time>2026-05-03T08:22:44.6Z</time></trkpt><trkpt lat="43.5626817" lon="12.8052983"><ele>364.0</ele><time>2026-05-03T08:22:45.606Z</time></trkpt><trkpt lat="43.5628" lon="12.8051283"><ele>365.0</ele><time>2026-05-03T08:22:46.605Z</time></trkpt><trkpt lat="43.5629217" lon="12.80494"><ele>366.0</ele><time>2026-05-03T08:22:47.605Z</time></trkpt><trkpt lat="43.5630517" lon="12.8047433"><ele>367.3333333333333</ele><time>2026-05-03T08:22:48.609Z</time></trkpt><trkpt lat="43.563185" lon="12.80455"><ele>368.66666666666663</ele><time>2026-05-03T08:22:49.604Z</time></trkpt><trkpt lat="43.56331" lon="12.8043683"><ele>370.0</ele><time>2026-05-03T08:22:50.616Z</time></trkpt><trkpt lat="43.5634217" lon="12.8042"><ele>374.0</ele><time>2026-05-03T08:22:51.608Z</time></trkpt><trkpt lat="43.56353" lon="12.8040467"><ele>378.0</ele><time>2026-05-03T08:22:52.607Z</time></trkpt><trkpt lat="43.563615" lon="12.8039033"><ele>382.0</ele><time>2026-05-03T08:22:53.608Z</time></trkpt><trkpt lat="43.56369" lon="12.8037717"><ele>386.0</ele><time>2026-05-03T08:22:54.604Z</time></trkpt><trkpt lat="43.5637667" lon="12.8036633"><ele>386.8333333333333</ele><time>2026-05-03T08:22:55.604Z</time></trkpt><trkpt lat="43.563845" lon="12.80359"><ele>387.66666666666663</ele><time>2026-05-03T08:22:56.606Z</time></trkpt><trkpt lat="43.5639233" lon="12.8035567"><ele>388.5</ele><time>2026-05-03T08:22:57.607Z</time></trkpt><trkpt lat="43.5639967" lon="12.8035717"><ele>389.33333333333337</ele><time>2026-05-03T08:22:58.601Z</time></trkpt><trkpt lat="43.5640717" lon="12.8036283"><ele>390.1666666666667</ele><time>2026-05-03T08:22:59.603Z</time></trkpt><trkpt lat="43.5641483" lon="12.8036917"><ele>391.0</ele><time>2026-05-03T08:23:00.596Z</time></trkpt><trkpt lat="43.5642333" lon="12.8037383"><ele>391.0</ele><time>2026-05-03T08:23:01.606Z</time></trkpt><trkpt lat="43.56433" lon="12.80375"><ele>391.0</ele><time>2026-05-03T08:23:02.6Z</time></trkpt><trkpt lat="43.56444" lon="12.8037333"><ele>391.0</ele><time>2026-05-03T08:23:03.605Z</time></trkpt><trkpt lat="43.56456" lon="12.803695"><ele>391.0</ele><time>2026-05-03T08:23:04.605Z</time></trkpt><trkpt lat="43.56469" lon="12.8036467"><ele>392.25</ele><time>2026-05-03T08:23:05.597Z</time></trkpt><trkpt lat="43.5648233" lon="12.8035867"><ele>393.5</ele><time>2026-05-03T08:23:06.601Z</time></trkpt><trkpt lat="43.56495" lon="12.803515"><ele>394.75</ele><time>2026-05-03T08:23:07.606Z</time></trkpt><trkpt lat="43.5650717" lon="12.8034333"><ele>396.0</ele><time>2026-05-03T08:23:08.617Z</time></trkpt><trkpt lat="43.5651867" lon="12.8033433"><ele>398.75</ele><time>2026-05-03T08:23:09.602Z</time></trkpt><trkpt lat="43.565295" lon="12.8032517"><ele>401.5</ele><time>2026-05-03T08:23:10.602Z</time></trkpt><trkpt lat="43.5653983" lon="12.8031517"><ele>404.25</ele><time>2026-05-03T08:23:11.602Z</time></trkpt><trkpt lat="43.5654867" lon="12.80305"><ele>407.0</ele><time>2026-05-03T08:23:12.605Z</time></trkpt><trkpt lat="43.5655567" lon="12.80295"><ele>408.66666666666663</ele><time>2026-05-03T08:23:13.603Z</time></trkpt><trkpt lat="43.565605" lon="12.80286"><ele>410.3333333333333</ele><time>2026-05-03T08:23:14.605Z</time></trkpt><trkpt lat="43.565645" lon="12.8027817"><ele>412.0</ele><time>2026-05-03T08:23:15.604Z</time></trkpt><trkpt lat="43.5656917" lon="12.802665"><ele>413.66666666666663</ele><time>2026-05-03T08:23:17.611Z</time></trkpt><trkpt lat="43.5657083" lon="12.8025783"><ele>415.3333333333333</ele><time>2026-05-03T08:23:19.605Z</time></trkpt><trkpt lat="43.5657167" lon="12.80245"><ele>417.0</ele><time>2026-05-03T08:23:22.609Z</time></trkpt><trkpt lat="43.5657167" lon="12.8023217"><ele>417.0</ele><time>2026-05-03T08:23:24.603Z</time></trkpt><trkpt lat="43.5657067" lon="12.80223"><ele>417.0</ele><time>2026-05-03T08:23:25.596Z</time></trkpt><trkpt lat="43.5656883" lon="12.8021183"><ele>417.0</ele><time>2026-05-03T08:23:26.608Z</time></trkpt><trkpt lat="43.5656717" lon="12.8019917"><ele>417.0</ele><time>2026-05-03T08:23:27.601Z</time></trkpt><trkpt lat="43.565655" lon="12.8018583"><ele>417.0</ele><time>2026-05-03T08:23:28.605Z</time></trkpt><trkpt lat="43.5656383" lon="12.8017167"><ele>417.0</ele><time>2026-05-03T08:23:29.604Z</time></trkpt><trkpt lat="43.5656267" lon="12.80157"><ele>417.20000000000005</ele><time>2026-05-03T08:23:30.608Z</time></trkpt><trkpt lat="43.5656183" lon="12.801425"><ele>417.4</ele><time>2026-05-03T08:23:31.604Z</time></trkpt><trkpt lat="43.5656167" lon="12.8012867"><ele>417.6</ele><time>2026-05-03T08:23:32.604Z</time></trkpt><trkpt lat="43.5656217" lon="12.801145"><ele>417.79999999999995</ele><time>2026-05-03T08:23:33.603Z</time></trkpt><trkpt lat="43.5656267" lon="12.8009983"><ele>418.0</ele><time>2026-05-03T08:23:34.603Z</time></trkpt><trkpt lat="43.565635" lon="12.8008467"><ele>418.0</ele><time>2026-05-03T08:23:35.601Z</time></trkpt><trkpt lat="43.56564" lon="12.8006917"><ele>418.0</ele><time>2026-05-03T08:23:36.607Z</time></trkpt><trkpt lat="43.5656417" lon="12.8005317"><ele>418.0</ele><time>2026-05-03T08:23:37.606Z</time></trkpt><trkpt lat="43.5656433" lon="12.8003683"><ele>418.0</ele><time>2026-05-03T08:23:38.605Z</time></trkpt><trkpt lat="43.5656467" lon="12.8001967"><ele>418.25</ele><time>2026-05-03T08:23:39.603Z</time></trkpt><trkpt lat="43.5656517" lon="12.8000233"><ele>418.5</ele><time>2026-05-03T08:23:40.603Z</time></trkpt><trkpt lat="43.56566" lon="12.7998467"><ele>418.75</ele><time>2026-05-03T08:23:41.613Z</time></trkpt><trkpt lat="43.56567" lon="12.7996683"><ele>419.0</ele><time>2026-05-03T08:23:42.605Z</time></trkpt><trkpt lat="43.5656783" lon="12.7994933"><ele>421.0</ele><time>2026-05-03T08:23:43.606Z</time></trkpt><trkpt lat="43.565685" lon="12.7993217"><ele>423.0</ele><time>2026-05-03T08:23:44.603Z</time></trkpt><trkpt lat="43.565695" lon="12.799155"><ele>425.0</ele><time>2026-05-03T08:23:45.603Z</time></trkpt><trkpt lat="43.5657083" lon="12.79899"><ele>427.0</ele><time>2026-05-03T08:23:46.605Z</time></trkpt><trkpt lat="43.5657283" lon="12.79883"><ele>427.0</ele><time>2026-05-03T08:23:47.609Z</time></trkpt><trkpt lat="43.56575" lon="12.7986683"><ele>427.0</ele><time>2026-05-03T08:23:48.6Z</time></trkpt><trkpt lat="43.5657767" lon="12.7985067"><ele>427.0</ele><time>2026-05-03T08:23:49.61Z</time></trkpt><trkpt lat="43.565805" lon="12.7983417"><ele>427.0</ele><time>2026-05-03T08:23:50.605Z</time></trkpt><trkpt lat="43.5658317" lon="12.798175"><ele>428.75</ele><time>2026-05-03T08:23:51.603Z</time></trkpt><trkpt lat="43.5658567" lon="12.7980033"><ele>430.5</ele><time>2026-05-03T08:23:52.596Z</time></trkpt><trkpt lat="43.5658783" lon="12.7978317"><ele>432.25</ele><time>2026-05-03T08:23:53.599Z</time></trkpt><trkpt lat="43.5658967" lon="12.7976667"><ele>434.0</ele><time>2026-05-03T08:23:54.595Z</time></trkpt><trkpt lat="43.5659083" lon="12.7975067"><ele>436.0</ele><time>2026-05-03T08:23:55.601Z</time></trkpt><trkpt lat="43.5659133" lon="12.7973517"><ele>438.0</ele><time>2026-05-03T08:23:56.604Z</time></trkpt><trkpt lat="43.565915" lon="12.7971833"><ele>440.0</ele><time>2026-05-03T08:23:57.597Z</time></trkpt><trkpt lat="43.5659133" lon="12.7970233"><ele>442.0</ele><time>2026-05-03T08:23:58.613Z</time></trkpt><trkpt lat="43.5659133" lon="12.7968867"><ele>444.0</ele><time>2026-05-03T08:23:59.608Z</time></trkpt><trkpt lat="43.565925" lon="12.7967467"><ele>444.6</ele><time>2026-05-03T08:24:00.604Z</time></trkpt><trkpt lat="43.5659483" lon="12.7966067"><ele>445.2</ele><time>2026-05-03T08:24:01.602Z</time></trkpt><trkpt lat="43.565975" lon="12.7964617"><ele>445.80000000000007</ele><time>2026-05-03T08:24:02.606Z</time></trkpt><trkpt lat="43.566" lon="12.7963183"><ele>446.40000000000003</ele><time>2026-05-03T08:24:03.606Z</time></trkpt><trkpt lat="43.5660167" lon="12.7961717"><ele>447.0</ele><time>2026-05-03T08:24:04.604Z</time></trkpt><trkpt lat="43.5660267" lon="12.7960183"><ele>446.0</ele><time>2026-05-03T08:24:05.611Z</time></trkpt><trkpt lat="43.5660267" lon="12.795865"><ele>445.00000000000006</ele><time>2026-05-03T08:24:06.608Z</time></trkpt><trkpt lat="43.5660217" lon="12.7957133"><ele>444.00000000000006</ele><time>2026-05-03T08:24:07.605Z</time></trkpt><trkpt lat="43.5660133" lon="12.7955617"><ele>443.0</ele><time>2026-05-03T08:24:08.607Z</time></trkpt><trkpt lat="43.5660033" lon="12.7954067"><ele>442.0</ele><time>2026-05-03T08:24:09.601Z</time></trkpt><trkpt lat="43.5659917" lon="12.7952517"><ele>440.8</ele><time>2026-05-03T08:24:10.6Z</time></trkpt><trkpt lat="43.565975" lon="12.7951"><ele>439.6</ele><time>2026-05-03T08:24:11.602Z</time></trkpt><trkpt lat="43.5659583" lon="12.79495"><ele>438.40000000000003</ele><time>2026-05-03T08:24:12.6Z</time></trkpt><trkpt lat="43.565955" lon="12.7948017"><ele>437.20000000000005</ele><time>2026-05-03T08:24:13.604Z</time></trkpt><trkpt lat="43.5659533" lon="12.7946567"><ele>436.0</ele><time>2026-05-03T08:24:14.61Z</time></trkpt><trkpt lat="43.5659867" lon="12.7944883"><ele>433.6666666666667</ele><time>2026-05-03T08:24:15.606Z</time></trkpt><trkpt lat="43.56604" lon="12.7942983"><ele>431.33333333333337</ele><time>2026-05-03T08:24:16.602Z</time></trkpt><trkpt lat="43.5661133" lon="12.7941017"><ele>429.0</ele><time>2026-05-03T08:24:17.608Z</time></trkpt><trkpt lat="43.56619" lon="12.7939167"><ele>427.25</ele><time>2026-05-03T08:24:18.606Z</time></trkpt><trkpt lat="43.5662617" lon="12.793745"><ele>425.5</ele><time>2026-05-03T08:24:19.597Z</time></trkpt><trkpt lat="43.5663317" lon="12.7935867"><ele>423.75</ele><time>2026-05-03T08:24:20.602Z</time></trkpt><trkpt lat="43.5663983" lon="12.7934367"><ele>422.0</ele><time>2026-05-03T08:24:21.607Z</time></trkpt><trkpt lat="43.5664583" lon="12.7933"><ele>421.99999999999994</ele><time>2026-05-03T08:24:22.613Z</time></trkpt><trkpt lat="43.5665033" lon="12.793175"><ele>422.0</ele><time>2026-05-03T08:24:23.6Z</time></trkpt><trkpt lat="43.5665317" lon="12.7930583"><ele>422.0</ele><time>2026-05-03T08:24:24.607Z</time></trkpt><trkpt lat="43.5665383" lon="12.7929417"><ele>422.0</ele><time>2026-05-03T08:24:25.612Z</time></trkpt><trkpt lat="43.5665317" lon="12.7928233"><ele>421.99999999999994</ele><time>2026-05-03T08:24:26.611Z</time></trkpt><trkpt lat="43.5665267" lon="12.7927083"><ele>422.0</ele><time>2026-05-03T08:24:27.599Z</time></trkpt><trkpt lat="43.566515" lon="12.7925983"><ele>422.40000000000003</ele><time>2026-05-03T08:24:28.604Z</time></trkpt><trkpt lat="43.5664883" lon="12.7924883"><ele>422.8</ele><time>2026-05-03T08:24:29.603Z</time></trkpt><trkpt lat="43.566435" lon="12.7923817"><ele>423.2</ele><time>2026-05-03T08:24:30.604Z</time></trkpt><trkpt lat="43.566365" lon="12.7922633"><ele>423.6</ele><time>2026-05-03T08:24:31.604Z</time></trkpt><trkpt lat="43.566295" lon="12.79213"><ele>424.0</ele><time>2026-05-03T08:24:32.604Z</time></trkpt><trkpt lat="43.5662267" lon="12.7919933"><ele>423.79999999999995</ele><time>2026-05-03T08:24:33.6Z</time></trkpt><trkpt lat="43.5661617" lon="12.7918683"><ele>423.59999999999997</ele><time>2026-05-03T08:24:34.604Z</time></trkpt><trkpt lat="43.5661067" lon="12.7917467"><ele>423.4</ele><time>2026-05-03T08:24:35.608Z</time></trkpt><trkpt lat="43.56607" lon="12.7916167"><ele>423.2</ele><time>2026-05-03T08:24:36.599Z</time></trkpt><trkpt lat="43.5660567" lon="12.7914733"><ele>423.0</ele><time>2026-05-03T08:24:37.603Z</time></trkpt><trkpt lat="43.56606" lon="12.7913133"><ele>423.0</ele><time>2026-05-03T08:24:38.606Z</time></trkpt><trkpt lat="43.5660733" lon="12.7911467"><ele>423.0</ele><time>2026-05-03T08:24:39.606Z</time></trkpt><trkpt lat="43.5660933" lon="12.7909717"><ele>423.0</ele><time>2026-05-03T08:24:40.599Z</time></trkpt><trkpt lat="43.566115" lon="12.790795"><ele>423.0</ele><time>2026-05-03T08:24:41.601Z</time></trkpt><trkpt lat="43.5661367" lon="12.7906283"><ele>421.75</ele><time>2026-05-03T08:24:42.601Z</time></trkpt><trkpt lat="43.566155" lon="12.7904717"><ele>420.5</ele><time>2026-05-03T08:24:43.606Z</time></trkpt><trkpt lat="43.566175" lon="12.7903167"><ele>419.25</ele><time>2026-05-03T08:24:44.605Z</time></trkpt><trkpt lat="43.5661967" lon="12.7901417"><ele>418.0</ele><time>2026-05-03T08:24:45.599Z</time></trkpt><trkpt lat="43.56622" lon="12.78993"><ele>416.6666666666667</ele><time>2026-05-03T08:24:46.609Z</time></trkpt><trkpt lat="43.5662417" lon="12.7896967"><ele>415.33333333333337</ele><time>2026-05-03T08:24:47.605Z</time></trkpt><trkpt lat="43.56626" lon="12.78947"><ele>414.0</ele><time>2026-05-03T08:24:48.603Z</time></trkpt><trkpt lat="43.566275" lon="12.789255"><ele>414.0</ele><time>2026-05-03T08:24:49.608Z</time></trkpt><trkpt lat="43.5662867" lon="12.7890433"><ele>414.0</ele><time>2026-05-03T08:24:50.596Z</time></trkpt><trkpt lat="43.56629" lon="12.7888267"><ele>414.0</ele><time>2026-05-03T08:24:51.606Z</time></trkpt><trkpt lat="43.566285" lon="12.788605"><ele>415.66666666666663</ele><time>2026-05-03T08:24:52.605Z</time></trkpt><trkpt lat="43.56627" lon="12.7883883"><ele>417.3333333333333</ele><time>2026-05-03T08:24:53.6Z</time></trkpt><trkpt lat="43.5662483" lon="12.7881817"><ele>419.0</ele><time>2026-05-03T08:24:54.605Z</time></trkpt><trkpt lat="43.566225" lon="12.7879817"><ele>419.0</ele><time>2026-05-03T08:24:55.602Z</time></trkpt><trkpt lat="43.5662017" lon="12.7877917"><ele>419.0</ele><time>2026-05-03T08:24:56.597Z</time></trkpt><trkpt lat="43.566175" lon="12.7876167"><ele>419.0</ele><time>2026-05-03T08:24:57.609Z</time></trkpt><trkpt lat="43.566155" lon="12.787455"><ele>419.0</ele><time>2026-05-03T08:24:58.603Z</time></trkpt><trkpt lat="43.5661483" lon="12.7873017"><ele>420.0</ele><time>2026-05-03T08:24:59.606Z</time></trkpt><trkpt lat="43.5661567" lon="12.78715"><ele>421.0</ele><time>2026-05-03T08:25:00.6Z</time></trkpt><trkpt lat="43.5661767" lon="12.7869967"><ele>422.0</ele><time>2026-05-03T08:25:01.6Z</time></trkpt><trkpt lat="43.5662067" lon="12.786845"><ele>423.0</ele><time>2026-05-03T08:25:02.608Z</time></trkpt><trkpt lat="43.5662383" lon="12.7866983"><ele>424.0</ele><time>2026-05-03T08:25:03.602Z</time></trkpt><trkpt lat="43.56627" lon="12.7865533"><ele>427.00000000000006</ele><time>2026-05-03T08:25:04.601Z</time></trkpt><trkpt lat="43.5662983" lon="12.7864167"><ele>430.0</ele><time>2026-05-03T08:25:05.62Z</time></trkpt><trkpt lat="43.5663217" lon="12.786295"><ele>433.0</ele><time>2026-05-03T08:25:06.608Z</time></trkpt><trkpt lat="43.5663333" lon="12.786185"><ele>436.0</ele><time>2026-05-03T08:25:07.6Z</time></trkpt><trkpt lat="43.566335" lon="12.78608"><ele>439.00000000000006</ele><time>2026-05-03T08:25:08.604Z</time></trkpt><trkpt lat="43.5663317" lon="12.78598"><ele>442.0</ele><time>2026-05-03T08:25:09.602Z</time></trkpt><trkpt lat="43.566325" lon="12.7858733"><ele>443.6666666666667</ele><time>2026-05-03T08:25:10.601Z</time></trkpt><trkpt lat="43.5663217" lon="12.78576"><ele>445.33333333333337</ele><time>2026-05-03T08:25:11.601Z</time></trkpt><trkpt lat="43.5663267" lon="12.7856467"><ele>447.0</ele><time>2026-05-03T08:25:12.609Z</time></trkpt><trkpt lat="43.5663467" lon="12.7855367"><ele>448.66666666666663</ele><time>2026-05-03T08:25:13.604Z</time></trkpt><trkpt lat="43.5663817" lon="12.785435"><ele>450.3333333333333</ele><time>2026-05-03T08:25:14.608Z</time></trkpt><trkpt lat="43.5664367" lon="12.7853367"><ele>452.0</ele><time>2026-05-03T08:25:15.602Z</time></trkpt><trkpt lat="43.5665117" lon="12.7852283"><ele>452.5</ele><time>2026-05-03T08:25:16.598Z</time></trkpt><trkpt lat="43.5665967" lon="12.7851033"><ele>453.0</ele><time>2026-05-03T08:25:17.607Z</time></trkpt><trkpt lat="43.5666933" lon="12.784965"><ele>453.5</ele><time>2026-05-03T08:25:18.609Z</time></trkpt><trkpt lat="43.5668" lon="12.7848167"><ele>454.0</ele><time>2026-05-03T08:25:19.613Z</time></trkpt><trkpt lat="43.5669133" lon="12.7846683"><ele>454.0</ele><time>2026-05-03T08:25:20.607Z</time></trkpt><trkpt lat="43.56702" lon="12.7845217"><ele>454.0</ele><time>2026-05-03T08:25:21.606Z</time></trkpt><trkpt lat="43.5671133" lon="12.7843783"><ele>454.0</ele><time>2026-05-03T08:25:22.596Z</time></trkpt><trkpt lat="43.5672117" lon="12.784225"><ele>454.0</ele><time>2026-05-03T08:25:23.605Z</time></trkpt><trkpt lat="43.5673067" lon="12.7840533"><ele>455.0</ele><time>2026-05-03T08:25:24.612Z</time></trkpt><trkpt lat="43.5673967" lon="12.7838917"><ele>456.0</ele><time>2026-05-03T08:25:25.606Z</time></trkpt><trkpt lat="43.5674783" lon="12.7837517"><ele>457.0</ele><time>2026-05-03T08:25:26.608Z</time></trkpt><trkpt lat="43.5675533" lon="12.78363"><ele>458.0</ele><time>2026-05-03T08:25:27.605Z</time></trkpt><trkpt lat="43.56762" lon="12.7835267"><ele>459.66666666666663</ele><time>2026-05-03T08:25:28.615Z</time></trkpt><trkpt lat="43.567675" lon="12.78343"><ele>461.3333333333333</ele><time>2026-05-03T08:25:29.603Z</time></trkpt><trkpt lat="43.5677183" lon="12.7833333"><ele>463.0</ele><time>2026-05-03T08:25:30.604Z</time></trkpt><trkpt lat="43.5677433" lon="12.78323"><ele>464.66666666666663</ele><time>2026-05-03T08:25:31.603Z</time></trkpt><trkpt lat="43.567755" lon="12.78312"><ele>466.3333333333333</ele><time>2026-05-03T08:25:32.604Z</time></trkpt><trkpt lat="43.5677517" lon="12.7830083"><ele>468.0</ele><time>2026-05-03T08:25:33.603Z</time></trkpt><trkpt lat="43.5677383" lon="12.7828933"><ele>468.0</ele><time>2026-05-03T08:25:34.608Z</time></trkpt><trkpt lat="43.5677233" lon="12.7827733"><ele>468.0</ele><time>2026-05-03T08:25:35.609Z</time></trkpt><trkpt lat="43.5677133" lon="12.782645"><ele>468.0</ele><time>2026-05-03T08:25:36.603Z</time></trkpt><trkpt lat="43.5677067" lon="12.7825233"><ele>468.0</ele><time>2026-05-03T08:25:37.602Z</time></trkpt><trkpt lat="43.5677083" lon="12.78241"><ele>468.0</ele><time>2026-05-03T08:25:38.609Z</time></trkpt><trkpt lat="43.56771" lon="12.7823117"><ele>468.0</ele><time>2026-05-03T08:25:39.603Z</time></trkpt><trkpt lat="43.5677033" lon="12.7821517"><ele>468.5</ele><time>2026-05-03T08:25:41.597Z</time></trkpt><trkpt lat="43.5676967" lon="12.782045"><ele>469.0</ele><time>2026-05-03T08:25:43.595Z</time></trkpt><trkpt lat="43.5676883" lon="12.7819567"><ele>469.5</ele><time>2026-05-03T08:25:45.601Z</time></trkpt><trkpt lat="43.56767" lon="12.78182"><ele>470.0</ele><time>2026-05-03T08:25:47.603Z</time></trkpt><trkpt lat="43.5676567" lon="12.7817217"><ele>470.5</ele><time>2026-05-03T08:25:48.597Z</time></trkpt><trkpt lat="43.56764" lon="12.7816133"><ele>471.0</ele><time>2026-05-03T08:25:49.605Z</time></trkpt><trkpt lat="43.5676183" lon="12.7815033"><ele>471.0</ele><time>2026-05-03T08:25:50.598Z</time></trkpt><trkpt lat="43.5675967" lon="12.78139"><ele>471.0</ele><time>2026-05-03T08:25:51.605Z</time></trkpt><trkpt lat="43.5675717" lon="12.7812617"><ele>471.0</ele><time>2026-05-03T08:25:52.603Z</time></trkpt><trkpt lat="43.5675417" lon="12.7811267"><ele>471.0</ele><time>2026-05-03T08:25:53.604Z</time></trkpt><trkpt lat="43.5675067" lon="12.7809867"><ele>471.0</ele><time>2026-05-03T08:25:54.601Z</time></trkpt><trkpt lat="43.5674717" lon="12.7808467"><ele>471.0</ele><time>2026-05-03T08:25:55.595Z</time></trkpt><trkpt lat="43.5674383" lon="12.7807017"><ele>471.0</ele><time>2026-05-03T08:25:56.607Z</time></trkpt><trkpt lat="43.5674067" lon="12.780565"><ele>471.0</ele><time>2026-05-03T08:25:57.606Z</time></trkpt><trkpt lat="43.5673783" lon="12.7804283"><ele>471.0</ele><time>2026-05-03T08:25:58.603Z</time></trkpt><trkpt lat="43.5673467" lon="12.7803"><ele>471.0</ele><time>2026-05-03T08:25:59.601Z</time></trkpt><trkpt lat="43.5673083" lon="12.78018"><ele>472.8</ele><time>2026-05-03T08:26:00.606Z</time></trkpt><trkpt lat="43.5672667" lon="12.7800633"><ele>474.6</ele><time>2026-05-03T08:26:01.6Z</time></trkpt><trkpt lat="43.56723" lon="12.7799517"><ele>476.4</ele><time>2026-05-03T08:26:02.608Z</time></trkpt><trkpt lat="43.5672117" lon="12.7798533"><ele>478.2</ele><time>2026-05-03T08:26:03.597Z</time></trkpt><trkpt lat="43.5672383" lon="12.7797"><ele>480.0</ele><time>2026-05-03T08:26:05.606Z</time></trkpt><trkpt lat="43.5673317" lon="12.7796167"><ele>480.0</ele><time>2026-05-03T08:26:07.612Z</time></trkpt><trkpt lat="43.5674483" lon="12.7795367"><ele>480.0</ele><time>2026-05-03T08:26:09.6Z</time></trkpt><trkpt lat="43.56751" lon="12.7794783"><ele>480.0</ele><time>2026-05-03T08:26:10.604Z</time></trkpt><trkpt lat="43.5675767" lon="12.7794017"><ele>480.0</ele><time>2026-05-03T08:26:11.604Z</time></trkpt><trkpt lat="43.5676417" lon="12.779315"><ele>480.0</ele><time>2026-05-03T08:26:12.598Z</time></trkpt><trkpt lat="43.5676983" lon="12.7792233"><ele>483.0</ele><time>2026-05-03T08:26:13.605Z</time></trkpt><trkpt lat="43.56774" lon="12.77912"><ele>486.0</ele><time>2026-05-03T08:26:14.611Z</time></trkpt><trkpt lat="43.56777" lon="12.7790017"><ele>489.0</ele><time>2026-05-03T08:26:15.605Z</time></trkpt><trkpt lat="43.5677867" lon="12.77888"><ele>492.0</ele><time>2026-05-03T08:26:16.607Z</time></trkpt><trkpt lat="43.5677967" lon="12.77877"><ele>495.0</ele><time>2026-05-03T08:26:17.605Z</time></trkpt><trkpt lat="43.5678083" lon="12.7786767"><ele>498.0</ele><time>2026-05-03T08:26:18.605Z</time></trkpt><trkpt lat="43.5678533" lon="12.77855"><ele>497.0</ele><time>2026-05-03T08:26:20.605Z</time></trkpt><trkpt lat="43.56792" lon="12.7785417"><ele>495.99999999999994</ele><time>2026-05-03T08:26:22.605Z</time></trkpt><trkpt lat="43.5680067" lon="12.7786483"><ele>494.99999999999994</ele><time>2026-05-03T08:26:24.608Z</time></trkpt><trkpt lat="43.56811" lon="12.7787133"><ele>494.0</ele><time>2026-05-03T08:26:26.606Z</time></trkpt><trkpt lat="43.568235" lon="12.7786767"><ele>493.0</ele><time>2026-05-03T08:26:28.609Z</time></trkpt><trkpt lat="43.568315" lon="12.7786383"><ele>493.0</ele><time>2026-05-03T08:26:29.599Z</time></trkpt><trkpt lat="43.5684017" lon="12.7786"><ele>492.99999999999994</ele><time>2026-05-03T08:26:30.605Z</time></trkpt><trkpt lat="43.5684917" lon="12.77855"><ele>492.99999999999994</ele><time>2026-05-03T08:26:31.603Z</time></trkpt><trkpt lat="43.56858" lon="12.7784967"><ele>493.0</ele><time>2026-05-03T08:26:32.604Z</time></trkpt><trkpt lat="43.5686733" lon="12.7784483"><ele>493.0</ele><time>2026-05-03T08:26:33.593Z</time></trkpt><trkpt lat="43.56877" lon="12.7784433"><ele>495.4</ele><time>2026-05-03T08:26:34.61Z</time></trkpt><trkpt lat="43.5688733" lon="12.7784883"><ele>497.79999999999995</ele><time>2026-05-03T08:26:35.602Z</time></trkpt><trkpt lat="43.5689567" lon="12.77856"><ele>500.2</ele><time>2026-05-03T08:26:36.606Z</time></trkpt><trkpt lat="43.569035" lon="12.7786617"><ele>502.6</ele><time>2026-05-03T08:26:37.608Z</time></trkpt><trkpt lat="43.5690883" lon="12.778785"><ele>505.0</ele><time>2026-05-03T08:26:38.609Z</time></trkpt><trkpt lat="43.5691283" lon="12.7789333"><ele>505.0</ele><time>2026-05-03T08:26:39.613Z</time></trkpt><trkpt lat="43.5691633" lon="12.7790767"><ele>505.0</ele><time>2026-05-03T08:26:40.612Z</time></trkpt><trkpt lat="43.5692083" lon="12.77921"><ele>505.0</ele><time>2026-05-03T08:26:41.601Z</time></trkpt><trkpt lat="43.5692733" lon="12.7793367"><ele>505.0</ele><time>2026-05-03T08:26:42.598Z</time></trkpt><trkpt lat="43.5693467" lon="12.7794633"><ele>505.0</ele><time>2026-05-03T08:26:43.605Z</time></trkpt><trkpt lat="43.5694267" lon="12.7795767"><ele>504.4</ele><time>2026-05-03T08:26:44.618Z</time></trkpt><trkpt lat="43.5694967" lon="12.7796767"><ele>503.8</ele><time>2026-05-03T08:26:45.608Z</time></trkpt><trkpt lat="43.569575" lon="12.7797417"><ele>503.20000000000005</ele><time>2026-05-03T08:26:46.598Z</time></trkpt><trkpt lat="43.5696517" lon="12.77978"><ele>502.6</ele><time>2026-05-03T08:26:47.601Z</time></trkpt><trkpt lat="43.5697467" lon="12.77979"><ele>502.0</ele><time>2026-05-03T08:26:48.601Z</time></trkpt><trkpt lat="43.5698383" lon="12.7797717"><ele>502.0</ele><time>2026-05-03T08:26:49.606Z</time></trkpt><trkpt lat="43.5699417" lon="12.7797067"><ele>502.00000000000006</ele><time>2026-05-03T08:26:50.607Z</time></trkpt><trkpt lat="43.5700467" lon="12.7796483"><ele>502.00000000000006</ele><time>2026-05-03T08:26:51.606Z</time></trkpt><trkpt lat="43.57015" lon="12.7796"><ele>502.0</ele><time>2026-05-03T08:26:52.602Z</time></trkpt><trkpt lat="43.5702467" lon="12.7795517"><ele>502.0</ele><time>2026-05-03T08:26:53.604Z</time></trkpt><trkpt lat="43.5703217" lon="12.77948"><ele>497.25</ele><time>2026-05-03T08:26:54.603Z</time></trkpt><trkpt lat="43.5703783" lon="12.7793883"><ele>492.5</ele><time>2026-05-03T08:26:55.603Z</time></trkpt><trkpt lat="43.5704017" lon="12.7792433"><ele>487.75</ele><time>2026-05-03T08:26:56.604Z</time></trkpt><trkpt lat="43.570395" lon="12.77907"><ele>483.0</ele><time>2026-05-03T08:26:57.604Z</time></trkpt><trkpt lat="43.570385" lon="12.77888"><ele>483.0</ele><time>2026-05-03T08:26:58.605Z</time></trkpt><trkpt lat="43.5704" lon="12.7786883"><ele>483.0</ele><time>2026-05-03T08:26:59.599Z</time></trkpt><trkpt lat="43.5704217" lon="12.7785083"><ele>483.0</ele><time>2026-05-03T08:27:00.608Z</time></trkpt><trkpt lat="43.5704433" lon="12.7783333"><ele>483.0</ele><time>2026-05-03T08:27:01.604Z</time></trkpt><trkpt lat="43.57046" lon="12.7781617"><ele>484.25</ele><time>2026-05-03T08:27:02.605Z</time></trkpt><trkpt lat="43.5704783" lon="12.7779867"><ele>485.5</ele><time>2026-05-03T08:27:03.604Z</time></trkpt><trkpt lat="43.570495" lon="12.7778183"><ele>486.75</ele><time>2026-05-03T08:27:04.604Z</time></trkpt><trkpt lat="43.570515" lon="12.7776533"><ele>488.0</ele><time>2026-05-03T08:27:05.605Z</time></trkpt><trkpt lat="43.57054" lon="12.7775"><ele>489.4</ele><time>2026-05-03T08:27:06.603Z</time></trkpt><trkpt lat="43.5705683" lon="12.777365"><ele>490.79999999999995</ele><time>2026-05-03T08:27:07.601Z</time></trkpt><trkpt lat="43.5706" lon="12.7772583"><ele>492.2</ele><time>2026-05-03T08:27:08.605Z</time></trkpt><trkpt lat="43.5706417" lon="12.777175"><ele>493.6</ele><time>2026-05-03T08:27:09.603Z</time></trkpt><trkpt lat="43.5707867" lon="12.7771367"><ele>495.0</ele><time>2026-05-03T08:27:11.606Z</time></trkpt><trkpt lat="43.570885" lon="12.7771467"><ele>495.0</ele><time>2026-05-03T08:27:12.601Z</time></trkpt><trkpt lat="43.57097" lon="12.7771517"><ele>495.0</ele><time>2026-05-03T08:27:13.596Z</time></trkpt><trkpt lat="43.57105" lon="12.777145"><ele>495.0</ele><time>2026-05-03T08:27:14.613Z</time></trkpt><trkpt lat="43.571135" lon="12.777105"><ele>495.0</ele><time>2026-05-03T08:27:15.603Z</time></trkpt><trkpt lat="43.5712117" lon="12.7770333"><ele>495.0</ele><time>2026-05-03T08:27:16.609Z</time></trkpt><trkpt lat="43.5712833" lon="12.7769367"><ele>495.0</ele><time>2026-05-03T08:27:17.605Z</time></trkpt><trkpt lat="43.57135" lon="12.77683"><ele>497.0</ele><time>2026-05-03T08:27:18.604Z</time></trkpt><trkpt lat="43.571415" lon="12.77673"><ele>499.0</ele><time>2026-05-03T08:27:19.61Z</time></trkpt><trkpt lat="43.5714767" lon="12.77663"><ele>501.0</ele><time>2026-05-03T08:27:20.607Z</time></trkpt><trkpt lat="43.5715367" lon="12.7765367"><ele>503.0</ele><time>2026-05-03T08:27:21.612Z</time></trkpt><trkpt lat="43.5715967" lon="12.77646"><ele>505.0</ele><time>2026-05-03T08:27:22.604Z</time></trkpt><trkpt lat="43.57166" lon="12.7764067"><ele>507.0</ele><time>2026-05-03T08:27:23.605Z</time></trkpt><trkpt lat="43.5717283" lon="12.7764017"><ele>507.0</ele><time>2026-05-03T08:27:24.604Z</time></trkpt><trkpt lat="43.5718" lon="12.7764467"><ele>507.00000000000006</ele><time>2026-05-03T08:27:25.6Z</time></trkpt><trkpt lat="43.57189" lon="12.7765017"><ele>507.00000000000006</ele><time>2026-05-03T08:27:26.608Z</time></trkpt><trkpt lat="43.572" lon="12.77657"><ele>507.0</ele><time>2026-05-03T08:27:27.608Z</time></trkpt><trkpt lat="43.57211" lon="12.7766333"><ele>507.0</ele><time>2026-05-03T08:27:28.602Z</time></trkpt><trkpt lat="43.5722167" lon="12.7766867"><ele>506.20000000000005</ele><time>2026-05-03T08:27:29.604Z</time></trkpt><trkpt lat="43.57231" lon="12.7767283"><ele>505.40000000000003</ele><time>2026-05-03T08:27:30.603Z</time></trkpt><trkpt lat="43.5723933" lon="12.7767517"><ele>504.59999999999997</ele><time>2026-05-03T08:27:31.603Z</time></trkpt><trkpt lat="43.5724583" lon="12.7767383"><ele>503.79999999999995</ele><time>2026-05-03T08:27:32.611Z</time></trkpt><trkpt lat="43.5725333" lon="12.7765933"><ele>503.0</ele><time>2026-05-03T08:27:34.6Z</time></trkpt><trkpt lat="43.5725417" lon="12.77648"><ele>502.99999999999994</ele><time>2026-05-03T08:27:35.603Z</time></trkpt><trkpt lat="43.5725383" lon="12.7763533"><ele>503.0</ele><time>2026-05-03T08:27:36.596Z</time></trkpt><trkpt lat="43.572535" lon="12.7762267"><ele>503.0</ele><time>2026-05-03T08:27:37.603Z</time></trkpt><trkpt lat="43.5725267" lon="12.7761083"><ele>503.0</ele><time>2026-05-03T08:27:38.606Z</time></trkpt><trkpt lat="43.5725133" lon="12.7759933"><ele>502.99999999999994</ele><time>2026-05-03T08:27:39.602Z</time></trkpt><trkpt lat="43.57249" lon="12.7758817"><ele>503.0</ele><time>2026-05-03T08:27:40.602Z</time></trkpt><trkpt lat="43.5724567" lon="12.7757683"><ele>502.0</ele><time>2026-05-03T08:27:41.602Z</time></trkpt><trkpt lat="43.5724183" lon="12.775655"><ele>500.99999999999994</ele><time>2026-05-03T08:27:42.599Z</time></trkpt><trkpt lat="43.5723783" lon="12.7755417"><ele>499.99999999999994</ele><time>2026-05-03T08:27:43.603Z</time></trkpt><trkpt lat="43.57234" lon="12.7754267"><ele>499.0</ele><time>2026-05-03T08:27:44.613Z</time></trkpt><trkpt lat="43.572305" lon="12.7753083"><ele>498.0</ele><time>2026-05-03T08:27:45.603Z</time></trkpt><trkpt lat="43.57227" lon="12.77519"><ele>495.59999999999997</ele><time>2026-05-03T08:27:46.602Z</time></trkpt><trkpt lat="43.5722367" lon="12.7750683"><ele>493.19999999999993</ele><time>2026-05-03T08:27:47.599Z</time></trkpt><trkpt lat="43.5722033" lon="12.7749417"><ele>490.8</ele><time>2026-05-03T08:27:48.61Z</time></trkpt><trkpt lat="43.5721733" lon="12.7748117"><ele>488.4</ele><time>2026-05-03T08:27:49.61Z</time></trkpt><trkpt lat="43.5721483" lon="12.77468"><ele>486.0</ele><time>2026-05-03T08:27:50.611Z</time></trkpt><trkpt lat="43.5721167" lon="12.774545"><ele>486.0</ele><time>2026-05-03T08:27:51.603Z</time></trkpt><trkpt lat="43.5720717" lon="12.7743867"><ele>486.0</ele><time>2026-05-03T08:27:52.605Z</time></trkpt><trkpt lat="43.57201" lon="12.7742017"><ele>486.0</ele><time>2026-05-03T08:27:53.602Z</time></trkpt><trkpt lat="43.57195" lon="12.774005"><ele>486.0</ele><time>2026-05-03T08:27:54.61Z</time></trkpt><trkpt lat="43.5719117" lon="12.7738117"><ele>488.25</ele><time>2026-05-03T08:27:55.605Z</time></trkpt><trkpt lat="43.5718917" lon="12.7736333"><ele>490.5</ele><time>2026-05-03T08:27:56.608Z</time></trkpt><trkpt lat="43.571885" lon="12.7734667"><ele>492.75</ele><time>2026-05-03T08:27:57.607Z</time></trkpt><trkpt lat="43.5718967" lon="12.773315"><ele>495.0</ele><time>2026-05-03T08:27:58.603Z</time></trkpt><trkpt lat="43.5719333" lon="12.7731583"><ele>495.0</ele><time>2026-05-03T08:27:59.604Z</time></trkpt><trkpt lat="43.5719833" lon="12.7729933"><ele>495.0</ele><time>2026-05-03T08:28:00.6Z</time></trkpt><trkpt lat="43.5720433" lon="12.772825"><ele>495.0</ele><time>2026-05-03T08:28:01.606Z</time></trkpt><trkpt lat="43.5721033" lon="12.7726733"><ele>495.0</ele><time>2026-05-03T08:28:02.606Z</time></trkpt><trkpt lat="43.57215" lon="12.77254"><ele>493.2</ele><time>2026-05-03T08:28:03.604Z</time></trkpt><trkpt lat="43.5721833" lon="12.7723983"><ele>491.4</ele><time>2026-05-03T08:28:04.604Z</time></trkpt><trkpt lat="43.5722017" lon="12.7722417"><ele>489.6</ele><time>2026-05-03T08:28:05.607Z</time></trkpt><trkpt lat="43.57221" lon="12.7720917"><ele>487.8</ele><time>2026-05-03T08:28:06.607Z</time></trkpt><trkpt lat="43.572215" lon="12.7719567"><ele>486.0</ele><time>2026-05-03T08:28:07.607Z</time></trkpt><trkpt lat="43.57224" lon="12.7718317"><ele>486.0</ele><time>2026-05-03T08:28:08.605Z</time></trkpt><trkpt lat="43.5722867" lon="12.771715"><ele>486.0</ele><time>2026-05-03T08:28:09.606Z</time></trkpt><trkpt lat="43.5723617" lon="12.771615"><ele>486.0</ele><time>2026-05-03T08:28:10.603Z</time></trkpt><trkpt lat="43.5724733" lon="12.7715317"><ele>486.0</ele><time>2026-05-03T08:28:11.607Z</time></trkpt><trkpt lat="43.5726117" lon="12.7714567"><ele>486.0</ele><time>2026-05-03T08:28:12.601Z</time></trkpt><trkpt lat="43.5727633" lon="12.7713733"><ele>486.0</ele><time>2026-05-03T08:28:13.609Z</time></trkpt><trkpt lat="43.5729183" lon="12.7712867"><ele>486.0</ele><time>2026-05-03T08:28:14.602Z</time></trkpt><trkpt lat="43.573065" lon="12.7712033"><ele>483.0</ele><time>2026-05-03T08:28:15.602Z</time></trkpt><trkpt lat="43.5732083" lon="12.7711317"><ele>480.0</ele><time>2026-05-03T08:28:16.603Z</time></trkpt><trkpt lat="43.573365" lon="12.7710867"><ele>477.0</ele><time>2026-05-03T08:28:17.604Z</time></trkpt><trkpt lat="43.57353" lon="12.771065"><ele>474.66666666666663</ele><time>2026-05-03T08:28:18.609Z</time></trkpt><trkpt lat="43.5736967" lon="12.7710533"><ele>472.3333333333333</ele><time>2026-05-03T08:28:19.603Z</time></trkpt><trkpt lat="43.5738517" lon="12.7710317"><ele>470.0</ele><time>2026-05-03T08:28:20.605Z</time></trkpt><trkpt lat="43.5739983" lon="12.7709933"><ele>474.0</ele><time>2026-05-03T08:28:21.604Z</time></trkpt><trkpt lat="43.5741283" lon="12.7709333"><ele>478.0</ele><time>2026-05-03T08:28:22.602Z</time></trkpt><trkpt lat="43.5742517" lon="12.77084"><ele>482.0</ele><time>2026-05-03T08:28:23.603Z</time></trkpt><trkpt lat="43.5743717" lon="12.7707283"><ele>486.0</ele><time>2026-05-03T08:28:24.607Z</time></trkpt><trkpt lat="43.5744833" lon="12.770615"><ele>486.5</ele><time>2026-05-03T08:28:25.607Z</time></trkpt><trkpt lat="43.574585" lon="12.7704983"><ele>487.0</ele><time>2026-05-03T08:28:26.614Z</time></trkpt><trkpt lat="43.5746783" lon="12.77038"><ele>487.5</ele><time>2026-05-03T08:28:27.609Z</time></trkpt><trkpt lat="43.5747667" lon="12.7702683"><ele>488.0</ele><time>2026-05-03T08:28:28.607Z</time></trkpt><trkpt lat="43.574865" lon="12.7701733"><ele>488.0</ele><time>2026-05-03T08:28:29.613Z</time></trkpt><trkpt lat="43.574975" lon="12.7701083"><ele>488.0</ele><time>2026-05-03T08:28:30.606Z</time></trkpt><trkpt lat="43.5750967" lon="12.7700783"><ele>488.0</ele><time>2026-05-03T08:28:31.606Z</time></trkpt><trkpt lat="43.5752183" lon="12.770085"><ele>488.0</ele><time>2026-05-03T08:28:32.613Z</time></trkpt><trkpt lat="43.5753417" lon="12.7701283"><ele>483.25</ele><time>2026-05-03T08:28:33.604Z</time></trkpt><trkpt lat="43.5754633" lon="12.7701983"><ele>478.5</ele><time>2026-05-03T08:28:34.638Z</time></trkpt><trkpt lat="43.57558" lon="12.7702783"><ele>473.75</ele><time>2026-05-03T08:28:35.605Z</time></trkpt><trkpt lat="43.5756883" lon="12.7703683"><ele>469.0</ele><time>2026-05-03T08:28:36.603Z</time></trkpt><trkpt lat="43.575785" lon="12.7704683"><ele>469.00000000000006</ele><time>2026-05-03T08:28:37.596Z</time></trkpt><trkpt lat="43.575875" lon="12.7705533"><ele>469.0</ele><time>2026-05-03T08:28:38.606Z</time></trkpt><trkpt lat="43.5759583" lon="12.7706233"><ele>469.0</ele><time>2026-05-03T08:28:39.599Z</time></trkpt><trkpt lat="43.576035" lon="12.77067"><ele>469.0</ele><time>2026-05-03T08:28:40.602Z</time></trkpt><trkpt lat="43.5761133" lon="12.7706867"><ele>469.00000000000006</ele><time>2026-05-03T08:28:41.608Z</time></trkpt><trkpt lat="43.57619" lon="12.7706567"><ele>469.0</ele><time>2026-05-03T08:28:42.604Z</time></trkpt><trkpt lat="43.5762533" lon="12.7705883"><ele>468.33333333333337</ele><time>2026-05-03T08:28:43.611Z</time></trkpt><trkpt lat="43.5763117" lon="12.770505"><ele>467.6666666666667</ele><time>2026-05-03T08:28:44.603Z</time></trkpt><trkpt lat="43.576375" lon="12.77044"><ele>467.0</ele><time>2026-05-03T08:28:45.603Z</time></trkpt><trkpt lat="43.576445" lon="12.7704133"><ele>466.33333333333337</ele><time>2026-05-03T08:28:46.604Z</time></trkpt><trkpt lat="43.5765183" lon="12.77042"><ele>465.6666666666667</ele><time>2026-05-03T08:28:47.603Z</time></trkpt><trkpt lat="43.5765933" lon="12.7704517"><ele>465.0</ele><time>2026-05-03T08:28:48.611Z</time></trkpt><trkpt lat="43.5766683" lon="12.7705083"><ele>465.0</ele><time>2026-05-03T08:28:49.603Z</time></trkpt><trkpt lat="43.5767567" lon="12.7705667"><ele>465.0</ele><time>2026-05-03T08:28:50.608Z</time></trkpt><trkpt lat="43.5768517" lon="12.7706283"><ele>465.0</ele><time>2026-05-03T08:28:51.605Z</time></trkpt><trkpt lat="43.576945" lon="12.7706817"><ele>465.0</ele><time>2026-05-03T08:28:52.607Z</time></trkpt><trkpt lat="43.57704" lon="12.770735"><ele>465.0</ele><time>2026-05-03T08:28:53.608Z</time></trkpt><trkpt lat="43.57714" lon="12.7707867"><ele>463.2</ele><time>2026-05-03T08:28:54.602Z</time></trkpt><trkpt lat="43.5772417" lon="12.7708317"><ele>461.4</ele><time>2026-05-03T08:28:55.609Z</time></trkpt><trkpt lat="43.5773433" lon="12.7708717"><ele>459.6</ele><time>2026-05-03T08:28:56.612Z</time></trkpt><trkpt lat="43.577445" lon="12.7709133"><ele>457.8</ele><time>2026-05-03T08:28:57.607Z</time></trkpt><trkpt lat="43.5775483" lon="12.77096"><ele>456.0</ele><time>2026-05-03T08:28:58.604Z</time></trkpt><trkpt lat="43.5776533" lon="12.7710033"><ele>452.25</ele><time>2026-05-03T08:28:59.607Z</time></trkpt><trkpt lat="43.57776" lon="12.77105"><ele>448.5</ele><time>2026-05-03T08:29:00.608Z</time></trkpt><trkpt lat="43.5778683" lon="12.7710967"><ele>444.75</ele><time>2026-05-03T08:29:01.603Z</time></trkpt><trkpt lat="43.5779767" lon="12.77115"><ele>441.0</ele><time>2026-05-03T08:29:02.609Z</time></trkpt><trkpt lat="43.578085" lon="12.7712033"><ele>439.25</ele><time>2026-05-03T08:29:03.608Z</time></trkpt><trkpt lat="43.57819" lon="12.7712683"><ele>437.5</ele><time>2026-05-03T08:29:04.593Z</time></trkpt><trkpt lat="43.57829" lon="12.7713417"><ele>435.75</ele><time>2026-05-03T08:29:05.597Z</time></trkpt><trkpt lat="43.578385" lon="12.771425"><ele>434.0</ele><time>2026-05-03T08:29:06.603Z</time></trkpt><trkpt lat="43.5784733" lon="12.771525"><ele>434.0</ele><time>2026-05-03T08:29:07.604Z</time></trkpt><trkpt lat="43.578555" lon="12.7716467"><ele>434.0</ele><time>2026-05-03T08:29:08.603Z</time></trkpt><trkpt lat="43.57863" lon="12.7717817"><ele>434.0</ele><time>2026-05-03T08:29:09.601Z</time></trkpt><trkpt lat="43.5787067" lon="12.7719183"><ele>434.0</ele><time>2026-05-03T08:29:10.611Z</time></trkpt><trkpt lat="43.5787933" lon="12.7720517"><ele>431.0</ele><time>2026-05-03T08:29:11.603Z</time></trkpt><trkpt lat="43.578885" lon="12.772185"><ele>428.0</ele><time>2026-05-03T08:29:12.604Z</time></trkpt><trkpt lat="43.5789733" lon="12.7723317"><ele>425.0</ele><time>2026-05-03T08:29:13.603Z</time></trkpt><trkpt lat="43.5790533" lon="12.7724867"><ele>422.0</ele><time>2026-05-03T08:29:14.606Z</time></trkpt><trkpt lat="43.57912" lon="12.7726383"><ele>422.20000000000005</ele><time>2026-05-03T08:29:15.605Z</time></trkpt><trkpt lat="43.57918" lon="12.7727833"><ele>422.4</ele><time>2026-05-03T08:29:16.603Z</time></trkpt><trkpt lat="43.5792383" lon="12.7729183"><ele>422.6</ele><time>2026-05-03T08:29:17.613Z</time></trkpt><trkpt lat="43.57929" lon="12.7730417"><ele>422.79999999999995</ele><time>2026-05-03T08:29:18.607Z</time></trkpt><trkpt lat="43.579345" lon="12.773145"><ele>423.0</ele><time>2026-05-03T08:29:19.607Z</time></trkpt><trkpt lat="43.5794133" lon="12.773225"><ele>423.0</ele><time>2026-05-03T08:29:20.609Z</time></trkpt><trkpt lat="43.5794933" lon="12.7732867"><ele>423.0</ele><time>2026-05-03T08:29:21.605Z</time></trkpt><trkpt lat="43.579575" lon="12.7733383"><ele>423.0</ele><time>2026-05-03T08:29:22.608Z</time></trkpt><trkpt lat="43.579655" lon="12.7733883"><ele>423.0</ele><time>2026-05-03T08:29:23.605Z</time></trkpt><trkpt lat="43.5797317" lon="12.77344"><ele>423.0</ele><time>2026-05-03T08:29:24.607Z</time></trkpt><trkpt lat="43.5798017" lon="12.7735017"><ele>423.0</ele><time>2026-05-03T08:29:25.607Z</time></trkpt><trkpt lat="43.579865" lon="12.7735583"><ele>420.6666666666667</ele><time>2026-05-03T08:29:26.6Z</time></trkpt><trkpt lat="43.5799267" lon="12.773615"><ele>418.33333333333337</ele><time>2026-05-03T08:29:27.605Z</time></trkpt><trkpt lat="43.5799867" lon="12.773675"><ele>416.0</ele><time>2026-05-03T08:29:28.605Z</time></trkpt><trkpt lat="43.5800517" lon="12.77373"><ele>413.6666666666667</ele><time>2026-05-03T08:29:29.609Z</time></trkpt><trkpt lat="43.58012" lon="12.7737883"><ele>411.33333333333337</ele><time>2026-05-03T08:29:30.601Z</time></trkpt><trkpt lat="43.580195" lon="12.7738483"><ele>409.0</ele><time>2026-05-03T08:29:31.601Z</time></trkpt><trkpt lat="43.5802733" lon="12.7739067"><ele>409.0</ele><time>2026-05-03T08:29:32.609Z</time></trkpt><trkpt lat="43.5803517" lon="12.773965"><ele>409.0</ele><time>2026-05-03T08:29:33.602Z</time></trkpt><trkpt lat="43.58043" lon="12.7740267"><ele>409.0</ele><time>2026-05-03T08:29:34.611Z</time></trkpt><trkpt lat="43.5805133" lon="12.7740933"><ele>409.0</ele><time>2026-05-03T08:29:35.608Z</time></trkpt><trkpt lat="43.5805983" lon="12.7741583"><ele>409.0</ele><time>2026-05-03T08:29:36.596Z</time></trkpt><trkpt lat="43.5806867" lon="12.7742267"><ele>409.00000000000006</ele><time>2026-05-03T08:29:37.603Z</time></trkpt><trkpt lat="43.5807733" lon="12.7742867"><ele>409.0</ele><time>2026-05-03T08:29:38.604Z</time></trkpt><trkpt lat="43.5808633" lon="12.7743283"><ele>409.0</ele><time>2026-05-03T08:29:39.606Z</time></trkpt><trkpt lat="43.5809433" lon="12.7743733"><ele>409.0</ele><time>2026-05-03T08:29:40.606Z</time></trkpt><trkpt lat="43.5810167" lon="12.7744217"><ele>409.00000000000006</ele><time>2026-05-03T08:29:41.604Z</time></trkpt><trkpt lat="43.5810783" lon="12.7744983"><ele>409.0</ele><time>2026-05-03T08:29:42.604Z</time></trkpt><trkpt lat="43.58112" lon="12.7746067"><ele>407.4</ele><time>2026-05-03T08:29:43.605Z</time></trkpt><trkpt lat="43.5811517" lon="12.77474"><ele>405.79999999999995</ele><time>2026-05-03T08:29:44.61Z</time></trkpt><trkpt lat="43.5811867" lon="12.7748683"><ele>404.20000000000005</ele><time>2026-05-03T08:29:45.606Z</time></trkpt><trkpt lat="43.5812333" lon="12.7749917"><ele>402.6</ele><time>2026-05-03T08:29:46.605Z</time></trkpt><trkpt lat="43.5812967" lon="12.775105"><ele>401.0</ele><time>2026-05-03T08:29:47.607Z</time></trkpt><trkpt lat="43.5813667" lon="12.7752067"><ele>398.4</ele><time>2026-05-03T08:29:48.608Z</time></trkpt><trkpt lat="43.5814367" lon="12.7753117"><ele>395.8</ele><time>2026-05-03T08:29:49.606Z</time></trkpt><trkpt lat="43.581515" lon="12.7754217"><ele>393.2</ele><time>2026-05-03T08:29:50.607Z</time></trkpt><trkpt lat="43.5815967" lon="12.7755283"><ele>390.59999999999997</ele><time>2026-05-03T08:29:51.604Z</time></trkpt><trkpt lat="43.581685" lon="12.7756367"><ele>388.0</ele><time>2026-05-03T08:29:52.603Z</time></trkpt><trkpt lat="43.5817717" lon="12.7757483"><ele>388.0</ele><time>2026-05-03T08:29:53.61Z</time></trkpt><trkpt lat="43.5818633" lon="12.7758633"><ele>388.0</ele><time>2026-05-03T08:29:54.603Z</time></trkpt><trkpt lat="43.5819467" lon="12.7759833"><ele>388.0</ele><time>2026-05-03T08:29:55.606Z</time></trkpt><trkpt lat="43.582025" lon="12.7761083"><ele>388.0</ele><time>2026-05-03T08:29:56.614Z</time></trkpt><trkpt lat="43.5821017" lon="12.776225"><ele>385.79999999999995</ele><time>2026-05-03T08:29:57.605Z</time></trkpt><trkpt lat="43.58218" lon="12.776325"><ele>383.6</ele><time>2026-05-03T08:29:58.611Z</time></trkpt><trkpt lat="43.5822617" lon="12.776405"><ele>381.4</ele><time>2026-05-03T08:29:59.606Z</time></trkpt><trkpt lat="43.5823467" lon="12.7764667"><ele>379.20000000000005</ele><time>2026-05-03T08:30:00.604Z</time></trkpt><trkpt lat="43.58244" lon="12.7765117"><ele>377.0</ele><time>2026-05-03T08:30:01.605Z</time></trkpt><trkpt lat="43.5825383" lon="12.7765383"><ele>377.0</ele><time>2026-05-03T08:30:02.61Z</time></trkpt><trkpt lat="43.58264" lon="12.776545"><ele>377.0</ele><time>2026-05-03T08:30:03.602Z</time></trkpt><trkpt lat="43.58274" lon="12.77653"><ele>377.0</ele><time>2026-05-03T08:30:04.611Z</time></trkpt><trkpt lat="43.5828383" lon="12.7765133"><ele>377.0</ele><time>2026-05-03T08:30:05.603Z</time></trkpt><trkpt lat="43.5829367" lon="12.7765017"><ele>377.0</ele><time>2026-05-03T08:30:06.599Z</time></trkpt><trkpt lat="43.5830283" lon="12.776505"><ele>377.0</ele><time>2026-05-03T08:30:07.596Z</time></trkpt><trkpt lat="43.5831133" lon="12.776535"><ele>377.0</ele><time>2026-05-03T08:30:08.603Z</time></trkpt><trkpt lat="43.5831983" lon="12.7765933"><ele>377.0</ele><time>2026-05-03T08:30:09.603Z</time></trkpt><trkpt lat="43.58329" lon="12.77666"><ele>377.0</ele><time>2026-05-03T08:30:10.599Z</time></trkpt><trkpt lat="43.58339" lon="12.776715"><ele>377.0</ele><time>2026-05-03T08:30:11.609Z</time></trkpt><trkpt lat="43.58349" lon="12.7767383"><ele>377.0</ele><time>2026-05-03T08:30:12.596Z</time></trkpt><trkpt lat="43.58359" lon="12.776755"><ele>377.0</ele><time>2026-05-03T08:30:13.603Z</time></trkpt><trkpt lat="43.5836883" lon="12.7767817"><ele>377.0</ele><time>2026-05-03T08:30:14.609Z</time></trkpt><trkpt lat="43.5837867" lon="12.7768283"><ele>377.0</ele><time>2026-05-03T08:30:15.603Z</time></trkpt><trkpt lat="43.58388" lon="12.7769"><ele>377.0</ele><time>2026-05-03T08:30:16.596Z</time></trkpt><trkpt lat="43.5839667" lon="12.7769833"><ele>375.0</ele><time>2026-05-03T08:30:17.603Z</time></trkpt><trkpt lat="43.5840483" lon="12.7770917"><ele>373.0</ele><time>2026-05-03T08:30:18.603Z</time></trkpt><trkpt lat="43.5841167" lon="12.7772217"><ele>371.0</ele><time>2026-05-03T08:30:19.6Z</time></trkpt><trkpt lat="43.58418" lon="12.777355"><ele>369.0</ele><time>2026-05-03T08:30:20.606Z</time></trkpt><trkpt lat="43.584235" lon="12.7774933"><ele>369.0</ele><time>2026-05-03T08:30:21.61Z</time></trkpt><trkpt lat="43.5842883" lon="12.7776317"><ele>369.0</ele><time>2026-05-03T08:30:22.603Z</time></trkpt><trkpt lat="43.58434" lon="12.7777733"><ele>369.0</ele><time>2026-05-03T08:30:23.606Z</time></trkpt><trkpt lat="43.5843883" lon="12.7779117"><ele>369.0</ele><time>2026-05-03T08:30:24.605Z</time></trkpt><trkpt lat="43.5844267" lon="12.77805"><ele>369.0</ele><time>2026-05-03T08:30:25.606Z</time></trkpt><trkpt lat="43.584445" lon="12.7781733"><ele>367.8333333333333</ele><time>2026-05-03T08:30:26.607Z</time></trkpt><trkpt lat="43.584435" lon="12.7782933"><ele>366.6666666666667</ele><time>2026-05-03T08:30:27.614Z</time></trkpt><trkpt lat="43.58441" lon="12.7784"><ele>365.5</ele><time>2026-05-03T08:30:28.608Z</time></trkpt><trkpt lat="43.5843883" lon="12.7784983"><ele>364.33333333333337</ele><time>2026-05-03T08:30:29.608Z</time></trkpt><trkpt lat="43.5843833" lon="12.7785983"><ele>363.1666666666667</ele><time>2026-05-03T08:30:30.609Z</time></trkpt><trkpt lat="43.584405" lon="12.778695"><ele>362.0</ele><time>2026-05-03T08:30:31.604Z</time></trkpt><trkpt lat="43.58446" lon="12.7787733"><ele>358.1666666666667</ele><time>2026-05-03T08:30:32.613Z</time></trkpt><trkpt lat="43.584535" lon="12.7788133"><ele>354.33333333333337</ele><time>2026-05-03T08:30:33.604Z</time></trkpt><trkpt lat="43.584625" lon="12.77882"><ele>350.5</ele><time>2026-05-03T08:30:34.606Z</time></trkpt><trkpt lat="43.58471" lon="12.7788067"><ele>346.6666666666667</ele><time>2026-05-03T08:30:35.6Z</time></trkpt><trkpt lat="43.584785" lon="12.7787733"><ele>342.8333333333333</ele><time>2026-05-03T08:30:36.604Z</time></trkpt><trkpt lat="43.584845" lon="12.7787233"><ele>339.0</ele><time>2026-05-03T08:30:37.601Z</time></trkpt><trkpt lat="43.58489" lon="12.77865"><ele>339.0</ele><time>2026-05-03T08:30:38.607Z</time></trkpt><trkpt lat="43.584925" lon="12.7785617"><ele>339.0</ele><time>2026-05-03T08:30:39.602Z</time></trkpt><trkpt lat="43.5849517" lon="12.7784717"><ele>339.0</ele><time>2026-05-03T08:30:40.604Z</time></trkpt><trkpt lat="43.584965" lon="12.77837"><ele>339.0</ele><time>2026-05-03T08:30:41.605Z</time></trkpt><trkpt lat="43.5849733" lon="12.778265"><ele>339.0</ele><time>2026-05-03T08:30:42.599Z</time></trkpt><trkpt lat="43.5849667" lon="12.7781567"><ele>339.0</ele><time>2026-05-03T08:30:43.608Z</time></trkpt><trkpt lat="43.58496" lon="12.7780417"><ele>339.79999999999995</ele><time>2026-05-03T08:30:44.61Z</time></trkpt><trkpt lat="43.58496" lon="12.777915"><ele>340.59999999999997</ele><time>2026-05-03T08:30:45.611Z</time></trkpt><trkpt lat="43.5849667" lon="12.7777783"><ele>341.4</ele><time>2026-05-03T08:30:46.607Z</time></trkpt><trkpt lat="43.5849767" lon="12.77764"><ele>342.2</ele><time>2026-05-03T08:30:47.607Z</time></trkpt><trkpt lat="43.5849867" lon="12.7775"><ele>343.0</ele><time>2026-05-03T08:30:48.606Z</time></trkpt><trkpt lat="43.5849867" lon="12.7773567"><ele>343.0</ele><time>2026-05-03T08:30:49.606Z</time></trkpt><trkpt lat="43.58499" lon="12.7772067"><ele>343.0</ele><time>2026-05-03T08:30:50.596Z</time></trkpt><trkpt lat="43.5849983" lon="12.77705"><ele>343.0</ele><time>2026-05-03T08:30:51.603Z</time></trkpt><trkpt lat="43.5850083" lon="12.776895"><ele>343.0</ele><time>2026-05-03T08:30:52.603Z</time></trkpt><trkpt lat="43.585015" lon="12.7767417"><ele>343.0</ele><time>2026-05-03T08:30:53.607Z</time></trkpt><trkpt lat="43.5850333" lon="12.7765983"><ele>342.16666666666663</ele><time>2026-05-03T08:30:54.598Z</time></trkpt><trkpt lat="43.5850567" lon="12.77646"><ele>341.3333333333333</ele><time>2026-05-03T08:30:55.601Z</time></trkpt><trkpt lat="43.5850983" lon="12.7763383"><ele>340.5</ele><time>2026-05-03T08:30:56.602Z</time></trkpt><trkpt lat="43.585155" lon="12.7762533"><ele>339.6666666666667</ele><time>2026-05-03T08:30:57.599Z</time></trkpt><trkpt lat="43.5852217" lon="12.776195"><ele>338.83333333333337</ele><time>2026-05-03T08:30:58.603Z</time></trkpt><trkpt lat="43.5852883" lon="12.776155"><ele>338.0</ele><time>2026-05-03T08:30:59.604Z</time></trkpt><trkpt lat="43.5854033" lon="12.7761083"><ele>337.59999999999997</ele><time>2026-05-03T08:31:01.602Z</time></trkpt><trkpt lat="43.5855133" lon="12.7761183"><ele>337.2</ele><time>2026-05-03T08:31:03.598Z</time></trkpt><trkpt lat="43.5856117" lon="12.776095"><ele>336.8</ele><time>2026-05-03T08:31:05.601Z</time></trkpt><trkpt lat="43.5856933" lon="12.776"><ele>336.4</ele><time>2026-05-03T08:31:07.602Z</time></trkpt><trkpt lat="43.5857433" lon="12.7759333"><ele>336.0</ele><time>2026-05-03T08:31:08.623Z</time></trkpt><trkpt lat="43.5857983" lon="12.7758583"><ele>336.0</ele><time>2026-05-03T08:31:09.604Z</time></trkpt><trkpt lat="43.5858583" lon="12.7757767"><ele>336.0</ele><time>2026-05-03T08:31:10.598Z</time></trkpt><trkpt lat="43.58592" lon="12.7756867"><ele>336.0</ele><time>2026-05-03T08:31:11.599Z</time></trkpt><trkpt lat="43.5859883" lon="12.7755917"><ele>336.0</ele><time>2026-05-03T08:31:12.601Z</time></trkpt><trkpt lat="43.5860583" lon="12.7754933"><ele>336.0</ele><time>2026-05-03T08:31:13.606Z</time></trkpt><trkpt lat="43.5861333" lon="12.7753967"><ele>335.0</ele><time>2026-05-03T08:31:14.601Z</time></trkpt><trkpt lat="43.5862183" lon="12.7753067"><ele>334.0</ele><time>2026-05-03T08:31:15.607Z</time></trkpt><trkpt lat="43.5863" lon="12.775225"><ele>333.0</ele><time>2026-05-03T08:31:16.599Z</time></trkpt><trkpt lat="43.58638" lon="12.775145"><ele>332.0</ele><time>2026-05-03T08:31:17.603Z</time></trkpt><trkpt lat="43.58645" lon="12.7750733"><ele>331.0</ele><time>2026-05-03T08:31:18.598Z</time></trkpt><trkpt lat="43.586515" lon="12.7749967"><ele>331.0</ele><time>2026-05-03T08:31:19.598Z</time></trkpt><trkpt lat="43.5865667" lon="12.7749117"><ele>331.0</ele><time>2026-05-03T08:31:20.601Z</time></trkpt><trkpt lat="43.58661" lon="12.7748033"><ele>331.0</ele><time>2026-05-03T08:31:21.595Z</time></trkpt><trkpt lat="43.5866467" lon="12.7746783"><ele>331.0</ele><time>2026-05-03T08:31:22.6Z</time></trkpt><trkpt lat="43.5866733" lon="12.77455"><ele>331.0</ele><time>2026-05-03T08:31:23.599Z</time></trkpt><trkpt lat="43.586695" lon="12.7744117"><ele>332.25</ele><time>2026-05-03T08:31:24.599Z</time></trkpt><trkpt lat="43.5867183" lon="12.774265"><ele>333.5</ele><time>2026-05-03T08:31:25.605Z</time></trkpt><trkpt lat="43.5867417" lon="12.7741133"><ele>334.75</ele><time>2026-05-03T08:31:26.6Z</time></trkpt><trkpt lat="43.5867617" lon="12.773955"><ele>336.0</ele><time>2026-05-03T08:31:27.603Z</time></trkpt><trkpt lat="43.58678" lon="12.773795"><ele>336.0</ele><time>2026-05-03T08:31:28.601Z</time></trkpt><trkpt lat="43.586795" lon="12.7736317"><ele>336.0</ele><time>2026-05-03T08:31:29.602Z</time></trkpt><trkpt lat="43.5868133" lon="12.7734733"><ele>336.0</ele><time>2026-05-03T08:31:30.609Z</time></trkpt><trkpt lat="43.5868333" lon="12.7733317"><ele>336.0</ele><time>2026-05-03T08:31:31.606Z</time></trkpt><trkpt lat="43.5868467" lon="12.7732083"><ele>336.0</ele><time>2026-05-03T08:31:32.609Z</time></trkpt><trkpt lat="43.586855" lon="12.7731017"><ele>336.5</ele><time>2026-05-03T08:31:33.602Z</time></trkpt><trkpt lat="43.5868617" lon="12.7729983"><ele>337.0</ele><time>2026-05-03T08:31:34.605Z</time></trkpt><trkpt lat="43.58687" lon="12.7729"><ele>337.5</ele><time>2026-05-03T08:31:35.604Z</time></trkpt><trkpt lat="43.58688" lon="12.772805"><ele>338.0</ele><time>2026-05-03T08:31:36.609Z</time></trkpt><trkpt lat="43.5868867" lon="12.7727033"><ele>338.5</ele><time>2026-05-03T08:31:37.607Z</time></trkpt><trkpt lat="43.5868917" lon="12.7725867"><ele>339.0</ele><time>2026-05-03T08:31:38.607Z</time></trkpt><trkpt lat="43.586905" lon="12.77245"><ele>341.5</ele><time>2026-05-03T08:31:39.602Z</time></trkpt><trkpt lat="43.5869233" lon="12.7722867"><ele>344.0</ele><time>2026-05-03T08:31:40.604Z</time></trkpt><trkpt lat="43.58695" lon="12.7721017"><ele>346.5</ele><time>2026-05-03T08:31:41.602Z</time></trkpt><trkpt lat="43.5869783" lon="12.7719167"><ele>349.0</ele><time>2026-05-03T08:31:42.604Z</time></trkpt><trkpt lat="43.587005" lon="12.7717333"><ele>345.0</ele><time>2026-05-03T08:31:43.605Z</time></trkpt><trkpt lat="43.5870217" lon="12.7715517"><ele>341.0</ele><time>2026-05-03T08:31:44.604Z</time></trkpt><trkpt lat="43.58704" lon="12.7713867"><ele>337.0</ele><time>2026-05-03T08:31:45.613Z</time></trkpt><trkpt lat="43.58706" lon="12.7712417"><ele>333.0</ele><time>2026-05-03T08:31:46.606Z</time></trkpt><trkpt lat="43.58707" lon="12.771085"><ele>334.0</ele><time>2026-05-03T08:31:47.605Z</time></trkpt><trkpt lat="43.5870733" lon="12.7709017"><ele>335.0</ele><time>2026-05-03T08:31:48.603Z</time></trkpt><trkpt lat="43.587065" lon="12.7707017"><ele>336.0</ele><time>2026-05-03T08:31:49.612Z</time></trkpt><trkpt lat="43.5870583" lon="12.7705083"><ele>337.0</ele><time>2026-05-03T08:31:50.599Z</time></trkpt><trkpt lat="43.5870533" lon="12.7703333"><ele>337.5</ele><time>2026-05-03T08:31:51.604Z</time></trkpt><trkpt lat="43.5870467" lon="12.77016"><ele>338.0</ele><time>2026-05-03T08:31:52.615Z</time></trkpt><trkpt lat="43.58704" lon="12.7699817"><ele>338.5</ele><time>2026-05-03T08:31:53.61Z</time></trkpt><trkpt lat="43.5870333" lon="12.7698083"><ele>339.0</ele><time>2026-05-03T08:31:54.607Z</time></trkpt><trkpt lat="43.5870233" lon="12.7696367"><ele>339.0</ele><time>2026-05-03T08:31:55.605Z</time></trkpt><trkpt lat="43.587015" lon="12.7694617"><ele>339.0</ele><time>2026-05-03T08:31:56.603Z</time></trkpt><trkpt lat="43.5869933" lon="12.769315"><ele>339.0</ele><time>2026-05-03T08:31:57.608Z</time></trkpt><trkpt lat="43.5869917" lon="12.7691517"><ele>339.0</ele><time>2026-05-03T08:31:58.607Z</time></trkpt><trkpt lat="43.58699" lon="12.769005"><ele>341.79999999999995</ele><time>2026-05-03T08:31:59.596Z</time></trkpt><trkpt lat="43.5869833" lon="12.768865"><ele>344.59999999999997</ele><time>2026-05-03T08:32:00.604Z</time></trkpt><trkpt lat="43.5869767" lon="12.7687283"><ele>347.4</ele><time>2026-05-03T08:32:01.611Z</time></trkpt><trkpt lat="43.58697" lon="12.7685967"><ele>350.2</ele><time>2026-05-03T08:32:02.611Z</time></trkpt><trkpt lat="43.5869633" lon="12.76848"><ele>353.0</ele><time>2026-05-03T08:32:03.61Z</time></trkpt><trkpt lat="43.5869583" lon="12.76837"><ele>353.0</ele><time>2026-05-03T08:32:04.609Z</time></trkpt><trkpt lat="43.5869567" lon="12.768255"><ele>353.0</ele><time>2026-05-03T08:32:05.613Z</time></trkpt><trkpt lat="43.5869517" lon="12.768135"><ele>353.0</ele><time>2026-05-03T08:32:06.606Z</time></trkpt><trkpt lat="43.5869467" lon="12.7680133"><ele>353.0</ele><time>2026-05-03T08:32:07.605Z</time></trkpt><trkpt lat="43.5869433" lon="12.767895"><ele>353.0</ele><time>2026-05-03T08:32:08.61Z</time></trkpt><trkpt lat="43.5869383" lon="12.7677817"><ele>353.0</ele><time>2026-05-03T08:32:09.606Z</time></trkpt><trkpt lat="43.5869317" lon="12.767665"><ele>352.79999999999995</ele><time>2026-05-03T08:32:10.611Z</time></trkpt><trkpt lat="43.5869233" lon="12.767545"><ele>352.6</ele><time>2026-05-03T08:32:11.605Z</time></trkpt><trkpt lat="43.5869083" lon="12.7674267"><ele>352.4</ele><time>2026-05-03T08:32:12.609Z</time></trkpt><trkpt lat="43.58689" lon="12.7673017"><ele>352.20000000000005</ele><time>2026-05-03T08:32:13.605Z</time></trkpt><trkpt lat="43.5868717" lon="12.76717"><ele>352.0</ele><time>2026-05-03T08:32:14.598Z</time></trkpt><trkpt lat="43.5868467" lon="12.76704"><ele>352.0</ele><time>2026-05-03T08:32:15.608Z</time></trkpt><trkpt lat="43.58681" lon="12.7669217"><ele>352.0</ele><time>2026-05-03T08:32:16.598Z</time></trkpt><trkpt lat="43.586775" lon="12.7668133"><ele>352.0</ele><time>2026-05-03T08:32:17.603Z</time></trkpt><trkpt lat="43.58674" lon="12.7667083"><ele>352.0</ele><time>2026-05-03T08:32:18.608Z</time></trkpt><trkpt lat="43.5867017" lon="12.7666017"><ele>352.0</ele><time>2026-05-03T08:32:19.6Z</time></trkpt><trkpt lat="43.5866667" lon="12.766495"><ele>352.0</ele><time>2026-05-03T08:32:20.618Z</time></trkpt><trkpt lat="43.5866317" lon="12.7663933"><ele>351.2857142857143</ele><time>2026-05-03T08:32:21.606Z</time></trkpt><trkpt lat="43.5865917" lon="12.766295"><ele>350.57142857142856</ele><time>2026-05-03T08:32:22.609Z</time></trkpt><trkpt lat="43.58655" lon="12.7662083"><ele>349.8571428571429</ele><time>2026-05-03T08:32:23.603Z</time></trkpt><trkpt lat="43.5865017" lon="12.7661317"><ele>349.1428571428571</ele><time>2026-05-03T08:32:24.597Z</time></trkpt><trkpt lat="43.58645" lon="12.7660617"><ele>348.4285714285714</ele><time>2026-05-03T08:32:25.608Z</time></trkpt><trkpt lat="43.5863967" lon="12.7660017"><ele>347.7142857142857</ele><time>2026-05-03T08:32:26.606Z</time></trkpt><trkpt lat="43.5863383" lon="12.7659517"><ele>347.0</ele><time>2026-05-03T08:32:27.601Z</time></trkpt><trkpt lat="43.5862783" lon="12.7659083"><ele>347.42857142857144</ele><time>2026-05-03T08:32:28.612Z</time></trkpt><trkpt lat="43.586215" lon="12.7658633"><ele>347.85714285714283</ele><time>2026-05-03T08:32:29.606Z</time></trkpt><trkpt lat="43.5861533" lon="12.765815"><ele>348.2857142857143</ele><time>2026-05-03T08:32:30.606Z</time></trkpt><trkpt lat="43.5860933" lon="12.7657733"><ele>348.7142857142857</ele><time>2026-05-03T08:32:31.617Z</time></trkpt><trkpt lat="43.586035" lon="12.765735"><ele>349.1428571428571</ele><time>2026-05-03T08:32:32.607Z</time></trkpt><trkpt lat="43.5859783" lon="12.7656967"><ele>349.57142857142856</ele><time>2026-05-03T08:32:33.613Z</time></trkpt><trkpt lat="43.585915" lon="12.76566"><ele>350.0</ele><time>2026-05-03T08:32:34.603Z</time></trkpt><trkpt lat="43.5858517" lon="12.7656183"><ele>350.0</ele><time>2026-05-03T08:32:35.597Z</time></trkpt><trkpt lat="43.5857867" lon="12.7655683"><ele>350.0</ele><time>2026-05-03T08:32:36.603Z</time></trkpt><trkpt lat="43.5857183" lon="12.7655183"><ele>350.0</ele><time>2026-05-03T08:32:37.608Z</time></trkpt><trkpt lat="43.5856467" lon="12.765465"><ele>350.0</ele><time>2026-05-03T08:32:38.614Z</time></trkpt><trkpt lat="43.585575" lon="12.7654033"><ele>350.0</ele><time>2026-05-03T08:32:39.607Z</time></trkpt><trkpt lat="43.5855017" lon="12.7653433"><ele>350.0</ele><time>2026-05-03T08:32:40.607Z</time></trkpt><trkpt lat="43.5854233" lon="12.7652833"><ele>349.4</ele><time>2026-05-03T08:32:41.608Z</time></trkpt><trkpt lat="43.58534" lon="12.765215"><ele>348.8</ele><time>2026-05-03T08:32:42.6Z</time></trkpt><trkpt lat="43.585265" lon="12.7651433"><ele>348.20000000000005</ele><time>2026-05-03T08:32:43.603Z</time></trkpt><trkpt lat="43.5851917" lon="12.765065"><ele>347.6</ele><time>2026-05-03T08:32:44.61Z</time></trkpt><trkpt lat="43.585125" lon="12.764965"><ele>347.0</ele><time>2026-05-03T08:32:45.602Z</time></trkpt><trkpt lat="43.5850667" lon="12.7648583"><ele>347.0</ele><time>2026-05-03T08:32:46.603Z</time></trkpt><trkpt lat="43.585005" lon="12.7647517"><ele>347.0</ele><time>2026-05-03T08:32:47.605Z</time></trkpt><trkpt lat="43.584945" lon="12.7646417"><ele>347.0</ele><time>2026-05-03T08:32:48.604Z</time></trkpt><trkpt lat="43.584905" lon="12.7645217"><ele>347.0</ele><time>2026-05-03T08:32:49.617Z</time></trkpt><trkpt lat="43.5848667" lon="12.7643933"><ele>347.0</ele><time>2026-05-03T08:32:50.606Z</time></trkpt><trkpt lat="43.5848217" lon="12.7642617"><ele>346.0</ele><time>2026-05-03T08:32:51.603Z</time></trkpt><trkpt lat="43.584775" lon="12.76413"><ele>345.0</ele><time>2026-05-03T08:32:52.603Z</time></trkpt><trkpt lat="43.5847283" lon="12.76398"><ele>344.0</ele><time>2026-05-03T08:32:53.615Z</time></trkpt><trkpt lat="43.584675" lon="12.76382"><ele>343.0</ele><time>2026-05-03T08:32:54.611Z</time></trkpt><trkpt lat="43.5846217" lon="12.7636567"><ele>343.0</ele><time>2026-05-03T08:32:55.604Z</time></trkpt><trkpt lat="43.5845667" lon="12.7634817"><ele>343.0</ele><time>2026-05-03T08:32:56.606Z</time></trkpt><trkpt lat="43.58451" lon="12.763305"><ele>343.0</ele><time>2026-05-03T08:32:57.607Z</time></trkpt><trkpt lat="43.5844533" lon="12.7631317"><ele>343.0</ele><time>2026-05-03T08:32:58.61Z</time></trkpt><trkpt lat="43.5843967" lon="12.7629517"><ele>344.75</ele><time>2026-05-03T08:32:59.609Z</time></trkpt><trkpt lat="43.5843433" lon="12.7627633"><ele>346.5</ele><time>2026-05-03T08:33:00.608Z</time></trkpt><trkpt lat="43.5842867" lon="12.762575"><ele>348.25</ele><time>2026-05-03T08:33:01.611Z</time></trkpt><trkpt lat="43.58423" lon="12.7623867"><ele>350.0</ele><time>2026-05-03T08:33:02.603Z</time></trkpt><trkpt lat="43.5841733" lon="12.76219"><ele>350.0</ele><time>2026-05-03T08:33:03.611Z</time></trkpt><trkpt lat="43.58411" lon="12.7620033"><ele>350.0</ele><time>2026-05-03T08:33:04.612Z</time></trkpt><trkpt lat="43.58405" lon="12.7618333"><ele>350.0</ele><time>2026-05-03T08:33:05.61Z</time></trkpt><trkpt lat="43.5839967" lon="12.7616833"><ele>350.0</ele><time>2026-05-03T08:33:06.605Z</time></trkpt><trkpt lat="43.583935" lon="12.7615467"><ele>349.5</ele><time>2026-05-03T08:33:07.602Z</time></trkpt><trkpt lat="43.583865" lon="12.7614217"><ele>349.0</ele><time>2026-05-03T08:33:08.607Z</time></trkpt><trkpt lat="43.58378" lon="12.7613033"><ele>348.5</ele><time>2026-05-03T08:33:09.607Z</time></trkpt><trkpt lat="43.5836867" lon="12.7611883"><ele>348.0</ele><time>2026-05-03T08:33:10.606Z</time></trkpt><trkpt lat="43.58359" lon="12.7610867"><ele>350.75</ele><time>2026-05-03T08:33:11.608Z</time></trkpt><trkpt lat="43.5834967" lon="12.7609967"><ele>353.5</ele><time>2026-05-03T08:33:12.602Z</time></trkpt><trkpt lat="43.5834" lon="12.7609133"><ele>356.25</ele><time>2026-05-03T08:33:13.605Z</time></trkpt><trkpt lat="43.5833" lon="12.760835"><ele>359.0</ele><time>2026-05-03T08:33:14.606Z</time></trkpt><trkpt lat="43.5831883" lon="12.760755"><ele>359.0</ele><time>2026-05-03T08:33:15.61Z</time></trkpt><trkpt lat="43.5830833" lon="12.7606833"><ele>359.0</ele><time>2026-05-03T08:33:16.6Z</time></trkpt><trkpt lat="43.582985" lon="12.76061"><ele>359.0</ele><time>2026-05-03T08:33:17.604Z</time></trkpt><trkpt lat="43.582885" lon="12.7605283"><ele>359.0</ele><time>2026-05-03T08:33:18.603Z</time></trkpt><trkpt lat="43.58279" lon="12.7604383"><ele>358.2</ele><time>2026-05-03T08:33:19.604Z</time></trkpt><trkpt lat="43.582695" lon="12.7603533"><ele>357.4</ele><time>2026-05-03T08:33:20.614Z</time></trkpt><trkpt lat="43.5826017" lon="12.7602717"><ele>356.6</ele><time>2026-05-03T08:33:21.605Z</time></trkpt><trkpt lat="43.5825133" lon="12.76019"><ele>355.8</ele><time>2026-05-03T08:33:22.606Z</time></trkpt><trkpt lat="43.582415" lon="12.7601017"><ele>355.0</ele><time>2026-05-03T08:33:23.608Z</time></trkpt><trkpt lat="43.58231" lon="12.7600167"><ele>355.0</ele><time>2026-05-03T08:33:24.605Z</time></trkpt><trkpt lat="43.5822067" lon="12.7599383"><ele>355.0</ele><time>2026-05-03T08:33:25.613Z</time></trkpt><trkpt lat="43.5821" lon="12.759865"><ele>355.0</ele><time>2026-05-03T08:33:26.607Z</time></trkpt><trkpt lat="43.582" lon="12.759795"><ele>355.0</ele><time>2026-05-03T08:33:27.604Z</time></trkpt><trkpt lat="43.5819067" lon="12.7597233"><ele>354.4</ele><time>2026-05-03T08:33:28.603Z</time></trkpt><trkpt lat="43.5818217" lon="12.7596517"><ele>353.8</ele><time>2026-05-03T08:33:29.599Z</time></trkpt><trkpt lat="43.58174" lon="12.75956"><ele>353.20000000000005</ele><time>2026-05-03T08:33:30.606Z</time></trkpt><trkpt lat="43.5816617" lon="12.759445"><ele>352.6</ele><time>2026-05-03T08:33:31.599Z</time></trkpt><trkpt lat="43.5815833" lon="12.7593017"><ele>352.0</ele><time>2026-05-03T08:33:32.606Z</time></trkpt><trkpt lat="43.5815017" lon="12.7591417"><ele>352.0</ele><time>2026-05-03T08:33:33.603Z</time></trkpt><trkpt lat="43.5814117" lon="12.7589617"><ele>352.0</ele><time>2026-05-03T08:33:34.607Z</time></trkpt><trkpt lat="43.58132" lon="12.7587733"><ele>352.0</ele><time>2026-05-03T08:33:35.603Z</time></trkpt><trkpt lat="43.581225" lon="12.7585817"><ele>352.66666666666663</ele><time>2026-05-03T08:33:36.606Z</time></trkpt><trkpt lat="43.581125" lon="12.7583917"><ele>353.3333333333333</ele><time>2026-05-03T08:33:37.605Z</time></trkpt><trkpt lat="43.5810267" lon="12.7582017"><ele>354.0</ele><time>2026-05-03T08:33:38.604Z</time></trkpt><trkpt lat="43.580935" lon="12.7580217"><ele>354.0</ele><time>2026-05-03T08:33:39.601Z</time></trkpt><trkpt lat="43.58085" lon="12.7578617"><ele>354.0</ele><time>2026-05-03T08:33:40.599Z</time></trkpt><trkpt lat="43.5807783" lon="12.75772"><ele>354.0</ele><time>2026-05-03T08:33:41.599Z</time></trkpt><trkpt lat="43.58072" lon="12.7576017"><ele>354.0</ele><time>2026-05-03T08:33:42.598Z</time></trkpt><trkpt lat="43.5806733" lon="12.757515"><ele>354.8333333333333</ele><time>2026-05-03T08:33:43.601Z</time></trkpt><trkpt lat="43.5806233" lon="12.7574083"><ele>355.6666666666667</ele><time>2026-05-03T08:33:45.6Z</time></trkpt><trkpt lat="43.5806033" lon="12.7572967"><ele>356.5</ele><time>2026-05-03T08:33:55.603Z</time></trkpt><trkpt lat="43.5806433" lon="12.757215"><ele>357.33333333333337</ele><time>2026-05-03T08:33:59.617Z</time></trkpt><trkpt lat="43.5807117" lon="12.7571317"><ele>358.1666666666667</ele><time>2026-05-03T08:34:01.603Z</time></trkpt><trkpt lat="43.5807983" lon="12.7570417"><ele>359.0</ele><time>2026-05-03T08:34:03.604Z</time></trkpt><trkpt lat="43.5808783" lon="12.7569567"><ele>359.0</ele><time>2026-05-03T08:34:05.607Z</time></trkpt><trkpt lat="43.5809633" lon="12.7568933"><ele>359.0</ele><time>2026-05-03T08:34:07.611Z</time></trkpt><trkpt lat="43.5810467" lon="12.7568283"><ele>359.0</ele><time>2026-05-03T08:34:09.608Z</time></trkpt><trkpt lat="43.5811433" lon="12.7567583"><ele>359.0</ele><time>2026-05-03T08:34:11.602Z</time></trkpt><trkpt lat="43.5812483" lon="12.7566717"><ele>359.0</ele><time>2026-05-03T08:34:13.609Z</time></trkpt><trkpt lat="43.581335" lon="12.7565867"><ele>359.5</ele><time>2026-05-03T08:34:15.612Z</time></trkpt><trkpt lat="43.5813983" lon="12.756495"><ele>360.0</ele><time>2026-05-03T08:34:17.607Z</time></trkpt><trkpt lat="43.58144" lon="12.7563933"><ele>360.5</ele><time>2026-05-03T08:34:19.609Z</time></trkpt><trkpt lat="43.5814567" lon="12.7563017"><ele>361.0</ele><time>2026-05-03T08:34:21.61Z</time></trkpt><trkpt lat="43.5814533" lon="12.7561783"><ele>361.5</ele><time>2026-05-03T08:34:23.617Z</time></trkpt><trkpt lat="43.5814567" lon="12.7560533"><ele>362.0</ele><time>2026-05-03T08:34:25.603Z</time></trkpt><trkpt lat="43.5814933" lon="12.7559417"><ele>363.1666666666667</ele><time>2026-05-03T08:34:27.604Z</time></trkpt><trkpt lat="43.58153" lon="12.7558617"><ele>364.33333333333337</ele><time>2026-05-03T08:34:29.607Z</time></trkpt><trkpt lat="43.58156" lon="12.7557517"><ele>365.5</ele><time>2026-05-03T08:35:22.598Z</time></trkpt><trkpt lat="43.581615" lon="12.755645"><ele>366.6666666666667</ele><time>2026-05-03T08:35:24.604Z</time></trkpt><trkpt lat="43.58166" lon="12.7555233"><ele>367.8333333333333</ele><time>2026-05-03T08:35:26.611Z</time></trkpt><trkpt lat="43.5816933" lon="12.7553917"><ele>369.0</ele><time>2026-05-03T08:35:28.608Z</time></trkpt><trkpt lat="43.5817133" lon="12.7552467"><ele>369.8333333333333</ele><time>2026-05-03T08:35:30.604Z</time></trkpt><trkpt lat="43.581745" lon="12.7551017"><ele>370.6666666666667</ele><time>2026-05-03T08:35:32.613Z</time></trkpt><trkpt lat="43.5817783" lon="12.7550167"><ele>371.5</ele><time>2026-05-03T08:35:33.605Z</time></trkpt><trkpt lat="43.58183" lon="12.7549233"><ele>372.33333333333337</ele><time>2026-05-03T08:35:34.604Z</time></trkpt><trkpt lat="43.5818967" lon="12.754835"><ele>373.1666666666667</ele><time>2026-05-03T08:35:35.6Z</time></trkpt><trkpt lat="43.58196" lon="12.7547633"><ele>374.0</ele><time>2026-05-03T08:35:36.606Z</time></trkpt><trkpt lat="43.5820267" lon="12.7546983"><ele>372.1666666666667</ele><time>2026-05-03T08:35:37.615Z</time></trkpt><trkpt lat="43.5820967" lon="12.7546333"><ele>370.33333333333337</ele><time>2026-05-03T08:35:38.614Z</time></trkpt><trkpt lat="43.5821667" lon="12.754575"><ele>368.5</ele><time>2026-05-03T08:35:39.607Z</time></trkpt><trkpt lat="43.582235" lon="12.7545217"><ele>366.6666666666667</ele><time>2026-05-03T08:35:40.606Z</time></trkpt><trkpt lat="43.5822983" lon="12.754475"><ele>364.8333333333333</ele><time>2026-05-03T08:35:41.609Z</time></trkpt><trkpt lat="43.582355" lon="12.7544267"><ele>363.0</ele><time>2026-05-03T08:35:42.607Z</time></trkpt><trkpt lat="43.5824267" lon="12.75432"><ele>363.0</ele><time>2026-05-03T08:35:44.608Z</time></trkpt><trkpt lat="43.5824433" lon="12.7541783"><ele>363.0</ele><time>2026-05-03T08:35:46.639Z</time></trkpt><trkpt lat="43.5824267" lon="12.753995"><ele>363.0</ele><time>2026-05-03T08:35:48.607Z</time></trkpt><trkpt lat="43.5824267" lon="12.75389"><ele>363.0</ele><time>2026-05-03T08:35:49.605Z</time></trkpt><trkpt lat="43.5824417" lon="12.7537833"><ele>363.0</ele><time>2026-05-03T08:35:50.605Z</time></trkpt><trkpt lat="43.58246" lon="12.7536683"><ele>363.0</ele><time>2026-05-03T08:35:51.61Z</time></trkpt><trkpt lat="43.582475" lon="12.7535617"><ele>363.0</ele><time>2026-05-03T08:35:52.607Z</time></trkpt><trkpt lat="43.5824767" lon="12.7534617"><ele>363.0</ele><time>2026-05-03T08:35:53.609Z</time></trkpt><trkpt lat="43.58247" lon="12.753365"><ele>363.0</ele><time>2026-05-03T08:35:54.607Z</time></trkpt><trkpt lat="43.5824583" lon="12.7532733"><ele>363.0</ele><time>2026-05-03T08:35:55.603Z</time></trkpt><trkpt lat="43.58245" lon="12.7531833"><ele>363.0</ele><time>2026-05-03T08:35:56.606Z</time></trkpt><trkpt lat="43.58247" lon="12.7530417"><ele>363.3333333333333</ele><time>2026-05-03T08:35:58.606Z</time></trkpt><trkpt lat="43.582555" lon="12.7529383"><ele>363.6666666666667</ele><time>2026-05-03T08:36:00.604Z</time></trkpt><trkpt lat="43.582615" lon="12.7529017"><ele>364.0</ele><time>2026-05-03T08:36:01.607Z</time></trkpt><trkpt lat="43.5826783" lon="12.7528683"><ele>364.33333333333337</ele><time>2026-05-03T08:36:02.611Z</time></trkpt><trkpt lat="43.58275" lon="12.7528383"><ele>364.6666666666667</ele><time>2026-05-03T08:36:03.611Z</time></trkpt><trkpt lat="43.5828183" lon="12.7528083"><ele>365.0</ele><time>2026-05-03T08:36:04.615Z</time></trkpt><trkpt lat="43.5828883" lon="12.7527717"><ele>366.28571428571433</ele><time>2026-05-03T08:36:05.605Z</time></trkpt><trkpt lat="43.5829667" lon="12.752735"><ele>367.57142857142856</ele><time>2026-05-03T08:36:06.601Z</time></trkpt><trkpt lat="43.5830483" lon="12.7527"><ele>368.8571428571429</ele><time>2026-05-03T08:36:07.603Z</time></trkpt><trkpt lat="43.5831183" lon="12.752665"><ele>370.14285714285717</ele><time>2026-05-03T08:36:08.612Z</time></trkpt><trkpt lat="43.5831733" lon="12.7526133"><ele>371.42857142857144</ele><time>2026-05-03T08:36:09.6Z</time></trkpt><trkpt lat="43.5832167" lon="12.752545"><ele>372.7142857142857</ele><time>2026-05-03T08:36:10.606Z</time></trkpt><trkpt lat="43.5832433" lon="12.752465"><ele>374.0</ele><time>2026-05-03T08:36:11.609Z</time></trkpt><trkpt lat="43.5832633" lon="12.7523733"><ele>374.0</ele><time>2026-05-03T08:36:12.605Z</time></trkpt><trkpt lat="43.5832867" lon="12.75226"><ele>374.0</ele><time>2026-05-03T08:36:13.612Z</time></trkpt><trkpt lat="43.5833133" lon="12.75213"><ele>374.0</ele><time>2026-05-03T08:36:14.607Z</time></trkpt><trkpt lat="43.583345" lon="12.7520083"><ele>374.0</ele><time>2026-05-03T08:36:15.608Z</time></trkpt><trkpt lat="43.5833767" lon="12.751895"><ele>374.0</ele><time>2026-05-03T08:36:16.605Z</time></trkpt><trkpt lat="43.583405" lon="12.7517933"><ele>374.0</ele><time>2026-05-03T08:36:17.609Z</time></trkpt><trkpt lat="43.5834417" lon="12.7516867"><ele>374.5</ele><time>2026-05-03T08:36:18.611Z</time></trkpt><trkpt lat="43.5834717" lon="12.7515733"><ele>375.0</ele><time>2026-05-03T08:36:19.605Z</time></trkpt><trkpt lat="43.5835" lon="12.7514533"><ele>375.5</ele><time>2026-05-03T08:36:20.608Z</time></trkpt><trkpt lat="43.5835317" lon="12.75134"><ele>376.0</ele><time>2026-05-03T08:36:21.61Z</time></trkpt><trkpt lat="43.5835617" lon="12.7512283"><ele>376.5</ele><time>2026-05-03T08:36:22.604Z</time></trkpt><trkpt lat="43.5835983" lon="12.7511183"><ele>377.0</ele><time>2026-05-03T08:36:23.608Z</time></trkpt><trkpt lat="43.5836283" lon="12.7510017"><ele>377.1666666666667</ele><time>2026-05-03T08:36:24.606Z</time></trkpt><trkpt lat="43.58367" lon="12.75089"><ele>377.33333333333337</ele><time>2026-05-03T08:36:25.605Z</time></trkpt><trkpt lat="43.5837117" lon="12.7507817"><ele>377.5</ele><time>2026-05-03T08:36:26.604Z</time></trkpt><trkpt lat="43.5837617" lon="12.7506817"><ele>377.6666666666667</ele><time>2026-05-03T08:36:27.609Z</time></trkpt><trkpt lat="43.5838183" lon="12.750585"><ele>377.8333333333333</ele><time>2026-05-03T08:36:28.609Z</time></trkpt><trkpt lat="43.5838767" lon="12.7504967"><ele>378.0</ele><time>2026-05-03T08:36:29.605Z</time></trkpt><trkpt lat="43.5839317" lon="12.7504033"><ele>382.0</ele><time>2026-05-03T08:36:30.601Z</time></trkpt><trkpt lat="43.5839867" lon="12.7503033"><ele>386.0</ele><time>2026-05-03T08:36:31.607Z</time></trkpt><trkpt lat="43.5840483" lon="12.7501933"><ele>390.0</ele><time>2026-05-03T08:36:32.607Z</time></trkpt><trkpt lat="43.5841" lon="12.7500783"><ele>394.0</ele><time>2026-05-03T08:36:33.608Z</time></trkpt><trkpt lat="43.584155" lon="12.7499667"><ele>398.0</ele><time>2026-05-03T08:36:34.605Z</time></trkpt><trkpt lat="43.5842167" lon="12.7498567"><ele>398.0</ele><time>2026-05-03T08:36:35.607Z</time></trkpt><trkpt lat="43.584285" lon="12.7497333"><ele>398.0</ele><time>2026-05-03T08:36:36.61Z</time></trkpt><trkpt lat="43.5843617" lon="12.7496033"><ele>398.0</ele><time>2026-05-03T08:36:37.612Z</time></trkpt><trkpt lat="43.5844467" lon="12.7494817"><ele>398.0</ele><time>2026-05-03T08:36:38.61Z</time></trkpt><trkpt lat="43.5845183" lon="12.7493733"><ele>401.16666666666663</ele><time>2026-05-03T08:36:39.605Z</time></trkpt><trkpt lat="43.5845817" lon="12.7492783"><ele>404.3333333333333</ele><time>2026-05-03T08:36:40.602Z</time></trkpt><trkpt lat="43.58464" lon="12.7491917"><ele>407.5</ele><time>2026-05-03T08:36:41.594Z</time></trkpt><trkpt lat="43.5846917" lon="12.7491017"><ele>410.66666666666663</ele><time>2026-05-03T08:36:42.602Z</time></trkpt><trkpt lat="43.5847433" lon="12.7490117"><ele>413.8333333333333</ele><time>2026-05-03T08:36:43.602Z</time></trkpt><trkpt lat="43.5847917" lon="12.748915"><ele>417.0</ele><time>2026-05-03T08:36:44.611Z</time></trkpt><trkpt lat="43.5848367" lon="12.7488183"><ele>417.0</ele><time>2026-05-03T08:36:45.606Z</time></trkpt><trkpt lat="43.584875" lon="12.7487283"><ele>417.0</ele><time>2026-05-03T08:36:46.606Z</time></trkpt><trkpt lat="43.5849333" lon="12.7485933"><ele>417.0</ele><time>2026-05-03T08:36:48.605Z</time></trkpt><trkpt lat="43.5849917" lon="12.7485467"><ele>417.0</ele><time>2026-05-03T08:36:50.606Z</time></trkpt><trkpt lat="43.58506" lon="12.7485533"><ele>417.0</ele><time>2026-05-03T08:36:52.609Z</time></trkpt><trkpt lat="43.585095" lon="12.748685"><ele>417.0</ele><time>2026-05-03T08:36:55.606Z</time></trkpt><trkpt lat="43.5850917" lon="12.7488433"><ele>417.0</ele><time>2026-05-03T08:36:57.605Z</time></trkpt><trkpt lat="43.5851017" lon="12.7489333"><ele>417.0</ele><time>2026-05-03T08:36:58.612Z</time></trkpt><trkpt lat="43.585125" lon="12.7490833"><ele>417.0</ele><time>2026-05-03T08:37:00.612Z</time></trkpt><trkpt lat="43.5851733" lon="12.7492"><ele>417.0</ele><time>2026-05-03T08:37:02.612Z</time></trkpt><trkpt lat="43.585245" lon="12.7493017"><ele>417.0</ele><time>2026-05-03T08:37:04.604Z</time></trkpt><trkpt lat="43.58532" lon="12.749405"><ele>417.6666666666667</ele><time>2026-05-03T08:37:06.602Z</time></trkpt><trkpt lat="43.5853717" lon="12.7495183"><ele>418.33333333333337</ele><time>2026-05-03T08:37:08.607Z</time></trkpt><trkpt lat="43.58537" lon="12.74964"><ele>419.0</ele><time>2026-05-03T08:37:10.613Z</time></trkpt><trkpt lat="43.5853483" lon="12.74974"><ele>419.6666666666667</ele><time>2026-05-03T08:37:12.606Z</time></trkpt><trkpt lat="43.58534" lon="12.74983"><ele>420.33333333333337</ele><time>2026-05-03T08:37:15.602Z</time></trkpt><trkpt lat="43.5854183" lon="12.74975"><ele>421.0</ele><time>2026-05-03T08:37:48.607Z</time></trkpt><trkpt lat="43.5854733" lon="12.7496183"><ele>425.4</ele><time>2026-05-03T08:37:50.61Z</time></trkpt><trkpt lat="43.58551" lon="12.7495"><ele>429.8</ele><time>2026-05-03T08:37:52.603Z</time></trkpt><trkpt lat="43.585525" lon="12.74938"><ele>434.19999999999993</ele><time>2026-05-03T08:37:54.632Z</time></trkpt><trkpt lat="43.5855417" lon="12.7492383"><ele>438.59999999999997</ele><time>2026-05-03T08:37:56.604Z</time></trkpt><trkpt lat="43.585555" lon="12.7490783"><ele>443.0</ele><time>2026-05-03T08:37:58.611Z</time></trkpt><trkpt lat="43.58561" lon="12.74892"><ele>443.2</ele><time>2026-05-03T08:38:00.606Z</time></trkpt><trkpt lat="43.58567" lon="12.7487767"><ele>443.4</ele><time>2026-05-03T08:38:02.614Z</time></trkpt><trkpt lat="43.5857033" lon="12.748645"><ele>443.59999999999997</ele><time>2026-05-03T08:38:04.607Z</time></trkpt><trkpt lat="43.5857233" lon="12.7485067"><ele>443.79999999999995</ele><time>2026-05-03T08:38:06.611Z</time></trkpt><trkpt lat="43.5857333" lon="12.7483617"><ele>444.0</ele><time>2026-05-03T08:38:08.604Z</time></trkpt><trkpt lat="43.58572" lon="12.748185"><ele>444.0</ele><time>2026-05-03T08:38:10.598Z</time></trkpt><trkpt lat="43.58571" lon="12.7480817"><ele>444.0</ele><time>2026-05-03T08:38:11.597Z</time></trkpt><trkpt lat="43.5857183" lon="12.7479717"><ele>444.0</ele><time>2026-05-03T08:38:12.607Z</time></trkpt><trkpt lat="43.5857417" lon="12.7478583"><ele>444.0</ele><time>2026-05-03T08:38:13.608Z</time></trkpt><trkpt lat="43.5857667" lon="12.747755"><ele>444.0</ele><time>2026-05-03T08:38:14.596Z</time></trkpt><trkpt lat="43.5858017" lon="12.7476667"><ele>444.0</ele><time>2026-05-03T08:38:15.605Z</time></trkpt><trkpt lat="43.5858467" lon="12.7475967"><ele>443.1666666666667</ele><time>2026-05-03T08:38:16.606Z</time></trkpt><trkpt lat="43.5858933" lon="12.7475317"><ele>442.33333333333337</ele><time>2026-05-03T08:38:17.603Z</time></trkpt><trkpt lat="43.585945" lon="12.7474783"><ele>441.5</ele><time>2026-05-03T08:38:18.602Z</time></trkpt><trkpt lat="43.5860733" lon="12.7474333"><ele>440.6666666666667</ele><time>2026-05-03T08:38:20.607Z</time></trkpt><trkpt lat="43.5861567" lon="12.7474367"><ele>439.83333333333337</ele><time>2026-05-03T08:38:21.604Z</time></trkpt><trkpt lat="43.5862417" lon="12.7474417"><ele>439.0</ele><time>2026-05-03T08:38:22.606Z</time></trkpt><trkpt lat="43.586315" lon="12.74744"><ele>441.57142857142856</ele><time>2026-05-03T08:38:23.602Z</time></trkpt><trkpt lat="43.5863883" lon="12.7474383"><ele>444.1428571428571</ele><time>2026-05-03T08:38:24.61Z</time></trkpt><trkpt lat="43.5864617" lon="12.7474433"><ele>446.7142857142858</ele><time>2026-05-03T08:38:25.603Z</time></trkpt><trkpt lat="43.5865333" lon="12.7474533"><ele>449.28571428571433</ele><time>2026-05-03T08:38:26.607Z</time></trkpt><trkpt lat="43.5866" lon="12.7474633"><ele>451.8571428571429</ele><time>2026-05-03T08:38:27.596Z</time></trkpt><trkpt lat="43.5866717" lon="12.7474717"><ele>454.4285714285715</ele><time>2026-05-03T08:38:28.602Z</time></trkpt><trkpt lat="43.5867383" lon="12.7474783"><ele>457.00000000000006</ele><time>2026-05-03T08:38:29.606Z</time></trkpt><trkpt lat="43.5868017" lon="12.7474783"><ele>457.0</ele><time>2026-05-03T08:38:30.61Z</time></trkpt><trkpt lat="43.5869183" lon="12.74746"><ele>457.00000000000006</ele><time>2026-05-03T08:38:32.596Z</time></trkpt><trkpt lat="43.5870517" lon="12.7474233"><ele>457.00000000000006</ele><time>2026-05-03T08:38:34.601Z</time></trkpt><trkpt lat="43.5871283" lon="12.747385"><ele>457.0</ele><time>2026-05-03T08:38:35.601Z</time></trkpt><trkpt lat="43.587195" lon="12.747345"><ele>457.0</ele><time>2026-05-03T08:38:36.601Z</time></trkpt><trkpt lat="43.587325" lon="12.7473183"><ele>457.40000000000003</ele><time>2026-05-03T08:38:38.611Z</time></trkpt><trkpt lat="43.5874383" lon="12.7473267"><ele>457.80000000000007</ele><time>2026-05-03T08:38:40.605Z</time></trkpt><trkpt lat="43.5875217" lon="12.7473583"><ele>458.2</ele><time>2026-05-03T08:38:42.608Z</time></trkpt><trkpt lat="43.58761" lon="12.747425"><ele>458.6</ele><time>2026-05-03T08:38:44.609Z</time></trkpt><trkpt lat="43.5876783" lon="12.7475683"><ele>459.0</ele><time>2026-05-03T08:38:46.607Z</time></trkpt><trkpt lat="43.5877083" lon="12.7476533"><ele>461.6666666666667</ele><time>2026-05-03T08:38:47.605Z</time></trkpt><trkpt lat="43.5877383" lon="12.7477417"><ele>464.33333333333337</ele><time>2026-05-03T08:38:48.606Z</time></trkpt><trkpt lat="43.5877683" lon="12.74782"><ele>467.0</ele><time>2026-05-03T08:38:49.603Z</time></trkpt><trkpt lat="43.5878267" lon="12.747925"><ele>469.6666666666667</ele><time>2026-05-03T08:38:51.605Z</time></trkpt><trkpt lat="43.5878967" lon="12.7479417"><ele>472.33333333333337</ele><time>2026-05-03T08:38:53.604Z</time></trkpt><trkpt lat="43.5879767" lon="12.74788"><ele>475.0</ele><time>2026-05-03T08:38:55.605Z</time></trkpt><trkpt lat="43.5880733" lon="12.747745"><ele>475.00000000000006</ele><time>2026-05-03T08:38:57.597Z</time></trkpt><trkpt lat="43.58813" lon="12.7476783"><ele>475.0</ele><time>2026-05-03T08:38:58.599Z</time></trkpt><trkpt lat="43.5881883" lon="12.7476267"><ele>475.0</ele><time>2026-05-03T08:38:59.605Z</time></trkpt><trkpt lat="43.5882983" lon="12.7475867"><ele>475.0</ele><time>2026-05-03T08:39:01.605Z</time></trkpt><trkpt lat="43.588415" lon="12.7476367"><ele>475.00000000000006</ele><time>2026-05-03T08:39:03.604Z</time></trkpt><trkpt lat="43.5884733" lon="12.7476867"><ele>475.0</ele><time>2026-05-03T08:39:04.606Z</time></trkpt><trkpt lat="43.5885817" lon="12.7477383"><ele>474.00000000000006</ele><time>2026-05-03T08:39:06.598Z</time></trkpt><trkpt lat="43.5887017" lon="12.747695"><ele>473.0</ele><time>2026-05-03T08:39:08.599Z</time></trkpt><trkpt lat="43.5887567" lon="12.7476383"><ele>472.0</ele><time>2026-05-03T08:39:09.605Z</time></trkpt><trkpt lat="43.58881" lon="12.747565"><ele>471.0</ele><time>2026-05-03T08:39:10.601Z</time></trkpt><trkpt lat="43.58886" lon="12.7474917"><ele>470.00000000000006</ele><time>2026-05-03T08:39:11.6Z</time></trkpt><trkpt lat="43.58892" lon="12.747425"><ele>469.0</ele><time>2026-05-03T08:39:12.598Z</time></trkpt><trkpt lat="43.5889917" lon="12.74736"><ele>469.0</ele><time>2026-05-03T08:39:13.607Z</time></trkpt><trkpt lat="43.58906" lon="12.7472967"><ele>469.0</ele><time>2026-05-03T08:39:14.611Z</time></trkpt><trkpt lat="43.5891217" lon="12.7472433"><ele>469.0</ele><time>2026-05-03T08:39:15.615Z</time></trkpt><trkpt lat="43.58919" lon="12.7471967"><ele>469.0</ele><time>2026-05-03T08:39:16.609Z</time></trkpt><trkpt lat="43.5892583" lon="12.747165"><ele>469.0</ele><time>2026-05-03T08:39:17.602Z</time></trkpt><trkpt lat="43.5893233" lon="12.7471467"><ele>469.0</ele><time>2026-05-03T08:39:18.605Z</time></trkpt><trkpt lat="43.58939" lon="12.7471367"><ele>469.0</ele><time>2026-05-03T08:39:19.605Z</time></trkpt><trkpt lat="43.5894583" lon="12.7471317"><ele>471.1428571428571</ele><time>2026-05-03T08:39:20.605Z</time></trkpt><trkpt lat="43.5895333" lon="12.7471317"><ele>473.2857142857143</ele><time>2026-05-03T08:39:21.603Z</time></trkpt><trkpt lat="43.5896117" lon="12.7471383"><ele>475.42857142857144</ele><time>2026-05-03T08:39:22.596Z</time></trkpt><trkpt lat="43.58969" lon="12.7471383"><ele>477.57142857142856</ele><time>2026-05-03T08:39:23.602Z</time></trkpt><trkpt lat="43.5897617" lon="12.7471367"><ele>479.71428571428567</ele><time>2026-05-03T08:39:24.606Z</time></trkpt><trkpt lat="43.5898317" lon="12.7471333"><ele>481.85714285714283</ele><time>2026-05-03T08:39:25.606Z</time></trkpt><trkpt lat="43.5898967" lon="12.7471283"><ele>484.0</ele><time>2026-05-03T08:39:26.61Z</time></trkpt><trkpt lat="43.5900117" lon="12.74716"><ele>484.00000000000006</ele><time>2026-05-03T08:39:28.602Z</time></trkpt><trkpt lat="43.5901033" lon="12.7472183"><ele>484.0</ele><time>2026-05-03T08:39:30.609Z</time></trkpt><trkpt lat="43.59018" lon="12.7472033"><ele>484.0</ele><time>2026-05-03T08:39:32.605Z</time></trkpt><trkpt lat="43.5902383" lon="12.7471217"><ele>484.0</ele><time>2026-05-03T08:39:35.606Z</time></trkpt><trkpt lat="43.59028" lon="12.7470367"><ele>484.00000000000006</ele><time>2026-05-03T08:39:37.6Z</time></trkpt><trkpt lat="43.590365" lon="12.747025"><ele>484.0</ele><time>2026-05-03T08:39:39.604Z</time></trkpt><trkpt lat="43.5904817" lon="12.7471083"><ele>485.00000000000006</ele><time>2026-05-03T08:39:41.604Z</time></trkpt><trkpt lat="43.59054" lon="12.7471733"><ele>486.0</ele><time>2026-05-03T08:39:42.605Z</time></trkpt><trkpt lat="43.5905933" lon="12.7472333"><ele>487.0</ele><time>2026-05-03T08:39:43.594Z</time></trkpt><trkpt lat="43.59071" lon="12.7472917"><ele>488.0</ele><time>2026-05-03T08:39:45.6Z</time></trkpt><trkpt lat="43.5907767" lon="12.7473017"><ele>489.00000000000006</ele><time>2026-05-03T08:39:46.599Z</time></trkpt><trkpt lat="43.59084" lon="12.7473083"><ele>490.0</ele><time>2026-05-03T08:39:47.603Z</time></trkpt><trkpt lat="43.5909467" lon="12.7473017"><ele>490.00000000000006</ele><time>2026-05-03T08:39:49.601Z</time></trkpt><trkpt lat="43.5910333" lon="12.747295"><ele>490.0</ele><time>2026-05-03T08:39:51.607Z</time></trkpt><trkpt lat="43.59113" lon="12.7472917"><ele>490.0</ele><time>2026-05-03T08:39:53.602Z</time></trkpt><trkpt lat="43.5912033" lon="12.7472867"><ele>490.0</ele><time>2026-05-03T08:39:55.61Z</time></trkpt><trkpt lat="43.5912667" lon="12.7472683"><ele>490.00000000000006</ele><time>2026-05-03T08:39:57.605Z</time></trkpt><trkpt lat="43.5913417" lon="12.7472267"><ele>490.0</ele><time>2026-05-03T08:39:59.597Z</time></trkpt><trkpt lat="43.591435" lon="12.7471267"><ele>490.6</ele><time>2026-05-03T08:40:01.595Z</time></trkpt><trkpt lat="43.59151" lon="12.747005"><ele>491.2</ele><time>2026-05-03T08:40:03.602Z</time></trkpt><trkpt lat="43.59155" lon="12.74688"><ele>491.79999999999995</ele><time>2026-05-03T08:40:05.606Z</time></trkpt><trkpt lat="43.5915433" lon="12.746765"><ele>492.4</ele><time>2026-05-03T08:40:07.601Z</time></trkpt><trkpt lat="43.5915117" lon="12.7466533"><ele>493.0</ele><time>2026-05-03T08:40:09.609Z</time></trkpt><trkpt lat="43.5914783" lon="12.7465617"><ele>493.00000000000006</ele><time>2026-05-03T08:40:10.609Z</time></trkpt><trkpt lat="43.5914383" lon="12.74646"><ele>493.0</ele><time>2026-05-03T08:40:11.607Z</time></trkpt><trkpt lat="43.5914" lon="12.7463717"><ele>493.0</ele><time>2026-05-03T08:40:12.606Z</time></trkpt><trkpt lat="43.5913433" lon="12.7462983"><ele>493.0</ele><time>2026-05-03T08:40:13.606Z</time></trkpt><trkpt lat="43.5912767" lon="12.746235"><ele>493.00000000000006</ele><time>2026-05-03T08:40:14.607Z</time></trkpt><trkpt lat="43.591215" lon="12.7461733"><ele>493.0</ele><time>2026-05-03T08:40:15.607Z</time></trkpt><trkpt lat="43.591155" lon="12.7460883"><ele>489.33333333333337</ele><time>2026-05-03T08:40:16.6Z</time></trkpt><trkpt lat="43.591105" lon="12.746005"><ele>485.6666666666667</ele><time>2026-05-03T08:40:17.602Z</time></trkpt><trkpt lat="43.5910733" lon="12.745915"><ele>482.0</ele><time>2026-05-03T08:40:18.603Z</time></trkpt><trkpt lat="43.5910483" lon="12.7458233"><ele>478.33333333333337</ele><time>2026-05-03T08:40:19.605Z</time></trkpt><trkpt lat="43.5910383" lon="12.745715"><ele>474.6666666666667</ele><time>2026-05-03T08:40:20.601Z</time></trkpt><trkpt lat="43.5910383" lon="12.7455883"><ele>471.0</ele><time>2026-05-03T08:40:21.607Z</time></trkpt><trkpt lat="43.5910483" lon="12.7454517"><ele>471.0</ele><time>2026-05-03T08:40:22.606Z</time></trkpt><trkpt lat="43.5910567" lon="12.7453217"><ele>471.0</ele><time>2026-05-03T08:40:23.605Z</time></trkpt><trkpt lat="43.5910567" lon="12.7451983"><ele>471.0</ele><time>2026-05-03T08:40:24.606Z</time></trkpt><trkpt lat="43.59105" lon="12.7450883"><ele>471.0</ele><time>2026-05-03T08:40:25.599Z</time></trkpt><trkpt lat="43.5910417" lon="12.7449833"><ele>471.0</ele><time>2026-05-03T08:40:26.611Z</time></trkpt><trkpt lat="43.5910433" lon="12.7448767"><ele>471.0</ele><time>2026-05-03T08:40:27.608Z</time></trkpt><trkpt lat="43.591065" lon="12.7447667"><ele>472.6666666666667</ele><time>2026-05-03T08:40:28.611Z</time></trkpt><trkpt lat="43.5911033" lon="12.7446533"><ele>474.33333333333337</ele><time>2026-05-03T08:40:29.605Z</time></trkpt><trkpt lat="43.5911417" lon="12.7445467"><ele>476.0</ele><time>2026-05-03T08:40:30.607Z</time></trkpt><trkpt lat="43.5911667" lon="12.7444517"><ele>477.6666666666667</ele><time>2026-05-03T08:40:31.598Z</time></trkpt><trkpt lat="43.5911833" lon="12.7443467"><ele>479.33333333333337</ele><time>2026-05-03T08:40:32.608Z</time></trkpt><trkpt lat="43.5911833" lon="12.7442433"><ele>481.0</ele><time>2026-05-03T08:40:33.6Z</time></trkpt><trkpt lat="43.591175" lon="12.7441417"><ele>481.71428571428567</ele><time>2026-05-03T08:40:34.607Z</time></trkpt><trkpt lat="43.5911633" lon="12.7440433"><ele>482.42857142857144</ele><time>2026-05-03T08:40:35.605Z</time></trkpt><trkpt lat="43.5911433" lon="12.7439433"><ele>483.1428571428571</ele><time>2026-05-03T08:40:36.606Z</time></trkpt><trkpt lat="43.59112" lon="12.7438433"><ele>483.85714285714283</ele><time>2026-05-03T08:40:37.602Z</time></trkpt><trkpt lat="43.5910933" lon="12.74375"><ele>484.57142857142856</ele><time>2026-05-03T08:40:38.595Z</time></trkpt><trkpt lat="43.5910683" lon="12.7436533"><ele>485.2857142857143</ele><time>2026-05-03T08:40:39.606Z</time></trkpt><trkpt lat="43.5910483" lon="12.74357"><ele>486.0</ele><time>2026-05-03T08:40:40.603Z</time></trkpt><trkpt lat="43.5910583" lon="12.7434467"><ele>487.4</ele><time>2026-05-03T08:40:42.602Z</time></trkpt><trkpt lat="43.5911117" lon="12.7433467"><ele>488.8</ele><time>2026-05-03T08:40:44.605Z</time></trkpt><trkpt lat="43.5912167" lon="12.74329"><ele>490.19999999999993</ele><time>2026-05-03T08:40:46.6Z</time></trkpt><trkpt lat="43.5913483" lon="12.74326"><ele>491.59999999999997</ele><time>2026-05-03T08:40:48.613Z</time></trkpt><trkpt lat="43.5914217" lon="12.7432433"><ele>493.0</ele><time>2026-05-03T08:40:49.605Z</time></trkpt><trkpt lat="43.5914917" lon="12.743225"><ele>494.50000000000006</ele><time>2026-05-03T08:40:50.608Z</time></trkpt><trkpt lat="43.5915683" lon="12.7431983"><ele>496.0</ele><time>2026-05-03T08:40:51.603Z</time></trkpt><trkpt lat="43.591655" lon="12.743165"><ele>497.5</ele><time>2026-05-03T08:40:52.603Z</time></trkpt><trkpt lat="43.5917367" lon="12.7431283"><ele>499.0</ele><time>2026-05-03T08:40:53.611Z</time></trkpt><trkpt lat="43.5918083" lon="12.7430833"><ele>500.50000000000006</ele><time>2026-05-03T08:40:54.605Z</time></trkpt><trkpt lat="43.5918783" lon="12.74303"><ele>502.0</ele><time>2026-05-03T08:40:55.606Z</time></trkpt><trkpt lat="43.591945" lon="12.74297"><ele>504.1666666666667</ele><time>2026-05-03T08:40:56.606Z</time></trkpt><trkpt lat="43.5920067" lon="12.7429083"><ele>506.33333333333337</ele><time>2026-05-03T08:40:57.607Z</time></trkpt><trkpt lat="43.5920667" lon="12.742845"><ele>508.5</ele><time>2026-05-03T08:40:58.615Z</time></trkpt><trkpt lat="43.5921283" lon="12.74278"><ele>510.66666666666663</ele><time>2026-05-03T08:40:59.604Z</time></trkpt><trkpt lat="43.5921983" lon="12.7427"><ele>512.8333333333333</ele><time>2026-05-03T08:41:00.608Z</time></trkpt><trkpt lat="43.59228" lon="12.7426017"><ele>515.0</ele><time>2026-05-03T08:41:01.606Z</time></trkpt><trkpt lat="43.5923667" lon="12.742505"><ele>515.0</ele><time>2026-05-03T08:41:02.599Z</time></trkpt><trkpt lat="43.5924467" lon="12.7424217"><ele>515.0</ele><time>2026-05-03T08:41:03.607Z</time></trkpt><trkpt lat="43.59253" lon="12.7423383"><ele>515.0</ele><time>2026-05-03T08:41:04.604Z</time></trkpt><trkpt lat="43.5926267" lon="12.7422383"><ele>515.0</ele><time>2026-05-03T08:41:05.604Z</time></trkpt><trkpt lat="43.5927283" lon="12.7421417"><ele>515.0</ele><time>2026-05-03T08:41:06.607Z</time></trkpt><trkpt lat="43.59282" lon="12.742055"><ele>515.5</ele><time>2026-05-03T08:41:07.613Z</time></trkpt><trkpt lat="43.5928967" lon="12.7419917"><ele>516.0</ele><time>2026-05-03T08:41:08.602Z</time></trkpt><trkpt lat="43.5929683" lon="12.741935"><ele>516.5</ele><time>2026-05-03T08:41:09.604Z</time></trkpt><trkpt lat="43.593045" lon="12.7418767"><ele>517.0</ele><time>2026-05-03T08:41:10.6Z</time></trkpt><trkpt lat="43.5931233" lon="12.7418167"><ele>517.5</ele><time>2026-05-03T08:41:11.601Z</time></trkpt><trkpt lat="43.5932033" lon="12.7417517"><ele>518.0</ele><time>2026-05-03T08:41:12.603Z</time></trkpt><trkpt lat="43.5932767" lon="12.7416817"><ele>518.0</ele><time>2026-05-03T08:41:13.608Z</time></trkpt><trkpt lat="43.5933483" lon="12.7415983"><ele>518.0</ele><time>2026-05-03T08:41:14.606Z</time></trkpt><trkpt lat="43.5934183" lon="12.7415083"><ele>518.0</ele><time>2026-05-03T08:41:15.603Z</time></trkpt><trkpt lat="43.5934833" lon="12.7414283"><ele>518.0</ele><time>2026-05-03T08:41:16.6Z</time></trkpt><trkpt lat="43.593545" lon="12.7413583"><ele>518.0</ele><time>2026-05-03T08:41:17.601Z</time></trkpt><trkpt lat="43.5936067" lon="12.7412967"><ele>518.0</ele><time>2026-05-03T08:41:18.608Z</time></trkpt><trkpt lat="43.593675" lon="12.7412517"><ele>520.0</ele><time>2026-05-03T08:41:19.605Z</time></trkpt><trkpt lat="43.5937483" lon="12.7412267"><ele>522.0</ele><time>2026-05-03T08:41:20.605Z</time></trkpt><trkpt lat="43.5938333" lon="12.74122"><ele>524.0</ele><time>2026-05-03T08:41:21.612Z</time></trkpt><trkpt lat="43.5939267" lon="12.7412233"><ele>526.0</ele><time>2026-05-03T08:41:22.602Z</time></trkpt><trkpt lat="43.5940183" lon="12.7412317"><ele>528.0</ele><time>2026-05-03T08:41:23.599Z</time></trkpt><trkpt lat="43.5941067" lon="12.74124"><ele>530.0</ele><time>2026-05-03T08:41:24.604Z</time></trkpt><trkpt lat="43.5941833" lon="12.741245"><ele>530.0</ele><time>2026-05-03T08:41:25.604Z</time></trkpt><trkpt lat="43.59425" lon="12.7412383"><ele>530.0</ele><time>2026-05-03T08:41:26.598Z</time></trkpt><trkpt lat="43.594355" lon="12.74117"><ele>530.0</ele><time>2026-05-03T08:41:28.601Z</time></trkpt><trkpt lat="43.5943967" lon="12.7410983"><ele>530.0</ele><time>2026-05-03T08:41:29.602Z</time></trkpt><trkpt lat="43.5944333" lon="12.74101"><ele>530.0</ele><time>2026-05-03T08:41:30.602Z</time></trkpt><trkpt lat="43.5944667" lon="12.74092"><ele>530.0</ele><time>2026-05-03T08:41:31.602Z</time></trkpt><trkpt lat="43.5944867" lon="12.7408283"><ele>527.3333333333333</ele><time>2026-05-03T08:41:32.604Z</time></trkpt><trkpt lat="43.5944983" lon="12.7407317"><ele>524.6666666666666</ele><time>2026-05-03T08:41:33.602Z</time></trkpt><trkpt lat="43.594495" lon="12.7406283"><ele>522.0</ele><time>2026-05-03T08:41:34.604Z</time></trkpt><trkpt lat="43.5944767" lon="12.740525"><ele>519.3333333333334</ele><time>2026-05-03T08:41:35.596Z</time></trkpt><trkpt lat="43.59445" lon="12.7404183"><ele>516.6666666666667</ele><time>2026-05-03T08:41:36.601Z</time></trkpt><trkpt lat="43.59441" lon="12.740325"><ele>514.0</ele><time>2026-05-03T08:41:37.602Z</time></trkpt><trkpt lat="43.59436" lon="12.740245"><ele>514.0</ele><time>2026-05-03T08:41:38.6Z</time></trkpt><trkpt lat="43.594315" lon="12.7401717"><ele>514.0</ele><time>2026-05-03T08:41:39.604Z</time></trkpt><trkpt lat="43.5942733" lon="12.7400967"><ele>514.0</ele><time>2026-05-03T08:41:40.598Z</time></trkpt><trkpt lat="43.5942433" lon="12.7400183"><ele>514.0</ele><time>2026-05-03T08:41:41.596Z</time></trkpt><trkpt lat="43.5942" lon="12.7398883"><ele>514.0</ele><time>2026-05-03T08:41:43.601Z</time></trkpt><trkpt lat="43.5941533" lon="12.7397467"><ele>514.0</ele><time>2026-05-03T08:41:45.602Z</time></trkpt><trkpt lat="43.5941217" lon="12.7396617"><ele>514.0</ele><time>2026-05-03T08:41:46.604Z</time></trkpt><trkpt lat="43.594085" lon="12.73958"><ele>514.0</ele><time>2026-05-03T08:41:47.603Z</time></trkpt><trkpt lat="43.5940433" lon="12.7395017"><ele>514.0</ele><time>2026-05-03T08:41:48.598Z</time></trkpt><trkpt lat="43.5939983" lon="12.73943"><ele>514.0</ele><time>2026-05-03T08:41:49.606Z</time></trkpt><trkpt lat="43.5939483" lon="12.73936"><ele>514.0</ele><time>2026-05-03T08:41:50.602Z</time></trkpt><trkpt lat="43.5938933" lon="12.7392933"><ele>514.0</ele><time>2026-05-03T08:41:51.6Z</time></trkpt><trkpt lat="43.5938367" lon="12.7392367"><ele>514.0</ele><time>2026-05-03T08:41:52.604Z</time></trkpt><trkpt lat="43.5937833" lon="12.7391817"><ele>514.5</ele><time>2026-05-03T08:41:53.6Z</time></trkpt><trkpt lat="43.59373" lon="12.7391283"><ele>515.0</ele><time>2026-05-03T08:41:54.596Z</time></trkpt><trkpt lat="43.5936483" lon="12.7390417"><ele>515.5</ele><time>2026-05-03T08:41:56.602Z</time></trkpt><trkpt lat="43.5935967" lon="12.7389533"><ele>516.0</ele><time>2026-05-03T08:41:59.599Z</time></trkpt><trkpt lat="43.5936033" lon="12.73883"><ele>516.5</ele><time>2026-05-03T08:42:22.598Z</time></trkpt><trkpt lat="43.5936617" lon="12.7387617"><ele>517.0</ele><time>2026-05-03T08:42:24.602Z</time></trkpt><trkpt lat="43.5937817" lon="12.7386667"><ele>517.0</ele><time>2026-05-03T08:42:26.601Z</time></trkpt><trkpt lat="43.5938617" lon="12.7385983"><ele>517.0</ele><time>2026-05-03T08:42:27.602Z</time></trkpt><trkpt lat="43.59394" lon="12.738525"><ele>517.0</ele><time>2026-05-03T08:42:28.606Z</time></trkpt><trkpt lat="43.5940017" lon="12.7384567"><ele>517.0</ele><time>2026-05-03T08:42:29.601Z</time></trkpt><trkpt lat="43.5940567" lon="12.7383733"><ele>517.0</ele><time>2026-05-03T08:42:30.603Z</time></trkpt><trkpt lat="43.5941167" lon="12.738275"><ele>517.0</ele><time>2026-05-03T08:42:31.595Z</time></trkpt><trkpt lat="43.5941733" lon="12.73817"><ele>517.6666666666667</ele><time>2026-05-03T08:42:32.608Z</time></trkpt><trkpt lat="43.5942267" lon="12.73808"><ele>518.3333333333334</ele><time>2026-05-03T08:42:33.596Z</time></trkpt><trkpt lat="43.594285" lon="12.7380083"><ele>519.0</ele><time>2026-05-03T08:42:34.603Z</time></trkpt><trkpt lat="43.594355" lon="12.7379467"><ele>519.6666666666666</ele><time>2026-05-03T08:42:35.606Z</time></trkpt><trkpt lat="43.594435" lon="12.7379017"><ele>520.3333333333333</ele><time>2026-05-03T08:42:36.599Z</time></trkpt><trkpt lat="43.594525" lon="12.7378633"><ele>521.0</ele><time>2026-05-03T08:42:37.615Z</time></trkpt><trkpt lat="43.5946133" lon="12.73783"><ele>521.0</ele><time>2026-05-03T08:42:38.605Z</time></trkpt><trkpt lat="43.5946883" lon="12.7378117"><ele>521.0</ele><time>2026-05-03T08:42:39.601Z</time></trkpt><trkpt lat="43.594755" lon="12.7378067"><ele>521.0</ele><time>2026-05-03T08:42:40.603Z</time></trkpt><trkpt lat="43.594825" lon="12.7378183"><ele>521.0</ele><time>2026-05-03T08:42:41.6Z</time></trkpt><trkpt lat="43.594895" lon="12.7378433"><ele>521.0</ele><time>2026-05-03T08:42:42.6Z</time></trkpt><trkpt lat="43.59496" lon="12.7378883"><ele>521.0</ele><time>2026-05-03T08:42:43.604Z</time></trkpt><trkpt lat="43.5950133" lon="12.7379533"><ele>521.0</ele><time>2026-05-03T08:42:44.602Z</time></trkpt><trkpt lat="43.595055" lon="12.73803"><ele>521.0</ele><time>2026-05-03T08:42:45.605Z</time></trkpt><trkpt lat="43.5950883" lon="12.73813"><ele>521.0</ele><time>2026-05-03T08:42:46.607Z</time></trkpt><trkpt lat="43.59512" lon="12.7382417"><ele>521.0</ele><time>2026-05-03T08:42:47.614Z</time></trkpt><trkpt lat="43.595155" lon="12.7383517"><ele>521.0</ele><time>2026-05-03T08:42:48.609Z</time></trkpt><trkpt lat="43.5951983" lon="12.7384667"><ele>521.0</ele><time>2026-05-03T08:42:49.602Z</time></trkpt><trkpt lat="43.595245" lon="12.738585"><ele>521.0</ele><time>2026-05-03T08:42:50.605Z</time></trkpt><trkpt lat="43.595305" lon="12.7386967"><ele>522.0</ele><time>2026-05-03T08:42:51.601Z</time></trkpt><trkpt lat="43.5953733" lon="12.7388183"><ele>523.0</ele><time>2026-05-03T08:42:52.602Z</time></trkpt><trkpt lat="43.5954383" lon="12.7389333"><ele>524.0</ele><time>2026-05-03T08:42:53.594Z</time></trkpt><trkpt lat="43.5954933" lon="12.73903"><ele>525.0</ele><time>2026-05-03T08:42:54.598Z</time></trkpt><trkpt lat="43.5955417" lon="12.7391133"><ele>526.0</ele><time>2026-05-03T08:42:55.6Z</time></trkpt><trkpt lat="43.595595" lon="12.73918"><ele>526.0</ele><time>2026-05-03T08:42:56.597Z</time></trkpt><trkpt lat="43.59566" lon="12.7392283"><ele>526.0</ele><time>2026-05-03T08:42:57.599Z</time></trkpt><trkpt lat="43.5957467" lon="12.739255"><ele>526.0</ele><time>2026-05-03T08:42:58.604Z</time></trkpt><trkpt lat="43.5958317" lon="12.7392783"><ele>526.0</ele><time>2026-05-03T08:42:59.605Z</time></trkpt><trkpt lat="43.5959133" lon="12.7393017"><ele>526.0</ele><time>2026-05-03T08:43:00.598Z</time></trkpt><trkpt lat="43.595985" lon="12.7393367"><ele>526.0</ele><time>2026-05-03T08:43:01.596Z</time></trkpt><trkpt lat="43.59605" lon="12.7393933"><ele>528.8333333333334</ele><time>2026-05-03T08:43:02.596Z</time></trkpt><trkpt lat="43.5960983" lon="12.7394733"><ele>531.6666666666667</ele><time>2026-05-03T08:43:03.605Z</time></trkpt><trkpt lat="43.59615" lon="12.7395633"><ele>534.5</ele><time>2026-05-03T08:43:04.611Z</time></trkpt><trkpt lat="43.5962033" lon="12.7396467"><ele>537.3333333333334</ele><time>2026-05-03T08:43:05.608Z</time></trkpt><trkpt lat="43.5962583" lon="12.7397067"><ele>540.1666666666666</ele><time>2026-05-03T08:43:06.604Z</time></trkpt><trkpt lat="43.59632" lon="12.7397483"><ele>543.0</ele><time>2026-05-03T08:43:07.603Z</time></trkpt><trkpt lat="43.59639" lon="12.73978"><ele>543.0</ele><time>2026-05-03T08:43:08.601Z</time></trkpt><trkpt lat="43.59646" lon="12.7398017"><ele>543.0</ele><time>2026-05-03T08:43:09.598Z</time></trkpt><trkpt lat="43.5965267" lon="12.7398033"><ele>543.0</ele><time>2026-05-03T08:43:10.605Z</time></trkpt><trkpt lat="43.5965917" lon="12.7397917"><ele>543.0</ele><time>2026-05-03T08:43:11.6Z</time></trkpt><trkpt lat="43.5966967" lon="12.73975"><ele>543.0</ele><time>2026-05-03T08:43:13.602Z</time></trkpt><trkpt lat="43.5967683" lon="12.7397283"><ele>543.0</ele><time>2026-05-03T08:43:15.595Z</time></trkpt><trkpt lat="43.5968667" lon="12.7396917"><ele>543.0</ele><time>2026-05-03T08:43:18.603Z</time></trkpt><trkpt lat="43.5969267" lon="12.7396483"><ele>543.0</ele><time>2026-05-03T08:43:19.597Z</time></trkpt><trkpt lat="43.5970133" lon="12.7395833"><ele>543.0</ele><time>2026-05-03T08:43:20.595Z</time></trkpt><trkpt lat="43.5971333" lon="12.739495"><ele>543.0</ele><time>2026-05-03T08:43:21.607Z</time></trkpt><trkpt lat="43.59726" lon="12.7393967"><ele>543.0</ele><time>2026-05-03T08:43:22.606Z</time></trkpt><trkpt lat="43.5973783" lon="12.7393033"><ele>542.6</ele><time>2026-05-03T08:43:23.609Z</time></trkpt><trkpt lat="43.5974767" lon="12.7392183"><ele>542.1999999999999</ele><time>2026-05-03T08:43:24.608Z</time></trkpt><trkpt lat="43.5975567" lon="12.7391367"><ele>541.8</ele><time>2026-05-03T08:43:25.609Z</time></trkpt><trkpt lat="43.5976233" lon="12.7390467"><ele>541.4</ele><time>2026-05-03T08:43:26.598Z</time></trkpt><trkpt lat="43.5976833" lon="12.73894"><ele>541.0</ele><time>2026-05-03T08:43:27.601Z</time></trkpt><trkpt lat="43.5977433" lon="12.738835"><ele>541.0</ele><time>2026-05-03T08:43:28.606Z</time></trkpt><trkpt lat="43.5978033" lon="12.7387467"><ele>541.0</ele><time>2026-05-03T08:43:29.606Z</time></trkpt><trkpt lat="43.5978667" lon="12.738665"><ele>541.0</ele><time>2026-05-03T08:43:30.603Z</time></trkpt><trkpt lat="43.5979383" lon="12.7386067"><ele>541.0</ele><time>2026-05-03T08:43:31.609Z</time></trkpt><trkpt lat="43.5980233" lon="12.7385617"><ele>541.0</ele><time>2026-05-03T08:43:32.604Z</time></trkpt><trkpt lat="43.5981283" lon="12.73852"><ele>540.5</ele><time>2026-05-03T08:43:33.6Z</time></trkpt><trkpt lat="43.5982483" lon="12.73848"><ele>540.0</ele><time>2026-05-03T08:43:34.604Z</time></trkpt><trkpt lat="43.5983667" lon="12.7384383"><ele>539.5</ele><time>2026-05-03T08:43:35.6Z</time></trkpt><trkpt lat="43.5984833" lon="12.7383833"><ele>539.0</ele><time>2026-05-03T08:43:36.606Z</time></trkpt><trkpt lat="43.5986" lon="12.7383083"><ele>543.25</ele><time>2026-05-03T08:43:37.604Z</time></trkpt><trkpt lat="43.5987267" lon="12.7382267"><ele>547.5</ele><time>2026-05-03T08:43:38.603Z</time></trkpt><trkpt lat="43.59886" lon="12.7381467"><ele>551.75</ele><time>2026-05-03T08:43:39.605Z</time></trkpt><trkpt lat="43.5989967" lon="12.7380717"><ele>556.0</ele><time>2026-05-03T08:43:40.604Z</time></trkpt><trkpt lat="43.5991333" lon="12.7380033"><ele>556.0</ele><time>2026-05-03T08:43:41.606Z</time></trkpt><trkpt lat="43.59928" lon="12.7379283"><ele>556.0</ele><time>2026-05-03T08:43:42.604Z</time></trkpt><trkpt lat="43.599415" lon="12.7378517"><ele>556.0</ele><time>2026-05-03T08:43:43.594Z</time></trkpt><trkpt lat="43.5995383" lon="12.73778"><ele>556.0</ele><time>2026-05-03T08:43:44.601Z</time></trkpt><trkpt lat="43.5996567" lon="12.7377133"><ele>555.0</ele><time>2026-05-03T08:43:45.598Z</time></trkpt><trkpt lat="43.5997633" lon="12.737655"><ele>554.0</ele><time>2026-05-03T08:43:46.599Z</time></trkpt><trkpt lat="43.59986" lon="12.737605"><ele>553.0</ele><time>2026-05-03T08:43:47.601Z</time></trkpt><trkpt lat="43.59995" lon="12.73754"><ele>552.0</ele><time>2026-05-03T08:43:48.6Z</time></trkpt><trkpt lat="43.6000367" lon="12.7374517"><ele>551.0</ele><time>2026-05-03T08:43:49.604Z</time></trkpt><trkpt lat="43.6001233" lon="12.7373467"><ele>551.0</ele><time>2026-05-03T08:43:50.602Z</time></trkpt><trkpt lat="43.60021" lon="12.7372233"><ele>551.0</ele><time>2026-05-03T08:43:51.605Z</time></trkpt><trkpt lat="43.6002967" lon="12.737075"><ele>551.0</ele><time>2026-05-03T08:43:52.603Z</time></trkpt><trkpt lat="43.6003833" lon="12.736925"><ele>551.0</ele><time>2026-05-03T08:43:53.614Z</time></trkpt><trkpt lat="43.6004717" lon="12.7367983"><ele>552.75</ele><time>2026-05-03T08:43:54.597Z</time></trkpt><trkpt lat="43.6005583" lon="12.7366833"><ele>554.5</ele><time>2026-05-03T08:43:55.605Z</time></trkpt><trkpt lat="43.600635" lon="12.736565"><ele>556.25</ele><time>2026-05-03T08:43:56.604Z</time></trkpt><trkpt lat="43.600705" lon="12.7364233"><ele>558.0</ele><time>2026-05-03T08:43:57.601Z</time></trkpt><trkpt lat="43.6007733" lon="12.736255"><ele>558.0</ele><time>2026-05-03T08:43:58.604Z</time></trkpt><trkpt lat="43.6008367" lon="12.7360833"><ele>558.0</ele><time>2026-05-03T08:43:59.601Z</time></trkpt><trkpt lat="43.6008983" lon="12.7359283"><ele>558.0</ele><time>2026-05-03T08:44:00.606Z</time></trkpt><trkpt lat="43.6009483" lon="12.7357883"><ele>558.0</ele><time>2026-05-03T08:44:01.608Z</time></trkpt><trkpt lat="43.6009933" lon="12.7356483"><ele>560.0</ele><time>2026-05-03T08:44:02.604Z</time></trkpt><trkpt lat="43.601035" lon="12.7354917"><ele>562.0</ele><time>2026-05-03T08:44:03.605Z</time></trkpt><trkpt lat="43.6010733" lon="12.7353367"><ele>564.0</ele><time>2026-05-03T08:44:04.605Z</time></trkpt><trkpt lat="43.60112" lon="12.735195"><ele>566.0</ele><time>2026-05-03T08:44:05.605Z</time></trkpt><trkpt lat="43.6011783" lon="12.7350467"><ele>566.0</ele><time>2026-05-03T08:44:06.607Z</time></trkpt><trkpt lat="43.6012467" lon="12.7349083"><ele>566.0</ele><time>2026-05-03T08:44:07.604Z</time></trkpt><trkpt lat="43.6013067" lon="12.7347917"><ele>566.0</ele><time>2026-05-03T08:44:08.596Z</time></trkpt><trkpt lat="43.6013667" lon="12.7347017"><ele>566.0</ele><time>2026-05-03T08:44:09.602Z</time></trkpt><trkpt lat="43.601435" lon="12.7346217"><ele>566.0</ele><time>2026-05-03T08:44:10.609Z</time></trkpt><trkpt lat="43.6015183" lon="12.734555"><ele>566.0</ele><time>2026-05-03T08:44:11.595Z</time></trkpt><trkpt lat="43.6016183" lon="12.73451"><ele>566.0</ele><time>2026-05-03T08:44:12.614Z</time></trkpt><trkpt lat="43.60172" lon="12.734475"><ele>566.0</ele><time>2026-05-03T08:44:13.605Z</time></trkpt><trkpt lat="43.601825" lon="12.7344433"><ele>566.0</ele><time>2026-05-03T08:44:14.602Z</time></trkpt><trkpt lat="43.601935" lon="12.7344017"><ele>566.0</ele><time>2026-05-03T08:44:15.604Z</time></trkpt><trkpt lat="43.6020367" lon="12.7343467"><ele>566.4</ele><time>2026-05-03T08:44:16.602Z</time></trkpt><trkpt lat="43.6021283" lon="12.734275"><ele>566.8</ele><time>2026-05-03T08:44:17.606Z</time></trkpt><trkpt lat="43.602215" lon="12.73419"><ele>567.1999999999999</ele><time>2026-05-03T08:44:18.609Z</time></trkpt><trkpt lat="43.6022967" lon="12.7340883"><ele>567.6</ele><time>2026-05-03T08:44:19.598Z</time></trkpt><trkpt lat="43.60238" lon="12.73397"><ele>568.0</ele><time>2026-05-03T08:44:20.607Z</time></trkpt><trkpt lat="43.6024567" lon="12.7338583"><ele>568.0</ele><time>2026-05-03T08:44:21.609Z</time></trkpt><trkpt lat="43.60252" lon="12.7337733"><ele>568.0</ele><time>2026-05-03T08:44:22.604Z</time></trkpt><trkpt lat="43.6025783" lon="12.7337133"><ele>568.0</ele><time>2026-05-03T08:44:23.609Z</time></trkpt><trkpt lat="43.60264" lon="12.7336733"><ele>568.0</ele><time>2026-05-03T08:44:24.604Z</time></trkpt><trkpt lat="43.6027033" lon="12.7336633"><ele>568.0</ele><time>2026-05-03T08:44:25.603Z</time></trkpt><trkpt lat="43.602785" lon="12.7336883"><ele>568.0</ele><time>2026-05-03T08:44:27.599Z</time></trkpt><trkpt lat="43.6028733" lon="12.7337683"><ele>566.1666666666667</ele><time>2026-05-03T08:45:10.6Z</time></trkpt><trkpt lat="43.6029317" lon="12.7338383"><ele>564.3333333333334</ele><time>2026-05-03T08:45:11.605Z</time></trkpt><trkpt lat="43.602985" lon="12.7339067"><ele>562.5</ele><time>2026-05-03T08:45:12.603Z</time></trkpt><trkpt lat="43.6030333" lon="12.73397"><ele>560.6666666666666</ele><time>2026-05-03T08:45:13.601Z</time></trkpt><trkpt lat="43.60308" lon="12.7340383"><ele>558.8333333333333</ele><time>2026-05-03T08:45:14.612Z</time></trkpt><trkpt lat="43.6031233" lon="12.7341033"><ele>557.0</ele><time>2026-05-03T08:45:15.603Z</time></trkpt><trkpt lat="43.6031933" lon="12.734215"><ele>557.0</ele><time>2026-05-03T08:45:17.606Z</time></trkpt><trkpt lat="43.60324" lon="12.73432"><ele>557.0</ele><time>2026-05-03T08:45:19.605Z</time></trkpt><trkpt lat="43.60326" lon="12.73442"><ele>557.0</ele><time>2026-05-03T08:45:21.605Z</time></trkpt><trkpt lat="43.60326" lon="12.7345183"><ele>557.0</ele><time>2026-05-03T08:45:23.6Z</time></trkpt><trkpt lat="43.6032433" lon="12.7346083"><ele>557.0</ele><time>2026-05-03T08:45:25.603Z</time></trkpt><trkpt lat="43.6032217" lon="12.73469"><ele>557.0</ele><time>2026-05-03T08:45:27.599Z</time></trkpt><trkpt lat="43.60319" lon="12.7347867"><ele>557.0</ele><time>2026-05-03T08:46:01.604Z</time></trkpt><trkpt lat="43.6031667" lon="12.7348833"><ele>556.0</ele><time>2026-05-03T08:46:04.604Z</time></trkpt><trkpt lat="43.6031433" lon="12.7349767"><ele>555.0</ele><time>2026-05-03T08:46:06.606Z</time></trkpt><trkpt lat="43.603115" lon="12.7350767"><ele>554.0</ele><time>2026-05-03T08:46:08.606Z</time></trkpt><trkpt lat="43.603085" lon="12.7352"><ele>553.0</ele><time>2026-05-03T08:46:10.604Z</time></trkpt><trkpt lat="43.6030617" lon="12.735305"><ele>552.0</ele><time>2026-05-03T08:46:12.603Z</time></trkpt><trkpt lat="43.6030233" lon="12.7354733"><ele>550.2</ele><time>2026-05-03T08:46:14.61Z</time></trkpt><trkpt lat="43.6029967" lon="12.7356017"><ele>548.4000000000001</ele><time>2026-05-03T08:46:15.612Z</time></trkpt><trkpt lat="43.6029633" lon="12.7357733"><ele>546.5999999999999</ele><time>2026-05-03T08:46:16.606Z</time></trkpt><trkpt lat="43.6029367" lon="12.73592"><ele>544.8</ele><time>2026-05-03T08:46:17.609Z</time></trkpt><trkpt lat="43.60291" lon="12.7360483"><ele>543.0</ele><time>2026-05-03T08:46:18.608Z</time></trkpt><trkpt lat="43.60288" lon="12.7361783"><ele>540.1999999999999</ele><time>2026-05-03T08:46:19.608Z</time></trkpt><trkpt lat="43.6028367" lon="12.7363083"><ele>537.4</ele><time>2026-05-03T08:46:20.602Z</time></trkpt><trkpt lat="43.602795" lon="12.7364267"><ele>534.5999999999999</ele><time>2026-05-03T08:46:21.61Z</time></trkpt><trkpt lat="43.6027517" lon="12.736545"><ele>531.8</ele><time>2026-05-03T08:46:22.606Z</time></trkpt><trkpt lat="43.6027083" lon="12.7366533"><ele>529.0</ele><time>2026-05-03T08:46:23.609Z</time></trkpt><trkpt lat="43.6026683" lon="12.736745"><ele>530.1666666666667</ele><time>2026-05-03T08:46:24.604Z</time></trkpt><trkpt lat="43.60262" lon="12.7368217"><ele>531.3333333333334</ele><time>2026-05-03T08:46:25.607Z</time></trkpt><trkpt lat="43.6025683" lon="12.7368767"><ele>532.5</ele><time>2026-05-03T08:46:26.601Z</time></trkpt><trkpt lat="43.6024867" lon="12.736965"><ele>533.6666666666666</ele><time>2026-05-03T08:46:28.599Z</time></trkpt><trkpt lat="43.6024767" lon="12.7370817"><ele>534.8333333333333</ele><time>2026-05-03T08:46:30.594Z</time></trkpt><trkpt lat="43.6025183" lon="12.7371667"><ele>536.0</ele><time>2026-05-03T08:46:32.602Z</time></trkpt><trkpt lat="43.602585" lon="12.7371583"><ele>536.0</ele><time>2026-05-03T08:46:34.602Z</time></trkpt><trkpt lat="43.6026367" lon="12.7370883"><ele>536.0</ele><time>2026-05-03T08:46:36.602Z</time></trkpt><trkpt lat="43.602685" lon="12.7369917"><ele>536.0</ele><time>2026-05-03T08:46:38.609Z</time></trkpt><trkpt lat="43.602735" lon="12.7368833"><ele>536.0</ele><time>2026-05-03T08:46:40.597Z</time></trkpt><trkpt lat="43.6027917" lon="12.7367667"><ele>536.0</ele><time>2026-05-03T08:46:42.608Z</time></trkpt><trkpt lat="43.6028633" lon="12.7366367"><ele>534.25</ele><time>2026-05-03T08:46:44.618Z</time></trkpt><trkpt lat="43.6029583" lon="12.7365317"><ele>532.5</ele><time>2026-05-03T08:46:46.604Z</time></trkpt><trkpt lat="43.6030667" lon="12.7364683"><ele>530.75</ele><time>2026-05-03T08:46:48.61Z</time></trkpt><trkpt lat="43.6031683" lon="12.7363883"><ele>529.0</ele><time>2026-05-03T08:46:50.602Z</time></trkpt><trkpt lat="43.60325" lon="12.7362717"><ele>529.0</ele><time>2026-05-03T08:46:52.607Z</time></trkpt><trkpt lat="43.603315" lon="12.736135"><ele>529.0</ele><time>2026-05-03T08:46:54.605Z</time></trkpt><trkpt lat="43.60337" lon="12.7359867"><ele>529.0</ele><time>2026-05-03T08:46:56.608Z</time></trkpt><trkpt lat="43.6034233" lon="12.73583"><ele>529.0</ele><time>2026-05-03T08:46:58.604Z</time></trkpt><trkpt lat="43.6034783" lon="12.7356833"><ele>527.0</ele><time>2026-05-03T08:47:00.605Z</time></trkpt><trkpt lat="43.6035367" lon="12.73554"><ele>525.0</ele><time>2026-05-03T08:47:02.613Z</time></trkpt><trkpt lat="43.6035967" lon="12.7354133"><ele>523.0</ele><time>2026-05-03T08:47:04.609Z</time></trkpt><trkpt lat="43.6036817" lon="12.735295"><ele>521.0</ele><time>2026-05-03T08:47:06.606Z</time></trkpt><trkpt lat="43.6037717" lon="12.73519"><ele>521.0</ele><time>2026-05-03T08:47:08.595Z</time></trkpt><trkpt lat="43.6038583" lon="12.7350683"><ele>521.0</ele><time>2026-05-03T08:47:10.606Z</time></trkpt><trkpt lat="43.6039133" lon="12.7349167"><ele>521.0</ele><time>2026-05-03T08:47:12.608Z</time></trkpt><trkpt lat="43.6039317" lon="12.734825"><ele>521.0</ele><time>2026-05-03T08:47:13.597Z</time></trkpt><trkpt lat="43.6039483" lon="12.7347317"><ele>521.0</ele><time>2026-05-03T08:47:14.605Z</time></trkpt><trkpt lat="43.6039717" lon="12.73464"><ele>521.0</ele><time>2026-05-03T08:47:15.6Z</time></trkpt><trkpt lat="43.6040083" lon="12.7345617"><ele>521.0</ele><time>2026-05-03T08:47:16.603Z</time></trkpt><trkpt lat="43.60411" lon="12.7344667"><ele>521.0</ele><time>2026-05-03T08:47:18.604Z</time></trkpt><trkpt lat="43.6041767" lon="12.7344333"><ele>521.0</ele><time>2026-05-03T08:47:19.608Z</time></trkpt><trkpt lat="43.6042433" lon="12.7344083"><ele>521.0</ele><time>2026-05-03T08:47:20.609Z</time></trkpt><trkpt lat="43.6043117" lon="12.7344"><ele>521.0</ele><time>2026-05-03T08:47:21.606Z</time></trkpt><trkpt lat="43.6043783" lon="12.7344083"><ele>521.0</ele><time>2026-05-03T08:47:22.607Z</time></trkpt><trkpt lat="43.604445" lon="12.734425"><ele>521.0</ele><time>2026-05-03T08:47:23.609Z</time></trkpt><trkpt lat="43.6045117" lon="12.734455"><ele>521.0</ele><time>2026-05-03T08:47:24.606Z</time></trkpt><trkpt lat="43.60458" lon="12.7344767"><ele>521.0</ele><time>2026-05-03T08:47:25.61Z</time></trkpt><trkpt lat="43.60465" lon="12.7344817"><ele>521.0</ele><time>2026-05-03T08:47:26.607Z</time></trkpt><trkpt lat="43.60472" lon="12.7344783"><ele>521.0</ele><time>2026-05-03T08:47:27.61Z</time></trkpt><trkpt lat="43.60479" lon="12.7344717"><ele>521.0</ele><time>2026-05-03T08:47:28.6Z</time></trkpt><trkpt lat="43.60486" lon="12.734455"><ele>521.8571428571429</ele><time>2026-05-03T08:47:29.608Z</time></trkpt><trkpt lat="43.6049333" lon="12.7344367"><ele>522.7142857142858</ele><time>2026-05-03T08:47:30.599Z</time></trkpt><trkpt lat="43.6050067" lon="12.7344133"><ele>523.5714285714287</ele><time>2026-05-03T08:47:31.603Z</time></trkpt><trkpt lat="43.6050767" lon="12.7343817"><ele>524.4285714285714</ele><time>2026-05-03T08:47:32.606Z</time></trkpt><trkpt lat="43.6051467" lon="12.7343433"><ele>525.2857142857143</ele><time>2026-05-03T08:47:33.601Z</time></trkpt><trkpt lat="43.6052167" lon="12.7342983"><ele>526.1428571428572</ele><time>2026-05-03T08:47:34.608Z</time></trkpt><trkpt lat="43.60528" lon="12.734255"><ele>527.0</ele><time>2026-05-03T08:47:35.604Z</time></trkpt><trkpt lat="43.6053383" lon="12.734205"><ele>523.7142857142858</ele><time>2026-05-03T08:47:36.611Z</time></trkpt><trkpt lat="43.6053983" lon="12.734145"><ele>520.4285714285714</ele><time>2026-05-03T08:47:37.602Z</time></trkpt><trkpt lat="43.60545" lon="12.7340717"><ele>517.1428571428571</ele><time>2026-05-03T08:47:38.606Z</time></trkpt><trkpt lat="43.6055" lon="12.733995"><ele>513.8571428571429</ele><time>2026-05-03T08:47:39.609Z</time></trkpt><trkpt lat="43.605545" lon="12.73391"><ele>510.57142857142856</ele><time>2026-05-03T08:47:40.604Z</time></trkpt><trkpt lat="43.605595" lon="12.733835"><ele>507.2857142857143</ele><time>2026-05-03T08:47:41.601Z</time></trkpt><trkpt lat="43.6056467" lon="12.7337733"><ele>504.0</ele><time>2026-05-03T08:47:42.608Z</time></trkpt><trkpt lat="43.6057083" lon="12.7337233"><ele>504.0</ele><time>2026-05-03T08:47:43.609Z</time></trkpt><trkpt lat="43.60578" lon="12.7336833"><ele>504.0</ele><time>2026-05-03T08:47:44.611Z</time></trkpt><trkpt lat="43.6058583" lon="12.733655"><ele>504.0</ele><time>2026-05-03T08:47:45.6Z</time></trkpt><trkpt lat="43.6059317" lon="12.7336417"><ele>504.0</ele><time>2026-05-03T08:47:46.611Z</time></trkpt><trkpt lat="43.606015" lon="12.733635"><ele>504.0</ele><time>2026-05-03T08:47:47.595Z</time></trkpt><trkpt lat="43.6060983" lon="12.73363"><ele>504.0</ele><time>2026-05-03T08:47:48.605Z</time></trkpt><trkpt lat="43.6061817" lon="12.7336217"><ele>502.5</ele><time>2026-05-03T08:47:49.606Z</time></trkpt><trkpt lat="43.60625" lon="12.7336233"><ele>501.0</ele><time>2026-05-03T08:47:50.607Z</time></trkpt><trkpt lat="43.6063167" lon="12.733625"><ele>499.5</ele><time>2026-05-03T08:47:51.604Z</time></trkpt><trkpt lat="43.606385" lon="12.7336383"><ele>498.0</ele><time>2026-05-03T08:47:52.6Z</time></trkpt><trkpt lat="43.6065" lon="12.7336683"><ele>496.5</ele><time>2026-05-03T08:47:54.6Z</time></trkpt><trkpt lat="43.606595" lon="12.7336817"><ele>495.0</ele><time>2026-05-03T08:47:56.603Z</time></trkpt><trkpt lat="43.6066667" lon="12.7336917"><ele>495.0</ele><time>2026-05-03T08:47:58.602Z</time></trkpt><trkpt lat="43.6067383" lon="12.7337"><ele>495.0</ele><time>2026-05-03T08:48:01.608Z</time></trkpt><trkpt lat="43.6066667" lon="12.7336283"><ele>495.0</ele><time>2026-05-03T08:49:17.607Z</time></trkpt><trkpt lat="43.6065683" lon="12.733615"><ele>495.0</ele><time>2026-05-03T08:49:19.605Z</time></trkpt><trkpt lat="43.6064783" lon="12.733615"><ele>495.0</ele><time>2026-05-03T08:49:21.606Z</time></trkpt><trkpt lat="43.6063883" lon="12.733605"><ele>495.0</ele><time>2026-05-03T08:50:05.603Z</time></trkpt><trkpt lat="43.606255" lon="12.7336033"><ele>495.0</ele><time>2026-05-03T08:50:07.605Z</time></trkpt><trkpt lat="43.6061783" lon="12.7336083"><ele>495.0</ele><time>2026-05-03T08:50:08.605Z</time></trkpt><trkpt lat="43.6061" lon="12.7336017"><ele>495.0</ele><time>2026-05-03T08:50:09.611Z</time></trkpt><trkpt lat="43.6060167" lon="12.7335967"><ele>495.0</ele><time>2026-05-03T08:50:10.604Z</time></trkpt><trkpt lat="43.605935" lon="12.7335933"><ele>495.0</ele><time>2026-05-03T08:50:11.603Z</time></trkpt><trkpt lat="43.6058533" lon="12.73361"><ele>495.0</ele><time>2026-05-03T08:50:12.601Z</time></trkpt><trkpt lat="43.6057817" lon="12.7336383"><ele>496.5</ele><time>2026-05-03T08:50:13.597Z</time></trkpt><trkpt lat="43.6057117" lon="12.7336817"><ele>498.0</ele><time>2026-05-03T08:50:14.608Z</time></trkpt><trkpt lat="43.6056433" lon="12.7337483"><ele>499.5</ele><time>2026-05-03T08:50:15.604Z</time></trkpt><trkpt lat="43.6055767" lon="12.73384"><ele>501.0</ele><time>2026-05-03T08:50:16.604Z</time></trkpt><trkpt lat="43.6055183" lon="12.73394"><ele>502.5</ele><time>2026-05-03T08:50:17.607Z</time></trkpt><trkpt lat="43.6054633" lon="12.734035"><ele>504.0</ele><time>2026-05-03T08:50:18.596Z</time></trkpt><trkpt lat="43.605405" lon="12.7341217"><ele>504.6</ele><time>2026-05-03T08:50:19.605Z</time></trkpt><trkpt lat="43.6053283" lon="12.73419"><ele>505.2</ele><time>2026-05-03T08:50:20.603Z</time></trkpt><trkpt lat="43.6052467" lon="12.7342583"><ele>505.80000000000007</ele><time>2026-05-03T08:50:21.602Z</time></trkpt><trkpt lat="43.6051583" lon="12.734315"><ele>506.40000000000003</ele><time>2026-05-03T08:50:22.605Z</time></trkpt><trkpt lat="43.6050633" lon="12.73436"><ele>507.0</ele><time>2026-05-03T08:50:23.608Z</time></trkpt><trkpt lat="43.604965" lon="12.734395"><ele>507.0</ele><time>2026-05-03T08:50:24.607Z</time></trkpt><trkpt lat="43.604875" lon="12.7344217"><ele>507.0</ele><time>2026-05-03T08:50:25.601Z</time></trkpt><trkpt lat="43.6048" lon="12.7344417"><ele>507.0</ele><time>2026-05-03T08:50:26.611Z</time></trkpt><trkpt lat="43.6047183" lon="12.7344467"><ele>507.0</ele><time>2026-05-03T08:50:27.6Z</time></trkpt><trkpt lat="43.6046333" lon="12.734435"><ele>507.0</ele><time>2026-05-03T08:50:28.594Z</time></trkpt><trkpt lat="43.60455" lon="12.7344"><ele>507.0</ele><time>2026-05-03T08:50:29.603Z</time></trkpt><trkpt lat="43.604475" lon="12.7343683"><ele>509.3333333333333</ele><time>2026-05-03T08:50:30.601Z</time></trkpt><trkpt lat="43.6044083" lon="12.7343517"><ele>511.66666666666663</ele><time>2026-05-03T08:50:31.614Z</time></trkpt><trkpt lat="43.6043383" lon="12.7343583"><ele>514.0</ele><time>2026-05-03T08:50:32.607Z</time></trkpt><trkpt lat="43.6042633" lon="12.73438"><ele>516.3333333333333</ele><time>2026-05-03T08:50:33.608Z</time></trkpt><trkpt lat="43.604195" lon="12.7344"><ele>518.6666666666666</ele><time>2026-05-03T08:50:34.608Z</time></trkpt><trkpt lat="43.60408" lon="12.7344733"><ele>521.0</ele><time>2026-05-03T08:50:36.607Z</time></trkpt><trkpt lat="43.604015" lon="12.734605"><ele>521.0</ele><time>2026-05-03T08:50:38.609Z</time></trkpt><trkpt lat="43.603995" lon="12.73478"><ele>521.0</ele><time>2026-05-03T08:50:40.605Z</time></trkpt><trkpt lat="43.6039767" lon="12.7348933"><ele>521.0</ele><time>2026-05-03T08:50:41.604Z</time></trkpt><trkpt lat="43.6039433" lon="12.734995"><ele>521.0</ele><time>2026-05-03T08:50:42.607Z</time></trkpt><trkpt lat="43.6039" lon="12.7350583"><ele>521.0</ele><time>2026-05-03T08:50:43.603Z</time></trkpt><trkpt lat="43.6038433" lon="12.7351167"><ele>521.0</ele><time>2026-05-03T08:50:44.603Z</time></trkpt><trkpt lat="43.60378" lon="12.7351833"><ele>519.0</ele><time>2026-05-03T08:50:45.605Z</time></trkpt><trkpt lat="43.6037167" lon="12.7352633"><ele>517.0</ele><time>2026-05-03T08:50:46.604Z</time></trkpt><trkpt lat="43.6036483" lon="12.73541"><ele>515.0</ele><time>2026-05-03T08:50:48.603Z</time></trkpt><trkpt lat="43.603615" lon="12.7355017"><ele>513.0</ele><time>2026-05-03T08:50:49.608Z</time></trkpt><trkpt lat="43.6035767" lon="12.7355983"><ele>511.0</ele><time>2026-05-03T08:50:50.607Z</time></trkpt><trkpt lat="43.6035333" lon="12.7357117"><ele>514.0</ele><time>2026-05-03T08:50:51.609Z</time></trkpt><trkpt lat="43.60349" lon="12.7358283"><ele>517.0</ele><time>2026-05-03T08:50:52.612Z</time></trkpt><trkpt lat="43.6034583" lon="12.7359267"><ele>520.0</ele><time>2026-05-03T08:50:53.596Z</time></trkpt><trkpt lat="43.6034133" lon="12.7360283"><ele>523.0</ele><time>2026-05-03T08:50:54.607Z</time></trkpt><trkpt lat="43.6033667" lon="12.7361267"><ele>526.0</ele><time>2026-05-03T08:50:55.604Z</time></trkpt><trkpt lat="43.6033167" lon="12.7362267"><ele>529.0</ele><time>2026-05-03T08:50:56.607Z</time></trkpt><trkpt lat="43.6032517" lon="12.7363133"><ele>529.0</ele><time>2026-05-03T08:50:57.605Z</time></trkpt><trkpt lat="43.6031833" lon="12.736365"><ele>529.0</ele><time>2026-05-03T08:50:58.602Z</time></trkpt><trkpt lat="43.6031017" lon="12.73641"><ele>529.0</ele><time>2026-05-03T08:50:59.594Z</time></trkpt><trkpt lat="43.603015" lon="12.7364617"><ele>529.0</ele><time>2026-05-03T08:51:00.611Z</time></trkpt><trkpt lat="43.602955" lon="12.7365267"><ele>529.0</ele><time>2026-05-03T08:51:01.609Z</time></trkpt><trkpt lat="43.602905" lon="12.736605"><ele>529.0</ele><time>2026-05-03T08:51:02.599Z</time></trkpt><trkpt lat="43.6028633" lon="12.7366933"><ele>530.1666666666667</ele><time>2026-05-03T08:51:03.598Z</time></trkpt><trkpt lat="43.60282" lon="12.7367983"><ele>531.3333333333334</ele><time>2026-05-03T08:51:04.611Z</time></trkpt><trkpt lat="43.60277" lon="12.7369033"><ele>532.5</ele><time>2026-05-03T08:51:05.608Z</time></trkpt><trkpt lat="43.6027283" lon="12.7369833"><ele>533.6666666666666</ele><time>2026-05-03T08:51:06.607Z</time></trkpt><trkpt lat="43.602665" lon="12.7370983"><ele>534.8333333333333</ele><time>2026-05-03T08:51:08.601Z</time></trkpt><trkpt lat="43.60259" lon="12.737135"><ele>536.0</ele><time>2026-05-03T08:51:10.607Z</time></trkpt><trkpt lat="43.60252" lon="12.73709"><ele>536.0</ele><time>2026-05-03T08:51:12.598Z</time></trkpt><trkpt lat="43.6025133" lon="12.7369633"><ele>536.0</ele><time>2026-05-03T08:51:15.604Z</time></trkpt><trkpt lat="43.6025717" lon="12.73688"><ele>536.0</ele><time>2026-05-03T08:51:17.599Z</time></trkpt><trkpt lat="43.6026217" lon="12.736825"><ele>536.0</ele><time>2026-05-03T08:51:18.613Z</time></trkpt><trkpt lat="43.60266" lon="12.736755"><ele>536.0</ele><time>2026-05-03T08:51:19.607Z</time></trkpt><trkpt lat="43.6026867" lon="12.7366567"><ele>536.0</ele><time>2026-05-03T08:51:20.609Z</time></trkpt><trkpt lat="43.6027283" lon="12.7365483"><ele>534.6</ele><time>2026-05-03T08:51:21.607Z</time></trkpt><trkpt lat="43.6027833" lon="12.73642"><ele>533.2</ele><time>2026-05-03T08:51:22.6Z</time></trkpt><trkpt lat="43.60283" lon="12.736295"><ele>531.8</ele><time>2026-05-03T08:51:23.608Z</time></trkpt><trkpt lat="43.6028617" lon="12.7361717"><ele>530.4</ele><time>2026-05-03T08:51:24.606Z</time></trkpt><trkpt lat="43.6028883" lon="12.7360417"><ele>529.0</ele><time>2026-05-03T08:51:25.606Z</time></trkpt><trkpt lat="43.6029183" lon="12.7358933"><ele>531.8</ele><time>2026-05-03T08:51:26.61Z</time></trkpt><trkpt lat="43.6029467" lon="12.7357383"><ele>534.5999999999999</ele><time>2026-05-03T08:51:27.612Z</time></trkpt><trkpt lat="43.6029767" lon="12.735605"><ele>537.4</ele><time>2026-05-03T08:51:28.609Z</time></trkpt><trkpt lat="43.603005" lon="12.7354667"><ele>540.1999999999999</ele><time>2026-05-03T08:51:29.609Z</time></trkpt><trkpt lat="43.60304" lon="12.7353333"><ele>543.0</ele><time>2026-05-03T08:51:30.605Z</time></trkpt><trkpt lat="43.6030783" lon="12.7352033"><ele>544.8</ele><time>2026-05-03T08:51:31.617Z</time></trkpt><trkpt lat="43.603125" lon="12.7350567"><ele>546.5999999999999</ele><time>2026-05-03T08:51:32.607Z</time></trkpt><trkpt lat="43.60317" lon="12.7349267"><ele>548.4000000000001</ele><time>2026-05-03T08:51:33.606Z</time></trkpt><trkpt lat="43.6032133" lon="12.73481"><ele>550.2</ele><time>2026-05-03T08:51:34.608Z</time></trkpt><trkpt lat="43.60325" lon="12.734705"><ele>552.0</ele><time>2026-05-03T08:51:35.603Z</time></trkpt><trkpt lat="43.6032667" lon="12.7346067"><ele>552.0</ele><time>2026-05-03T08:51:36.605Z</time></trkpt><trkpt lat="43.6032767" lon="12.7345067"><ele>552.0</ele><time>2026-05-03T08:51:37.609Z</time></trkpt><trkpt lat="43.60327" lon="12.7344083"><ele>552.0</ele><time>2026-05-03T08:51:38.604Z</time></trkpt><trkpt lat="43.603245" lon="12.7343067"><ele>552.0</ele><time>2026-05-03T08:51:39.606Z</time></trkpt><trkpt lat="43.6032083" lon="12.73422"><ele>552.0</ele><time>2026-05-03T08:51:40.607Z</time></trkpt><trkpt lat="43.6031567" lon="12.7341333"><ele>552.0</ele><time>2026-05-03T08:51:41.602Z</time></trkpt><trkpt lat="43.6030883" lon="12.7340317"><ele>552.8333333333334</ele><time>2026-05-03T08:51:42.607Z</time></trkpt><trkpt lat="43.6030283" lon="12.733945"><ele>553.6666666666666</ele><time>2026-05-03T08:51:43.605Z</time></trkpt><trkpt lat="43.6029783" lon="12.7338733"><ele>554.5</ele><time>2026-05-03T08:51:44.601Z</time></trkpt><trkpt lat="43.6028883" lon="12.7337667"><ele>555.3333333333333</ele><time>2026-05-03T08:51:46.608Z</time></trkpt><trkpt lat="43.6028167" lon="12.7337083"><ele>556.1666666666666</ele><time>2026-05-03T08:51:48.603Z</time></trkpt><trkpt lat="43.6027467" lon="12.7336683"><ele>557.0</ele><time>2026-05-03T08:51:51.609Z</time></trkpt><trkpt lat="43.60267" lon="12.7336583"><ele>559.75</ele><time>2026-05-03T08:52:09.607Z</time></trkpt><trkpt lat="43.6025533" lon="12.733705"><ele>562.5</ele><time>2026-05-03T08:52:11.604Z</time></trkpt><trkpt lat="43.6024667" lon="12.7338133"><ele>565.25</ele><time>2026-05-03T08:52:13.608Z</time></trkpt><trkpt lat="43.6023867" lon="12.7339317"><ele>568.0</ele><time>2026-05-03T08:52:15.605Z</time></trkpt><trkpt lat="43.6023017" lon="12.7340467"><ele>568.0</ele><time>2026-05-03T08:52:17.601Z</time></trkpt><trkpt lat="43.6022167" lon="12.734155"><ele>568.0</ele><time>2026-05-03T08:52:19.603Z</time></trkpt><trkpt lat="43.6021317" lon="12.7342417"><ele>568.0</ele><time>2026-05-03T08:52:21.608Z</time></trkpt><trkpt lat="43.6020283" lon="12.7343217"><ele>568.0</ele><time>2026-05-03T08:52:23.604Z</time></trkpt><trkpt lat="43.601915" lon="12.7343933"><ele>567.7142857142857</ele><time>2026-05-03T08:52:25.601Z</time></trkpt><trkpt lat="43.6018467" lon="12.7344167"><ele>567.4285714285713</ele><time>2026-05-03T08:52:26.611Z</time></trkpt><trkpt lat="43.60178" lon="12.7344417"><ele>567.1428571428571</ele><time>2026-05-03T08:52:27.612Z</time></trkpt><trkpt lat="43.6017133" lon="12.734465"><ele>566.8571428571429</ele><time>2026-05-03T08:52:28.603Z</time></trkpt><trkpt lat="43.6016467" lon="12.7344833"><ele>566.5714285714287</ele><time>2026-05-03T08:52:29.607Z</time></trkpt><trkpt lat="43.6015783" lon="12.7345117"><ele>566.2857142857143</ele><time>2026-05-03T08:52:30.602Z</time></trkpt><trkpt lat="43.6015133" lon="12.7345483"><ele>566.0</ele><time>2026-05-03T08:52:31.608Z</time></trkpt><trkpt lat="43.6014533" lon="12.7345967"><ele>566.0</ele><time>2026-05-03T08:52:32.604Z</time></trkpt><trkpt lat="43.601395" lon="12.7346583"><ele>566.0</ele><time>2026-05-03T08:52:33.603Z</time></trkpt><trkpt lat="43.601345" lon="12.7347283"><ele>566.0</ele><time>2026-05-03T08:52:34.604Z</time></trkpt><trkpt lat="43.6013" lon="12.7348017"><ele>566.0</ele><time>2026-05-03T08:52:35.605Z</time></trkpt><trkpt lat="43.6012567" lon="12.7348817"><ele>566.0</ele><time>2026-05-03T08:52:36.599Z</time></trkpt><trkpt lat="43.6012117" lon="12.734955"><ele>566.0</ele><time>2026-05-03T08:52:37.598Z</time></trkpt><trkpt lat="43.6011667" lon="12.7350483"><ele>566.0</ele><time>2026-05-03T08:52:38.606Z</time></trkpt><trkpt lat="43.6011233" lon="12.735155"><ele>562.6666666666666</ele><time>2026-05-03T08:52:39.6Z</time></trkpt><trkpt lat="43.6010833" lon="12.735265"><ele>559.3333333333333</ele><time>2026-05-03T08:52:40.597Z</time></trkpt><trkpt lat="43.6010533" lon="12.7353733"><ele>556.0</ele><time>2026-05-03T08:52:41.603Z</time></trkpt><trkpt lat="43.6010283" lon="12.735475"><ele>552.6666666666666</ele><time>2026-05-03T08:52:42.605Z</time></trkpt><trkpt lat="43.6010083" lon="12.7355783"><ele>549.3333333333334</ele><time>2026-05-03T08:52:43.598Z</time></trkpt><trkpt lat="43.6009767" lon="12.7356817"><ele>546.0</ele><time>2026-05-03T08:52:44.606Z</time></trkpt><trkpt lat="43.600935" lon="12.7357867"><ele>546.0</ele><time>2026-05-03T08:52:45.606Z</time></trkpt><trkpt lat="43.6008917" lon="12.73589"><ele>546.0</ele><time>2026-05-03T08:52:46.606Z</time></trkpt><trkpt lat="43.6008417" lon="12.7360183"><ele>546.0</ele><time>2026-05-03T08:52:47.603Z</time></trkpt><trkpt lat="43.6007933" lon="12.7361467"><ele>546.0</ele><time>2026-05-03T08:52:48.608Z</time></trkpt><trkpt lat="43.60075" lon="12.736265"><ele>546.0</ele><time>2026-05-03T08:52:49.606Z</time></trkpt><trkpt lat="43.6007033" lon="12.73637"><ele>548.0</ele><time>2026-05-03T08:52:50.611Z</time></trkpt><trkpt lat="43.6006533" lon="12.73646"><ele>550.0</ele><time>2026-05-03T08:52:51.607Z</time></trkpt><trkpt lat="43.6006067" lon="12.7365433"><ele>552.0</ele><time>2026-05-03T08:52:52.602Z</time></trkpt><trkpt lat="43.6005517" lon="12.73664"><ele>554.0</ele><time>2026-05-03T08:52:53.606Z</time></trkpt><trkpt lat="43.6004867" lon="12.7367267"><ele>556.0</ele><time>2026-05-03T08:52:54.608Z</time></trkpt><trkpt lat="43.60042" lon="12.736815"><ele>558.0</ele><time>2026-05-03T08:52:55.604Z</time></trkpt><trkpt lat="43.6003617" lon="12.7369067"><ele>556.6</ele><time>2026-05-03T08:52:56.609Z</time></trkpt><trkpt lat="43.6003" lon="12.73701"><ele>555.1999999999999</ele><time>2026-05-03T08:52:57.603Z</time></trkpt><trkpt lat="43.60024" lon="12.7371167"><ele>553.8</ele><time>2026-05-03T08:52:58.602Z</time></trkpt><trkpt lat="43.6001833" lon="12.7372117"><ele>552.4</ele><time>2026-05-03T08:52:59.602Z</time></trkpt><trkpt lat="43.6001233" lon="12.7373"><ele>551.0</ele><time>2026-05-03T08:53:00.604Z</time></trkpt><trkpt lat="43.6000567" lon="12.7373833"><ele>551.0</ele><time>2026-05-03T08:53:01.601Z</time></trkpt><trkpt lat="43.5999733" lon="12.7374667"><ele>551.0</ele><time>2026-05-03T08:53:02.602Z</time></trkpt><trkpt lat="43.5998833" lon="12.7375317"><ele>551.0</ele><time>2026-05-03T08:53:03.605Z</time></trkpt><trkpt lat="43.5997833" lon="12.7375917"><ele>551.0</ele><time>2026-05-03T08:53:04.614Z</time></trkpt><trkpt lat="43.599685" lon="12.73765"><ele>551.0</ele><time>2026-05-03T08:53:05.605Z</time></trkpt><trkpt lat="43.5995783" lon="12.7377117"><ele>552.0</ele><time>2026-05-03T08:53:06.601Z</time></trkpt><trkpt lat="43.5994833" lon="12.7377667"><ele>553.0</ele><time>2026-05-03T08:53:07.603Z</time></trkpt><trkpt lat="43.599395" lon="12.7378183"><ele>554.0</ele><time>2026-05-03T08:53:08.607Z</time></trkpt><trkpt lat="43.5993067" lon="12.7378617"><ele>555.0</ele><time>2026-05-03T08:53:09.607Z</time></trkpt><trkpt lat="43.5991967" lon="12.7379217"><ele>556.0</ele><time>2026-05-03T08:53:10.604Z</time></trkpt><trkpt lat="43.59909" lon="12.7379817"><ele>556.0</ele><time>2026-05-03T08:53:11.607Z</time></trkpt><trkpt lat="43.5989817" lon="12.7380383"><ele>556.0</ele><time>2026-05-03T08:53:12.604Z</time></trkpt><trkpt lat="43.5988833" lon="12.7381"><ele>556.0</ele><time>2026-05-03T08:53:13.605Z</time></trkpt><trkpt lat="43.5987883" lon="12.7381617"><ele>556.0</ele><time>2026-05-03T08:53:14.601Z</time></trkpt><trkpt lat="43.5986933" lon="12.7382217"><ele>556.0</ele><time>2026-05-03T08:53:15.602Z</time></trkpt><trkpt lat="43.5986" lon="12.73828"><ele>552.6</ele><time>2026-05-03T08:53:16.598Z</time></trkpt><trkpt lat="43.5985133" lon="12.7383367"><ele>549.2</ele><time>2026-05-03T08:53:17.608Z</time></trkpt><trkpt lat="43.5984183" lon="12.738385"><ele>545.8</ele><time>2026-05-03T08:53:18.608Z</time></trkpt><trkpt lat="43.5983133" lon="12.7384217"><ele>542.4</ele><time>2026-05-03T08:53:19.61Z</time></trkpt><trkpt lat="43.5982183" lon="12.7384533"><ele>539.0</ele><time>2026-05-03T08:53:20.614Z</time></trkpt><trkpt lat="43.5981317" lon="12.738475"><ele>539.0</ele><time>2026-05-03T08:53:21.608Z</time></trkpt><trkpt lat="43.59805" lon="12.7385033"><ele>539.0</ele><time>2026-05-03T08:53:22.604Z</time></trkpt><trkpt lat="43.5979733" lon="12.7385467"><ele>539.0</ele><time>2026-05-03T08:53:23.607Z</time></trkpt><trkpt lat="43.5979083" lon="12.7385983"><ele>539.0</ele><time>2026-05-03T08:53:24.602Z</time></trkpt><trkpt lat="43.5978567" lon="12.7386617"><ele>539.0</ele><time>2026-05-03T08:53:25.6Z</time></trkpt><trkpt lat="43.5978117" lon="12.73873"><ele>539.0</ele><time>2026-05-03T08:53:26.602Z</time></trkpt><trkpt lat="43.5977683" lon="12.738805"><ele>539.0</ele><time>2026-05-03T08:53:27.602Z</time></trkpt><trkpt lat="43.5977267" lon="12.73888"><ele>539.3333333333333</ele><time>2026-05-03T08:53:28.605Z</time></trkpt><trkpt lat="43.597685" lon="12.7389517"><ele>539.6666666666666</ele><time>2026-05-03T08:53:29.6Z</time></trkpt><trkpt lat="43.5976417" lon="12.7390267"><ele>540.0</ele><time>2026-05-03T08:53:30.607Z</time></trkpt><trkpt lat="43.5975933" lon="12.7390917"><ele>540.3333333333334</ele><time>2026-05-03T08:53:31.599Z</time></trkpt><trkpt lat="43.59754" lon="12.7391433"><ele>540.6666666666667</ele><time>2026-05-03T08:53:32.611Z</time></trkpt><trkpt lat="43.5974433" lon="12.7392283"><ele>541.0</ele><time>2026-05-03T08:53:34.602Z</time></trkpt><trkpt lat="43.5973533" lon="12.7393033"><ele>541.0</ele><time>2026-05-03T08:53:36.603Z</time></trkpt><trkpt lat="43.5972733" lon="12.73937"><ele>541.0</ele><time>2026-05-03T08:53:38.605Z</time></trkpt><trkpt lat="43.5972067" lon="12.7394317"><ele>541.0</ele><time>2026-05-03T08:53:40.611Z</time></trkpt><trkpt lat="43.59711" lon="12.7395133"><ele>541.0</ele><time>2026-05-03T08:53:42.604Z</time></trkpt><trkpt lat="43.5970233" lon="12.7396"><ele>541.0</ele><time>2026-05-03T08:53:44.604Z</time></trkpt><trkpt lat="43.5969367" lon="12.7396617"><ele>541.3333333333334</ele><time>2026-05-03T08:53:46.602Z</time></trkpt><trkpt lat="43.596855" lon="12.7397117"><ele>541.6666666666667</ele><time>2026-05-03T08:53:48.606Z</time></trkpt><trkpt lat="43.5967783" lon="12.7398067"><ele>542.0</ele><time>2026-05-03T08:53:50.606Z</time></trkpt><trkpt lat="43.59673" lon="12.73987"><ele>542.3333333333334</ele><time>2026-05-03T08:53:51.604Z</time></trkpt><trkpt lat="43.59668" lon="12.7399367"><ele>542.6666666666666</ele><time>2026-05-03T08:53:52.608Z</time></trkpt><trkpt lat="43.596585" lon="12.740035"><ele>543.0</ele><time>2026-05-03T08:53:54.597Z</time></trkpt><trkpt lat="43.5964717" lon="12.74005"><ele>543.0</ele><time>2026-05-03T08:53:56.593Z</time></trkpt><trkpt lat="43.5964033" lon="12.7400417"><ele>543.0</ele><time>2026-05-03T08:53:57.611Z</time></trkpt><trkpt lat="43.59634" lon="12.7400283"><ele>543.0</ele><time>2026-05-03T08:53:58.601Z</time></trkpt><trkpt lat="43.5962417" lon="12.7400083"><ele>543.0</ele><time>2026-05-03T08:54:00.604Z</time></trkpt><trkpt lat="43.5961667" lon="12.7400383"><ele>543.0</ele><time>2026-05-03T08:54:02.605Z</time></trkpt><trkpt lat="43.5961033" lon="12.74012"><ele>543.0</ele><time>2026-05-03T08:54:04.597Z</time></trkpt><trkpt lat="43.5960617" lon="12.7402333"><ele>546.5</ele><time>2026-05-03T08:54:06.607Z</time></trkpt><trkpt lat="43.5960383" lon="12.7403733"><ele>550.0</ele><time>2026-05-03T08:54:08.597Z</time></trkpt><trkpt lat="43.5960083" lon="12.74054"><ele>553.5</ele><time>2026-05-03T08:54:10.607Z</time></trkpt><trkpt lat="43.5959517" lon="12.7406717"><ele>557.0</ele><time>2026-05-03T08:54:12.607Z</time></trkpt><trkpt lat="43.5958483" lon="12.7407567"><ele>557.0</ele><time>2026-05-03T08:54:14.602Z</time></trkpt><trkpt lat="43.5957683" lon="12.7408567"><ele>557.0</ele><time>2026-05-03T08:54:16.603Z</time></trkpt><trkpt lat="43.5957117" lon="12.7409733"><ele>557.0</ele><time>2026-05-03T08:54:18.602Z</time></trkpt><trkpt lat="43.59567" lon="12.7410717"><ele>557.0</ele><time>2026-05-03T08:54:20.609Z</time></trkpt><trkpt lat="43.5956233" lon="12.741215"><ele>557.0</ele><time>2026-05-03T08:54:32.604Z</time></trkpt><trkpt lat="43.5956133" lon="12.7413683"><ele>562.5</ele><time>2026-05-03T08:54:34.61Z</time></trkpt><trkpt lat="43.5955983" lon="12.74153"><ele>568.0</ele><time>2026-05-03T08:54:36.602Z</time></trkpt><trkpt lat="43.5955633" lon="12.7416817"><ele>573.5</ele><time>2026-05-03T08:54:38.603Z</time></trkpt><trkpt lat="43.5955117" lon="12.7418233"><ele>579.0</ele><time>2026-05-03T08:54:40.608Z</time></trkpt><trkpt lat="43.595465" lon="12.74199"><ele>582.2</ele><time>2026-05-03T08:54:42.602Z</time></trkpt><trkpt lat="43.5954617" lon="12.742135"><ele>585.4</ele><time>2026-05-03T08:54:44.605Z</time></trkpt><trkpt lat="43.5954767" lon="12.7423017"><ele>588.6</ele><time>2026-05-03T08:54:46.607Z</time></trkpt><trkpt lat="43.5955033" lon="12.742445"><ele>591.8</ele><time>2026-05-03T08:54:48.603Z</time></trkpt><trkpt lat="43.59552" lon="12.74256"><ele>595.0</ele><time>2026-05-03T08:54:50.606Z</time></trkpt><trkpt lat="43.5954867" lon="12.7426483"><ele>595.0</ele><time>2026-05-03T08:54:52.603Z</time></trkpt><trkpt lat="43.5954117" lon="12.7427033"><ele>595.0</ele><time>2026-05-03T08:54:54.603Z</time></trkpt><trkpt lat="43.5953233" lon="12.742745"><ele>595.0</ele><time>2026-05-03T08:54:56.608Z</time></trkpt><trkpt lat="43.5952267" lon="12.7427867"><ele>595.0</ele><time>2026-05-03T08:54:58.605Z</time></trkpt><trkpt lat="43.5951283" lon="12.742795"><ele>595.0</ele><time>2026-05-03T08:55:00.606Z</time></trkpt><trkpt lat="43.5950217" lon="12.7428017"><ele>595.2</ele><time>2026-05-03T08:55:02.609Z</time></trkpt><trkpt lat="43.5949467" lon="12.7428383"><ele>595.4</ele><time>2026-05-03T08:55:04.6Z</time></trkpt><trkpt lat="43.59489" lon="12.7429233"><ele>595.6</ele><time>2026-05-03T08:55:06.607Z</time></trkpt><trkpt lat="43.59486" lon="12.743055"><ele>595.8</ele><time>2026-05-03T08:55:08.605Z</time></trkpt><trkpt lat="43.5948017" lon="12.7431717"><ele>596.0</ele><time>2026-05-03T08:55:10.604Z</time></trkpt><trkpt lat="43.594705" lon="12.7432383"><ele>596.0</ele><time>2026-05-03T08:55:12.603Z</time></trkpt><trkpt lat="43.5946233" lon="12.74329"><ele>596.0</ele><time>2026-05-03T08:55:14.603Z</time></trkpt><trkpt lat="43.594545" lon="12.743365"><ele>596.0</ele><time>2026-05-03T08:55:16.607Z</time></trkpt><trkpt lat="43.59449" lon="12.74344"><ele>596.0</ele><time>2026-05-03T08:55:18.608Z</time></trkpt><trkpt lat="43.594425" lon="12.7435533"><ele>596.0</ele><time>2026-05-03T08:55:20.625Z</time></trkpt><trkpt lat="43.5943433" lon="12.743695"><ele>595.8333333333333</ele><time>2026-05-03T08:55:22.601Z</time></trkpt><trkpt lat="43.594305" lon="12.7437683"><ele>595.6666666666666</ele><time>2026-05-03T08:55:23.603Z</time></trkpt><trkpt lat="43.5942483" lon="12.7439117"><ele>595.5</ele><time>2026-05-03T08:55:25.6Z</time></trkpt><trkpt lat="43.5942117" lon="12.7440233"><ele>595.3333333333334</ele><time>2026-05-03T08:55:27.607Z</time></trkpt><trkpt lat="43.5941983" lon="12.7441517"><ele>595.1666666666667</ele><time>2026-05-03T08:55:29.601Z</time></trkpt><trkpt lat="43.5942233" lon="12.7442567"><ele>595.0</ele><time>2026-05-03T08:55:31.606Z</time></trkpt><trkpt lat="43.5942783" lon="12.7443267"><ele>595.0</ele><time>2026-05-03T08:55:33.601Z</time></trkpt><trkpt lat="43.5943433" lon="12.7443483"><ele>595.0</ele><time>2026-05-03T08:55:35.594Z</time></trkpt><trkpt lat="43.5944217" lon="12.7443183"><ele>595.0</ele><time>2026-05-03T08:55:37.603Z</time></trkpt><trkpt lat="43.5945283" lon="12.74428"><ele>595.0</ele><time>2026-05-03T08:55:39.604Z</time></trkpt><trkpt lat="43.5945917" lon="12.74426"><ele>595.0</ele><time>2026-05-03T08:55:40.603Z</time></trkpt><trkpt lat="43.5946617" lon="12.74424"><ele>595.0</ele><time>2026-05-03T08:55:41.611Z</time></trkpt><trkpt lat="43.59474" lon="12.7442133"><ele>596.8</ele><time>2026-05-03T08:55:42.602Z</time></trkpt><trkpt lat="43.5948133" lon="12.7441833"><ele>598.6</ele><time>2026-05-03T08:55:43.603Z</time></trkpt><trkpt lat="43.5949283" lon="12.7441367"><ele>600.4</ele><time>2026-05-03T08:55:45.603Z</time></trkpt><trkpt lat="43.5950283" lon="12.74411"><ele>602.2</ele><time>2026-05-03T08:55:47.602Z</time></trkpt><trkpt lat="43.5951217" lon="12.74409"><ele>604.0</ele><time>2026-05-03T08:55:49.601Z</time></trkpt><trkpt lat="43.59521" lon="12.7440667"><ele>604.0</ele><time>2026-05-03T08:55:51.607Z</time></trkpt><trkpt lat="43.5952883" lon="12.7440683"><ele>604.0</ele><time>2026-05-03T08:55:53.61Z</time></trkpt><trkpt lat="43.5953533" lon="12.7441133"><ele>604.0</ele><time>2026-05-03T08:55:55.604Z</time></trkpt><trkpt lat="43.595405" lon="12.7441817"><ele>604.0</ele><time>2026-05-03T08:55:57.604Z</time></trkpt><trkpt lat="43.5954617" lon="12.74425"><ele>604.0</ele><time>2026-05-03T08:55:59.602Z</time></trkpt><trkpt lat="43.59552" lon="12.744335"><ele>604.0</ele><time>2026-05-03T08:56:01.602Z</time></trkpt><trkpt lat="43.5955817" lon="12.7444317"><ele>605.2</ele><time>2026-05-03T08:56:03.606Z</time></trkpt><trkpt lat="43.5956333" lon="12.7445483"><ele>606.4</ele><time>2026-05-03T08:56:05.605Z</time></trkpt><trkpt lat="43.5956733" lon="12.7446783"><ele>607.6</ele><time>2026-05-03T08:56:07.607Z</time></trkpt><trkpt lat="43.5957167" lon="12.7448233"><ele>608.8</ele><time>2026-05-03T08:56:09.604Z</time></trkpt><trkpt lat="43.5957567" lon="12.7449717"><ele>610.0</ele><time>2026-05-03T08:56:11.603Z</time></trkpt><trkpt lat="43.5957883" lon="12.7450933"><ele>610.0</ele><time>2026-05-03T08:56:13.609Z</time></trkpt><trkpt lat="43.5957867" lon="12.7452017"><ele>610.0</ele><time>2026-05-03T08:56:15.604Z</time></trkpt><trkpt lat="43.5957517" lon="12.7453017"><ele>610.0</ele><time>2026-05-03T08:56:17.607Z</time></trkpt><trkpt lat="43.595715" lon="12.7453917"><ele>610.0</ele><time>2026-05-03T08:56:19.607Z</time></trkpt><trkpt lat="43.5957017" lon="12.7455033"><ele>610.0</ele><time>2026-05-03T08:56:22.603Z</time></trkpt><trkpt lat="43.5957133" lon="12.7455983"><ele>610.0</ele><time>2026-05-03T08:56:25.607Z</time></trkpt><trkpt lat="43.59573" lon="12.7456967"><ele>608.0</ele><time>2026-05-03T08:56:28.603Z</time></trkpt><trkpt lat="43.5957367" lon="12.7458233"><ele>606.0</ele><time>2026-05-03T08:56:31.604Z</time></trkpt><trkpt lat="43.5957317" lon="12.7459317"><ele>604.0</ele><time>2026-05-03T08:56:33.609Z</time></trkpt><trkpt lat="43.595705" lon="12.74605"><ele>602.0</ele><time>2026-05-03T08:56:35.606Z</time></trkpt><trkpt lat="43.59566" lon="12.7461383"><ele>600.0</ele><time>2026-05-03T08:56:37.601Z</time></trkpt><trkpt lat="43.595605" lon="12.74622"><ele>598.0</ele><time>2026-05-03T08:56:39.603Z</time></trkpt><trkpt lat="43.5955483" lon="12.7463033"><ele>595.3333333333334</ele><time>2026-05-03T08:56:41.593Z</time></trkpt><trkpt lat="43.595485" lon="12.7463917"><ele>592.6666666666667</ele><time>2026-05-03T08:56:43.602Z</time></trkpt><trkpt lat="43.59543" lon="12.74648"><ele>590.0</ele><time>2026-05-03T08:56:45.611Z</time></trkpt><trkpt lat="43.59537" lon="12.7465767"><ele>587.3333333333334</ele><time>2026-05-03T08:56:47.608Z</time></trkpt><trkpt lat="43.59531" lon="12.7466717"><ele>584.6666666666666</ele><time>2026-05-03T08:56:49.606Z</time></trkpt><trkpt lat="43.59526" lon="12.74676"><ele>582.0</ele><time>2026-05-03T08:56:51.609Z</time></trkpt><trkpt lat="43.5952133" lon="12.746845"><ele>582.3333333333334</ele><time>2026-05-03T08:56:53.606Z</time></trkpt><trkpt lat="43.595165" lon="12.7469183"><ele>582.6666666666666</ele><time>2026-05-03T08:56:55.608Z</time></trkpt><trkpt lat="43.5951283" lon="12.7469983"><ele>583.0</ele><time>2026-05-03T08:56:59.603Z</time></trkpt><trkpt lat="43.59522" lon="12.7470417"><ele>583.3333333333333</ele><time>2026-05-03T08:58:24.603Z</time></trkpt><trkpt lat="43.59531" lon="12.74702"><ele>583.6666666666666</ele><time>2026-05-03T08:58:27.604Z</time></trkpt><trkpt lat="43.5953683" lon="12.7469817"><ele>584.0</ele><time>2026-05-03T08:58:29.605Z</time></trkpt><trkpt lat="43.5954267" lon="12.7469433"><ele>583.7142857142857</ele><time>2026-05-03T08:58:31.606Z</time></trkpt><trkpt lat="43.5954883" lon="12.7469167"><ele>583.4285714285714</ele><time>2026-05-03T08:58:33.603Z</time></trkpt><trkpt lat="43.5955567" lon="12.7468783"><ele>583.1428571428571</ele><time>2026-05-03T08:58:35.6Z</time></trkpt><trkpt lat="43.59562" lon="12.7468517"><ele>582.8571428571429</ele><time>2026-05-03T08:58:37.61Z</time></trkpt><trkpt lat="43.595705" lon="12.74682"><ele>582.5714285714286</ele><time>2026-05-03T08:58:40.598Z</time></trkpt><trkpt lat="43.5957733" lon="12.7468033"><ele>582.2857142857142</ele><time>2026-05-03T08:58:43.603Z</time></trkpt><trkpt lat="43.595845" lon="12.7467717"><ele>582.0</ele><time>2026-05-03T08:58:46.601Z</time></trkpt><trkpt lat="43.5959317" lon="12.7467533"><ele>582.0</ele><time>2026-05-03T08:58:49.604Z</time></trkpt><trkpt lat="43.5960217" lon="12.7467383"><ele>582.0</ele><time>2026-05-03T08:58:52.607Z</time></trkpt><trkpt lat="43.5960967" lon="12.74673"><ele>582.0</ele><time>2026-05-03T08:58:56.612Z</time></trkpt><trkpt lat="43.59616" lon="12.7467383"><ele>582.0</ele><time>2026-05-03T08:59:01.611Z</time></trkpt><trkpt lat="43.5962267" lon="12.7467117"><ele>582.0</ele><time>2026-05-03T08:59:08.607Z</time></trkpt><trkpt lat="43.5963133" lon="12.7466517"><ele>582.0</ele><time>2026-05-03T08:59:11.606Z</time></trkpt><trkpt lat="43.5963767" lon="12.746605"><ele>579.1666666666666</ele><time>2026-05-03T08:59:13.608Z</time></trkpt><trkpt lat="43.59644" lon="12.746555"><ele>576.3333333333334</ele><time>2026-05-03T08:59:15.614Z</time></trkpt><trkpt lat="43.5965017" lon="12.7465133"><ele>573.5</ele><time>2026-05-03T08:59:17.603Z</time></trkpt><trkpt lat="43.5965667" lon="12.7464783"><ele>570.6666666666667</ele><time>2026-05-03T08:59:19.608Z</time></trkpt><trkpt lat="43.5966517" lon="12.7464183"><ele>567.8333333333334</ele><time>2026-05-03T08:59:22.617Z</time></trkpt><trkpt lat="43.5967183" lon="12.7463817"><ele>565.0</ele><time>2026-05-03T08:59:24.606Z</time></trkpt><trkpt lat="43.5967917" lon="12.7463417"><ele>565.0</ele><time>2026-05-03T08:59:26.612Z</time></trkpt><trkpt lat="43.596875" lon="12.7462983"><ele>565.0</ele><time>2026-05-03T08:59:29.606Z</time></trkpt><trkpt lat="43.59694" lon="12.746275"><ele>565.0</ele><time>2026-05-03T08:59:32.595Z</time></trkpt><trkpt lat="43.597025" lon="12.74624"><ele>565.0</ele><time>2026-05-03T08:59:39.603Z</time></trkpt><trkpt lat="43.5971067" lon="12.7462617"><ele>565.0</ele><time>2026-05-03T08:59:42.598Z</time></trkpt><trkpt lat="43.5971767" lon="12.7463017"><ele>565.0</ele><time>2026-05-03T08:59:45.598Z</time></trkpt><trkpt lat="43.5972333" lon="12.7463483"><ele>563.6666666666667</ele><time>2026-05-03T08:59:47.598Z</time></trkpt><trkpt lat="43.597295" lon="12.7464267"><ele>562.3333333333334</ele><time>2026-05-03T08:59:49.615Z</time></trkpt><trkpt lat="43.5973517" lon="12.7465017"><ele>561.0</ele><time>2026-05-03T08:59:52.605Z</time></trkpt><trkpt lat="43.5974033" lon="12.7465533"><ele>559.6666666666666</ele><time>2026-05-03T08:59:56.606Z</time></trkpt><trkpt lat="43.59748" lon="12.7466117"><ele>558.3333333333333</ele><time>2026-05-03T09:00:00.606Z</time></trkpt><trkpt lat="43.5975517" lon="12.74666"><ele>557.0</ele><time>2026-05-03T09:00:02.611Z</time></trkpt><trkpt lat="43.5976067" lon="12.7467133"><ele>555.2</ele><time>2026-05-03T09:00:05.606Z</time></trkpt><trkpt lat="43.59762" lon="12.7468917"><ele>553.4000000000001</ele><time>2026-05-03T09:00:22.606Z</time></trkpt><trkpt lat="43.5975767" lon="12.74699"><ele>551.5999999999999</ele><time>2026-05-03T09:00:25.605Z</time></trkpt><trkpt lat="43.5975267" lon="12.7470783"><ele>549.8</ele><time>2026-05-03T09:00:28.604Z</time></trkpt><trkpt lat="43.5974833" lon="12.74718"><ele>548.0</ele><time>2026-05-03T09:00:32.633Z</time></trkpt><trkpt lat="43.5974583" lon="12.7472817"><ele>548.0</ele><time>2026-05-03T09:00:35.602Z</time></trkpt><trkpt lat="43.5974283" lon="12.7474083"><ele>548.0</ele><time>2026-05-03T09:00:38.606Z</time></trkpt><trkpt lat="43.5974083" lon="12.7474933"><ele>548.0</ele><time>2026-05-03T09:00:40.609Z</time></trkpt><trkpt lat="43.5973883" lon="12.7475833"><ele>548.0</ele><time>2026-05-03T09:00:42.608Z</time></trkpt><trkpt lat="43.597365" lon="12.7477017"><ele>548.0</ele><time>2026-05-03T09:00:45.613Z</time></trkpt><trkpt lat="43.5973633" lon="12.7478083"><ele>548.0</ele><time>2026-05-03T09:00:48.602Z</time></trkpt><trkpt lat="43.59742" lon="12.7479383"><ele>546.6</ele><time>2026-05-03T09:08:42.606Z</time></trkpt><trkpt lat="43.5974483" lon="12.7480517"><ele>545.1999999999999</ele><time>2026-05-03T09:08:45.606Z</time></trkpt><trkpt lat="43.59747" lon="12.748145"><ele>543.8</ele><time>2026-05-03T09:08:47.604Z</time></trkpt><trkpt lat="43.59752" lon="12.7482767"><ele>542.4</ele><time>2026-05-03T09:08:50.615Z</time></trkpt><trkpt lat="43.5975717" lon="12.7483983"><ele>541.0</ele><time>2026-05-03T09:08:52.609Z</time></trkpt><trkpt lat="43.5976133" lon="12.7485067"><ele>540.0000000000001</ele><time>2026-05-03T09:08:54.606Z</time></trkpt><trkpt lat="43.59765" lon="12.7485967"><ele>539.0</ele><time>2026-05-03T09:08:56.609Z</time></trkpt><trkpt lat="43.59768" lon="12.7486733"><ele>538.0</ele><time>2026-05-03T09:08:58.603Z</time></trkpt><trkpt lat="43.597725" lon="12.74877"><ele>537.0</ele><time>2026-05-03T09:09:01.598Z</time></trkpt><trkpt lat="43.5977617" lon="12.748855"><ele>536.0</ele><time>2026-05-03T09:09:04.602Z</time></trkpt><trkpt lat="43.5977983" lon="12.748945"><ele>535.0000000000001</ele><time>2026-05-03T09:09:09.597Z</time></trkpt><trkpt lat="43.5978267" lon="12.749035"><ele>534.0</ele><time>2026-05-03T09:09:14.603Z</time></trkpt><trkpt lat="43.5978633" lon="12.7491217"><ele>534.0</ele><time>2026-05-03T09:09:20.604Z</time></trkpt><trkpt lat="43.5978933" lon="12.7491983"><ele>534.0</ele><time>2026-05-03T09:09:26.598Z</time></trkpt><trkpt lat="43.5979517" lon="12.7492683"><ele>534.0</ele><time>2026-05-03T09:09:32.626Z</time></trkpt><trkpt lat="43.5980167" lon="12.7492967"><ele>534.0</ele><time>2026-05-03T09:09:36.603Z</time></trkpt><trkpt lat="43.59808" lon="12.7492983"><ele>534.0</ele><time>2026-05-03T09:09:42.605Z</time></trkpt><trkpt lat="43.598155" lon="12.749275"><ele>534.0</ele><time>2026-05-03T09:09:47.605Z</time></trkpt><trkpt lat="43.5982417" lon="12.7492017"><ele>534.0</ele><time>2026-05-03T09:10:01.606Z</time></trkpt><trkpt lat="43.5983117" lon="12.7491683"><ele>534.0</ele><time>2026-05-03T09:10:07.602Z</time></trkpt><trkpt lat="43.59837" lon="12.74912"><ele>534.0</ele><time>2026-05-03T09:10:16.609Z</time></trkpt><trkpt lat="43.5984517" lon="12.7490967"><ele>534.0</ele><time>2026-05-03T09:10:24.617Z</time></trkpt><trkpt lat="43.5984833" lon="12.7492333"><ele>534.0</ele><time>2026-05-03T09:11:01.608Z</time></trkpt><trkpt lat="43.5985267" lon="12.7493783"><ele>534.0</ele><time>2026-05-03T09:12:50.6Z</time></trkpt><trkpt lat="43.5985617" lon="12.7494733"><ele>530.6666666666666</ele><time>2026-05-03T09:12:54.61Z</time></trkpt><trkpt lat="43.5986067" lon="12.74955"><ele>527.3333333333334</ele><time>2026-05-03T09:12:57.606Z</time></trkpt><trkpt lat="43.5986633" lon="12.7496167"><ele>524.0</ele><time>2026-05-03T09:13:00.604Z</time></trkpt><trkpt lat="43.59873" lon="12.7496933"><ele>520.6666666666667</ele><time>2026-05-03T09:13:03.605Z</time></trkpt><trkpt lat="43.5987833" lon="12.74976"><ele>517.3333333333334</ele><time>2026-05-03T09:13:06.602Z</time></trkpt><trkpt lat="43.5988517" lon="12.74982"><ele>514.0</ele><time>2026-05-03T09:13:10.598Z</time></trkpt><trkpt lat="43.5989267" lon="12.7498783"><ele>513.5714285714286</ele><time>2026-05-03T09:13:14.605Z</time></trkpt><trkpt lat="43.5989867" lon="12.7499117"><ele>513.1428571428571</ele><time>2026-05-03T09:13:17.606Z</time></trkpt><trkpt lat="43.5990467" lon="12.7499433"><ele>512.7142857142858</ele><time>2026-05-03T09:13:19.604Z</time></trkpt><trkpt lat="43.599115" lon="12.7499817"><ele>512.2857142857142</ele><time>2026-05-03T09:13:23.613Z</time></trkpt><trkpt lat="43.5991833" lon="12.7499367"><ele>511.8571428571429</ele><time>2026-05-03T09:13:29.61Z</time></trkpt><trkpt lat="43.599225" lon="12.7498617"><ele>511.42857142857144</ele><time>2026-05-03T09:13:32.607Z</time></trkpt><trkpt lat="43.5992833" lon="12.749775"><ele>511.0</ele><time>2026-05-03T09:13:35.606Z</time></trkpt><trkpt lat="43.5994017" lon="12.7497533"><ele>511.00000000000006</ele><time>2026-05-03T09:13:44.599Z</time></trkpt><trkpt lat="43.5994217" lon="12.749885"><ele>511.0</ele><time>2026-05-03T09:13:47.607Z</time></trkpt><trkpt lat="43.599415" lon="12.7499983"><ele>511.0</ele><time>2026-05-03T09:13:49.612Z</time></trkpt><trkpt lat="43.5994" lon="12.750105"><ele>511.0</ele><time>2026-05-03T09:13:51.595Z</time></trkpt><trkpt lat="43.5993783" lon="12.7502167"><ele>511.00000000000006</ele><time>2026-05-03T09:13:53.61Z</time></trkpt><trkpt lat="43.5993483" lon="12.750345"><ele>511.0</ele><time>2026-05-03T09:13:55.619Z</time></trkpt><trkpt lat="43.5993067" lon="12.7504717"><ele>508.33333333333337</ele><time>2026-05-03T09:13:57.609Z</time></trkpt><trkpt lat="43.5992783" lon="12.7505767"><ele>505.6666666666667</ele><time>2026-05-03T09:13:59.607Z</time></trkpt><trkpt lat="43.5992617" lon="12.75068"><ele>503.0</ele><time>2026-05-03T09:14:01.61Z</time></trkpt><trkpt lat="43.5992517" lon="12.7507833"><ele>500.33333333333337</ele><time>2026-05-03T09:14:03.606Z</time></trkpt><trkpt lat="43.599225" lon="12.7508783"><ele>497.6666666666667</ele><time>2026-05-03T09:14:05.607Z</time></trkpt><trkpt lat="43.5991833" lon="12.7509867"><ele>495.0</ele><time>2026-05-03T09:14:07.606Z</time></trkpt><trkpt lat="43.5991417" lon="12.7510933"><ele>493.42857142857133</ele><time>2026-05-03T09:14:09.613Z</time></trkpt><trkpt lat="43.5991067" lon="12.7511733"><ele>491.85714285714283</ele><time>2026-05-03T09:14:11.607Z</time></trkpt><trkpt lat="43.5991167" lon="12.7512617"><ele>490.2857142857142</ele><time>2026-05-03T09:14:13.604Z</time></trkpt><trkpt lat="43.5991617" lon="12.7513233"><ele>488.71428571428567</ele><time>2026-05-03T09:14:15.6Z</time></trkpt><trkpt lat="43.5992233" lon="12.7513833"><ele>487.1428571428571</ele><time>2026-05-03T09:14:17.603Z</time></trkpt><trkpt lat="43.5992917" lon="12.751435"><ele>485.57142857142856</ele><time>2026-05-03T09:14:19.61Z</time></trkpt><trkpt lat="43.59935" lon="12.7515167"><ele>484.0</ele><time>2026-05-03T09:14:22.603Z</time></trkpt><trkpt lat="43.5993967" lon="12.75159"><ele>484.00000000000006</ele><time>2026-05-03T09:14:24.607Z</time></trkpt><trkpt lat="43.5994417" lon="12.7516517"><ele>484.0</ele><time>2026-05-03T09:14:26.61Z</time></trkpt><trkpt lat="43.5995117" lon="12.7516583"><ele>484.0</ele><time>2026-05-03T09:14:30.596Z</time></trkpt><trkpt lat="43.599525" lon="12.7515367"><ele>484.0</ele><time>2026-05-03T09:14:34.605Z</time></trkpt><trkpt lat="43.599485" lon="12.7514667"><ele>484.00000000000006</ele><time>2026-05-03T09:15:27.608Z</time></trkpt><trkpt lat="43.599495" lon="12.751315"><ele>484.0</ele><time>2026-05-03T09:15:29.612Z</time></trkpt><trkpt lat="43.59952" lon="12.75122"><ele>484.00000000000006</ele><time>2026-05-03T09:15:30.608Z</time></trkpt><trkpt lat="43.599555" lon="12.7511283"><ele>484.0</ele><time>2026-05-03T09:15:31.605Z</time></trkpt><trkpt lat="43.5995983" lon="12.7510367"><ele>484.0</ele><time>2026-05-03T09:15:32.605Z</time></trkpt><trkpt lat="43.59966" lon="12.75094"><ele>484.0</ele><time>2026-05-03T09:15:33.603Z</time></trkpt><trkpt lat="43.5997133" lon="12.750845"><ele>484.00000000000006</ele><time>2026-05-03T09:15:34.608Z</time></trkpt><trkpt lat="43.5997633" lon="12.7507567"><ele>484.0</ele><time>2026-05-03T09:15:35.596Z</time></trkpt><trkpt lat="43.5998117" lon="12.7506833"><ele>484.0</ele><time>2026-05-03T09:15:36.601Z</time></trkpt><trkpt lat="43.5998633" lon="12.750625"><ele>484.0</ele><time>2026-05-03T09:15:37.604Z</time></trkpt><trkpt lat="43.5999633" lon="12.750545"><ele>484.0</ele><time>2026-05-03T09:15:39.603Z</time></trkpt><trkpt lat="43.60007" lon="12.7505117"><ele>484.0</ele><time>2026-05-03T09:15:41.608Z</time></trkpt><trkpt lat="43.6001583" lon="12.7504967"><ele>484.0</ele><time>2026-05-03T09:15:42.603Z</time></trkpt><trkpt lat="43.6002517" lon="12.750485"><ele>481.83333333333337</ele><time>2026-05-03T09:15:43.601Z</time></trkpt><trkpt lat="43.60035" lon="12.7504617"><ele>479.6666666666667</ele><time>2026-05-03T09:15:44.609Z</time></trkpt><trkpt lat="43.6004417" lon="12.7504367"><ele>477.5</ele><time>2026-05-03T09:15:45.603Z</time></trkpt><trkpt lat="43.60053" lon="12.75041"><ele>475.33333333333337</ele><time>2026-05-03T09:15:46.609Z</time></trkpt><trkpt lat="43.60061" lon="12.75039"><ele>473.1666666666667</ele><time>2026-05-03T09:15:47.605Z</time></trkpt><trkpt lat="43.60069" lon="12.7503767"><ele>471.0</ele><time>2026-05-03T09:15:48.611Z</time></trkpt><trkpt lat="43.6007717" lon="12.7503617"><ele>471.0</ele><time>2026-05-03T09:15:49.609Z</time></trkpt><trkpt lat="43.600855" lon="12.750345"><ele>471.0</ele><time>2026-05-03T09:15:50.604Z</time></trkpt><trkpt lat="43.600935" lon="12.7503233"><ele>471.0</ele><time>2026-05-03T09:15:51.607Z</time></trkpt><trkpt lat="43.6010117" lon="12.7503017"><ele>471.0</ele><time>2026-05-03T09:15:52.611Z</time></trkpt><trkpt lat="43.601085" lon="12.7502833"><ele>471.0</ele><time>2026-05-03T09:15:53.604Z</time></trkpt><trkpt lat="43.6011567" lon="12.7502583"><ele>471.0</ele><time>2026-05-03T09:15:54.609Z</time></trkpt><trkpt lat="43.6012233" lon="12.7502367"><ele>470.4</ele><time>2026-05-03T09:15:55.607Z</time></trkpt><trkpt lat="43.6012883" lon="12.7502133"><ele>469.8</ele><time>2026-05-03T09:15:56.61Z</time></trkpt><trkpt lat="43.6013933" lon="12.7501467"><ele>469.19999999999993</ele><time>2026-05-03T09:15:58.606Z</time></trkpt><trkpt lat="43.6014583" lon="12.7500483"><ele>468.59999999999997</ele><time>2026-05-03T09:16:00.606Z</time></trkpt><trkpt lat="43.6014817" lon="12.7499167"><ele>468.0</ele><time>2026-05-03T09:16:02.606Z</time></trkpt><trkpt lat="43.6014733" lon="12.7497767"><ele>468.0</ele><time>2026-05-03T09:16:04.605Z</time></trkpt><trkpt lat="43.6014717" lon="12.7496883"><ele>468.00000000000006</ele><time>2026-05-03T09:16:05.602Z</time></trkpt><trkpt lat="43.60149" lon="12.74959"><ele>468.0</ele><time>2026-05-03T09:16:06.601Z</time></trkpt><trkpt lat="43.6015167" lon="12.7495083"><ele>468.0</ele><time>2026-05-03T09:16:07.608Z</time></trkpt><trkpt lat="43.6015583" lon="12.7494217"><ele>468.00000000000006</ele><time>2026-05-03T09:16:08.61Z</time></trkpt><trkpt lat="43.6015983" lon="12.7493317"><ele>468.0</ele><time>2026-05-03T09:16:09.597Z</time></trkpt><trkpt lat="43.6016433" lon="12.7492267"><ele>468.0</ele><time>2026-05-03T09:16:10.602Z</time></trkpt><trkpt lat="43.6016883" lon="12.7491233"><ele>467.79999999999995</ele><time>2026-05-03T09:16:11.604Z</time></trkpt><trkpt lat="43.6017467" lon="12.74901"><ele>467.59999999999997</ele><time>2026-05-03T09:16:12.604Z</time></trkpt><trkpt lat="43.6018133" lon="12.7488917"><ele>467.40000000000003</ele><time>2026-05-03T09:16:13.609Z</time></trkpt><trkpt lat="43.60188" lon="12.74878"><ele>467.20000000000005</ele><time>2026-05-03T09:16:14.6Z</time></trkpt><trkpt lat="43.6019483" lon="12.7486817"><ele>467.0</ele><time>2026-05-03T09:16:15.601Z</time></trkpt><trkpt lat="43.602005" lon="12.748605"><ele>468.66666666666663</ele><time>2026-05-03T09:16:16.6Z</time></trkpt><trkpt lat="43.6021033" lon="12.7485333"><ele>470.3333333333333</ele><time>2026-05-03T09:16:18.604Z</time></trkpt><trkpt lat="43.6021783" lon="12.7485167"><ele>472.0</ele><time>2026-05-03T09:16:20.607Z</time></trkpt><trkpt lat="43.6022417" lon="12.748495"><ele>473.66666666666663</ele><time>2026-05-03T09:16:25.605Z</time></trkpt><trkpt lat="43.602335" lon="12.7484683"><ele>475.3333333333333</ele><time>2026-05-03T09:16:29.6Z</time></trkpt><trkpt lat="43.6024217" lon="12.7484367"><ele>477.0</ele><time>2026-05-03T09:16:31.603Z</time></trkpt><trkpt lat="43.6025233" lon="12.7483833"><ele>477.0</ele><time>2026-05-03T09:16:33.599Z</time></trkpt><trkpt lat="43.6026133" lon="12.7483317"><ele>477.0</ele><time>2026-05-03T09:16:35.599Z</time></trkpt><trkpt lat="43.6026783" lon="12.748285"><ele>477.0</ele><time>2026-05-03T09:16:37.599Z</time></trkpt><trkpt lat="43.6027467" lon="12.7482367"><ele>477.0</ele><time>2026-05-03T09:16:40.606Z</time></trkpt><trkpt lat="43.6028217" lon="12.7482033"><ele>477.0</ele><time>2026-05-03T09:16:44.601Z</time></trkpt><trkpt lat="43.6029052" lon="12.7482175"><ele>477.0</ele><time>2026-05-03T09:16:47.6Z</time></trkpt><trkpt lat="43.6029483" lon="12.7482957"><ele>477.8333333333333</ele><time>2026-05-03T09:16:49.625Z</time></trkpt><trkpt lat="43.6029589" lon="12.7484018"><ele>478.66666666666663</ele><time>2026-05-03T09:16:51.646Z</time></trkpt><trkpt lat="43.6030049" lon="12.7484729"><ele>479.5</ele><time>2026-05-03T09:16:53.609Z</time></trkpt><trkpt lat="43.6030734" lon="12.7485319"><ele>480.3333333333333</ele><time>2026-05-03T09:16:55.606Z</time></trkpt><trkpt lat="43.6031517" lon="12.7485617"><ele>481.16666666666663</ele><time>2026-05-03T09:16:57.603Z</time></trkpt><trkpt lat="43.603255" lon="12.7486083"><ele>482.0</ele><time>2026-05-03T09:16:59.607Z</time></trkpt><trkpt lat="43.6033283" lon="12.7486317"><ele>481.99999999999994</ele><time>2026-05-03T09:17:01.595Z</time></trkpt><trkpt lat="43.6034017" lon="12.7486417"><ele>482.0</ele><time>2026-05-03T09:17:17.61Z</time></trkpt><trkpt lat="43.6035083" lon="12.748695"><ele>482.0</ele><time>2026-05-03T09:17:19.608Z</time></trkpt><trkpt lat="43.6036017" lon="12.748795"><ele>482.0</ele><time>2026-05-03T09:17:21.611Z</time></trkpt><trkpt lat="43.6036483" lon="12.7488633"><ele>481.99999999999994</ele><time>2026-05-03T09:17:22.602Z</time></trkpt><trkpt lat="43.6036917" lon="12.7489317"><ele>482.0</ele><time>2026-05-03T09:17:23.608Z</time></trkpt><trkpt lat="43.60377" lon="12.7490467"><ele>483.49999999999994</ele><time>2026-05-03T09:17:25.602Z</time></trkpt><trkpt lat="43.603845" lon="12.7490817"><ele>485.0</ele><time>2026-05-03T09:17:27.602Z</time></trkpt><trkpt lat="43.6039467" lon="12.7490417"><ele>486.5</ele><time>2026-05-03T09:17:29.601Z</time></trkpt><trkpt lat="43.6040217" lon="12.748925"><ele>488.0</ele><time>2026-05-03T09:17:31.61Z</time></trkpt><trkpt lat="43.6040583" lon="12.748845"><ele>489.49999999999994</ele><time>2026-05-03T09:17:32.608Z</time></trkpt><trkpt lat="43.6041" lon="12.7487533"><ele>491.0</ele><time>2026-05-03T09:17:33.608Z</time></trkpt><trkpt lat="43.6041483" lon="12.748655"><ele>490.99999999999994</ele><time>2026-05-03T09:17:34.611Z</time></trkpt><trkpt lat="43.6041983" lon="12.7485617"><ele>491.0</ele><time>2026-05-03T09:17:35.606Z</time></trkpt><trkpt lat="43.6042467" lon="12.74848"><ele>491.0</ele><time>2026-05-03T09:17:36.597Z</time></trkpt><trkpt lat="43.6042983" lon="12.74842"><ele>491.0</ele><time>2026-05-03T09:17:37.604Z</time></trkpt><trkpt lat="43.604415" lon="12.748355"><ele>490.99999999999994</ele><time>2026-05-03T09:17:39.606Z</time></trkpt><trkpt lat="43.6044933" lon="12.748345"><ele>491.0</ele><time>2026-05-03T09:17:40.605Z</time></trkpt><trkpt lat="43.6045717" lon="12.7483383"><ele>494.6</ele><time>2026-05-03T09:17:41.606Z</time></trkpt><trkpt lat="43.6046533" lon="12.7483333"><ele>498.20000000000005</ele><time>2026-05-03T09:17:42.606Z</time></trkpt><trkpt lat="43.604745" lon="12.7483317"><ele>501.79999999999995</ele><time>2026-05-03T09:17:43.605Z</time></trkpt><trkpt lat="43.6048433" lon="12.7483217"><ele>505.4</ele><time>2026-05-03T09:17:44.615Z</time></trkpt><trkpt lat="43.604945" lon="12.7483"><ele>509.0</ele><time>2026-05-03T09:17:45.605Z</time></trkpt><trkpt lat="43.6050317" lon="12.748275"><ele>508.99999999999994</ele><time>2026-05-03T09:17:46.611Z</time></trkpt><trkpt lat="43.6051033" lon="12.7482583"><ele>509.0</ele><time>2026-05-03T09:17:47.602Z</time></trkpt><trkpt lat="43.6052033" lon="12.748255"><ele>509.0</ele><time>2026-05-03T09:17:49.605Z</time></trkpt><trkpt lat="43.6052667" lon="12.7482683"><ele>509.0</ele><time>2026-05-03T09:17:51.6Z</time></trkpt><trkpt lat="43.605315" lon="12.7483417"><ele>508.99999999999994</ele><time>2026-05-03T09:17:53.605Z</time></trkpt><trkpt lat="43.60535" lon="12.74842"><ele>509.0</ele><time>2026-05-03T09:17:54.601Z</time></trkpt><trkpt lat="43.60538" lon="12.74852"><ele>505.6</ele><time>2026-05-03T09:17:55.603Z</time></trkpt><trkpt lat="43.6054017" lon="12.7486183"><ele>502.2</ele><time>2026-05-03T09:17:56.612Z</time></trkpt><trkpt lat="43.6054267" lon="12.7487667"><ele>498.80000000000007</ele><time>2026-05-03T09:17:58.608Z</time></trkpt><trkpt lat="43.605445" lon="12.7488833"><ele>495.40000000000003</ele><time>2026-05-03T09:18:01.606Z</time></trkpt><trkpt lat="43.605435" lon="12.748995"><ele>492.0</ele><time>2026-05-03T09:18:03.602Z</time></trkpt><trkpt lat="43.6054017" lon="12.74918"><ele>492.00000000000006</ele><time>2026-05-03T09:18:05.603Z</time></trkpt><trkpt lat="43.6053867" lon="12.74929"><ele>492.0</ele><time>2026-05-03T09:18:06.596Z</time></trkpt><trkpt lat="43.6053833" lon="12.74939"><ele>492.00000000000006</ele><time>2026-05-03T09:18:07.601Z</time></trkpt><trkpt lat="43.605395" lon="12.7494783"><ele>492.00000000000006</ele><time>2026-05-03T09:18:08.6Z</time></trkpt><trkpt lat="43.60542" lon="12.7495667"><ele>492.0</ele><time>2026-05-03T09:18:09.605Z</time></trkpt><trkpt lat="43.6054567" lon="12.7496517"><ele>492.00000000000006</ele><time>2026-05-03T09:18:10.599Z</time></trkpt><trkpt lat="43.6054883" lon="12.74973"><ele>492.00000000000006</ele><time>2026-05-03T09:18:11.609Z</time></trkpt><trkpt lat="43.6055283" lon="12.749815"><ele>494.6</ele><time>2026-05-03T09:18:12.603Z</time></trkpt><trkpt lat="43.6055733" lon="12.7499133"><ele>497.20000000000005</ele><time>2026-05-03T09:18:13.602Z</time></trkpt><trkpt lat="43.6056217" lon="12.7500267"><ele>499.8</ele><time>2026-05-03T09:18:14.605Z</time></trkpt><trkpt lat="43.605675" lon="12.7501667"><ele>502.4</ele><time>2026-05-03T09:18:15.603Z</time></trkpt><trkpt lat="43.6057317" lon="12.7503133"><ele>505.0</ele><time>2026-05-03T09:18:16.602Z</time></trkpt><trkpt lat="43.6057767" lon="12.75044"><ele>506.6666666666667</ele><time>2026-05-03T09:18:17.601Z</time></trkpt><trkpt lat="43.605815" lon="12.7505417"><ele>508.33333333333337</ele><time>2026-05-03T09:18:18.605Z</time></trkpt><trkpt lat="43.6058483" lon="12.7506233"><ele>510.0</ele><time>2026-05-03T09:18:19.603Z</time></trkpt><trkpt lat="43.6059317" lon="12.750735"><ele>511.66666666666663</ele><time>2026-05-03T09:18:21.605Z</time></trkpt><trkpt lat="43.6060183" lon="12.7507833"><ele>513.3333333333333</ele><time>2026-05-03T09:18:23.601Z</time></trkpt><trkpt lat="43.606095" lon="12.7507983"><ele>515.0</ele><time>2026-05-03T09:18:25.6Z</time></trkpt><trkpt lat="43.6061783" lon="12.75078"><ele>517.2</ele><time>2026-05-03T09:18:27.6Z</time></trkpt><trkpt lat="43.6062833" lon="12.750745"><ele>519.4</ele><time>2026-05-03T09:18:29.602Z</time></trkpt><trkpt lat="43.6063983" lon="12.7507"><ele>521.6</ele><time>2026-05-03T09:18:31.604Z</time></trkpt><trkpt lat="43.606465" lon="12.75068"><ele>523.8</ele><time>2026-05-03T09:18:32.611Z</time></trkpt><trkpt lat="43.606545" lon="12.7506567"><ele>526.0</ele><time>2026-05-03T09:18:33.603Z</time></trkpt><trkpt lat="43.6066417" lon="12.75064"><ele>526.0</ele><time>2026-05-03T09:18:34.609Z</time></trkpt><trkpt lat="43.6067533" lon="12.7506183"><ele>526.0</ele><time>2026-05-03T09:18:35.611Z</time></trkpt><trkpt lat="43.6068617" lon="12.7505967"><ele>526.0</ele><time>2026-05-03T09:18:36.609Z</time></trkpt><trkpt lat="43.6069533" lon="12.7505783"><ele>526.0</ele><time>2026-05-03T09:18:37.605Z</time></trkpt><trkpt lat="43.60703" lon="12.7505617"><ele>526.0</ele><time>2026-05-03T09:18:38.606Z</time></trkpt><trkpt lat="43.607095" lon="12.750555"><ele>526.6</ele><time>2026-05-03T09:18:39.604Z</time></trkpt><trkpt lat="43.6072" lon="12.7505967"><ele>527.2</ele><time>2026-05-03T09:18:41.606Z</time></trkpt><trkpt lat="43.60728" lon="12.7506867"><ele>527.8</ele><time>2026-05-03T09:18:43.608Z</time></trkpt><trkpt lat="43.6073783" lon="12.750795"><ele>528.4</ele><time>2026-05-03T09:18:45.607Z</time></trkpt><trkpt lat="43.607445" lon="12.750855"><ele>529.0</ele><time>2026-05-03T09:18:46.605Z</time></trkpt><trkpt lat="43.60752" lon="12.7509"><ele>529.0</ele><time>2026-05-03T09:18:47.606Z</time></trkpt><trkpt lat="43.607595" lon="12.7509133"><ele>529.0</ele><time>2026-05-03T09:18:48.603Z</time></trkpt><trkpt lat="43.6076633" lon="12.750895"><ele>529.0</ele><time>2026-05-03T09:18:49.602Z</time></trkpt><trkpt lat="43.6077267" lon="12.750795"><ele>529.0</ele><time>2026-05-03T09:18:50.605Z</time></trkpt><trkpt lat="43.6077867" lon="12.7506583"><ele>529.0</ele><time>2026-05-03T09:18:51.608Z</time></trkpt><trkpt lat="43.6078683" lon="12.750525"><ele>527.75</ele><time>2026-05-03T09:18:52.603Z</time></trkpt><trkpt lat="43.60797" lon="12.7504133"><ele>526.5</ele><time>2026-05-03T09:18:53.605Z</time></trkpt><trkpt lat="43.6080617" lon="12.750305"><ele>525.25</ele><time>2026-05-03T09:18:54.61Z</time></trkpt><trkpt lat="43.6081417" lon="12.7501917"><ele>524.0</ele><time>2026-05-03T09:18:55.604Z</time></trkpt><trkpt lat="43.6082133" lon="12.750055"><ele>524.0</ele><time>2026-05-03T09:18:56.609Z</time></trkpt><trkpt lat="43.6082817" lon="12.7499"><ele>524.0</ele><time>2026-05-03T09:18:57.602Z</time></trkpt><trkpt lat="43.6083533" lon="12.7497467"><ele>524.0</ele><time>2026-05-03T09:18:58.613Z</time></trkpt><trkpt lat="43.6084333" lon="12.749615"><ele>524.0</ele><time>2026-05-03T09:18:59.607Z</time></trkpt><trkpt lat="43.6085183" lon="12.7495017"><ele>524.0</ele><time>2026-05-03T09:19:00.609Z</time></trkpt><trkpt lat="43.6085983" lon="12.749395"><ele>524.0</ele><time>2026-05-03T09:19:01.611Z</time></trkpt><trkpt lat="43.6086667" lon="12.7492733"><ele>524.0</ele><time>2026-05-03T09:19:02.602Z</time></trkpt><trkpt lat="43.60872" lon="12.7491317"><ele>524.0</ele><time>2026-05-03T09:19:03.606Z</time></trkpt><trkpt lat="43.6087567" lon="12.7489833"><ele>524.6</ele><time>2026-05-03T09:19:04.608Z</time></trkpt><trkpt lat="43.6087967" lon="12.7488383"><ele>525.2</ele><time>2026-05-03T09:19:05.612Z</time></trkpt><trkpt lat="43.6088417" lon="12.7487017"><ele>525.8000000000001</ele><time>2026-05-03T09:19:06.603Z</time></trkpt><trkpt lat="43.6088967" lon="12.748575"><ele>526.4</ele><time>2026-05-03T09:19:07.603Z</time></trkpt><trkpt lat="43.6089633" lon="12.7484583"><ele>527.0</ele><time>2026-05-03T09:19:08.607Z</time></trkpt><trkpt lat="43.6090283" lon="12.7483483"><ele>524.0</ele><time>2026-05-03T09:19:09.604Z</time></trkpt><trkpt lat="43.6090933" lon="12.74824"><ele>521.0</ele><time>2026-05-03T09:19:10.61Z</time></trkpt><trkpt lat="43.60916" lon="12.7481317"><ele>518.0</ele><time>2026-05-03T09:19:11.607Z</time></trkpt><trkpt lat="43.6092267" lon="12.7480117"><ele>515.0</ele><time>2026-05-03T09:19:12.601Z</time></trkpt><trkpt lat="43.6092967" lon="12.7479"><ele>512.0</ele><time>2026-05-03T09:19:13.605Z</time></trkpt><trkpt lat="43.6093667" lon="12.7477917"><ele>513.2</ele><time>2026-05-03T09:19:14.606Z</time></trkpt><trkpt lat="43.6094367" lon="12.7476983"><ele>514.4000000000001</ele><time>2026-05-03T09:19:15.595Z</time></trkpt><trkpt lat="43.6095067" lon="12.7476"><ele>515.5999999999999</ele><time>2026-05-03T09:19:16.606Z</time></trkpt><trkpt lat="43.6095683" lon="12.7474917"><ele>516.8</ele><time>2026-05-03T09:19:17.604Z</time></trkpt><trkpt lat="43.6096267" lon="12.7473583"><ele>518.0</ele><time>2026-05-03T09:19:18.601Z</time></trkpt><trkpt lat="43.6096667" lon="12.7472017"><ele>518.0</ele><time>2026-05-03T09:19:19.602Z</time></trkpt><trkpt lat="43.6097017" lon="12.7470383"><ele>518.0</ele><time>2026-05-03T09:19:20.603Z</time></trkpt><trkpt lat="43.6097317" lon="12.7469"><ele>518.0</ele><time>2026-05-03T09:19:21.597Z</time></trkpt><trkpt lat="43.6097683" lon="12.7467783"><ele>518.0</ele><time>2026-05-03T09:19:22.603Z</time></trkpt><trkpt lat="43.6098133" lon="12.746655"><ele>518.0</ele><time>2026-05-03T09:19:23.61Z</time></trkpt><trkpt lat="43.609865" lon="12.7465383"><ele>514.1999999999999</ele><time>2026-05-03T09:19:24.598Z</time></trkpt><trkpt lat="43.6099167" lon="12.7464267"><ele>510.4</ele><time>2026-05-03T09:19:25.604Z</time></trkpt><trkpt lat="43.60999" lon="12.74633"><ele>506.59999999999997</ele><time>2026-05-03T09:19:26.607Z</time></trkpt><trkpt lat="43.61006" lon="12.7462467"><ele>502.79999999999995</ele><time>2026-05-03T09:19:27.604Z</time></trkpt><trkpt lat="43.6101417" lon="12.74617"><ele>499.0</ele><time>2026-05-03T09:19:28.603Z</time></trkpt><trkpt lat="43.6102383" lon="12.7461083"><ele>499.4</ele><time>2026-05-03T09:19:29.609Z</time></trkpt><trkpt lat="43.6103383" lon="12.7460717"><ele>499.79999999999995</ele><time>2026-05-03T09:19:30.607Z</time></trkpt><trkpt lat="43.6104383" lon="12.7460667"><ele>500.20000000000005</ele><time>2026-05-03T09:19:31.603Z</time></trkpt><trkpt lat="43.6105333" lon="12.7460683"><ele>500.6</ele><time>2026-05-03T09:19:32.596Z</time></trkpt><trkpt lat="43.6106317" lon="12.74608"><ele>501.0</ele><time>2026-05-03T09:19:33.608Z</time></trkpt><trkpt lat="43.61074" lon="12.7461183"><ele>501.0</ele><time>2026-05-03T09:19:34.607Z</time></trkpt><trkpt lat="43.6108467" lon="12.7461633"><ele>501.0</ele><time>2026-05-03T09:19:35.602Z</time></trkpt><trkpt lat="43.61095" lon="12.7462017"><ele>501.0</ele><time>2026-05-03T09:19:36.604Z</time></trkpt><trkpt lat="43.6110517" lon="12.7462283"><ele>501.0</ele><time>2026-05-03T09:19:37.608Z</time></trkpt><trkpt lat="43.6111533" lon="12.746245"><ele>501.0</ele><time>2026-05-03T09:19:38.598Z</time></trkpt><trkpt lat="43.6112633" lon="12.7462617"><ele>497.5</ele><time>2026-05-03T09:19:39.604Z</time></trkpt><trkpt lat="43.611385" lon="12.74627"><ele>494.0</ele><time>2026-05-03T09:19:40.605Z</time></trkpt><trkpt lat="43.6115017" lon="12.7462617"><ele>490.5</ele><time>2026-05-03T09:19:41.608Z</time></trkpt><trkpt lat="43.6116167" lon="12.7462433"><ele>487.0</ele><time>2026-05-03T09:19:42.603Z</time></trkpt><trkpt lat="43.61172" lon="12.7462317"><ele>487.0</ele><time>2026-05-03T09:19:43.607Z</time></trkpt><trkpt lat="43.6118217" lon="12.746225"><ele>487.00000000000006</ele><time>2026-05-03T09:19:44.606Z</time></trkpt><trkpt lat="43.6119167" lon="12.7462133"><ele>487.00000000000006</ele><time>2026-05-03T09:19:45.599Z</time></trkpt><trkpt lat="43.6119983" lon="12.7461883"><ele>487.0</ele><time>2026-05-03T09:19:46.605Z</time></trkpt><trkpt lat="43.6120783" lon="12.74615"><ele>487.0</ele><time>2026-05-03T09:19:47.608Z</time></trkpt><trkpt lat="43.6121583" lon="12.7460833"><ele>484.20000000000005</ele><time>2026-05-03T09:19:48.614Z</time></trkpt><trkpt lat="43.6122383" lon="12.745995"><ele>481.40000000000003</ele><time>2026-05-03T09:19:49.614Z</time></trkpt><trkpt lat="43.6123167" lon="12.7459017"><ele>478.59999999999997</ele><time>2026-05-03T09:19:50.606Z</time></trkpt><trkpt lat="43.6123883" lon="12.74581"><ele>475.79999999999995</ele><time>2026-05-03T09:19:51.609Z</time></trkpt><trkpt lat="43.6124567" lon="12.74571"><ele>473.0</ele><time>2026-05-03T09:19:52.612Z</time></trkpt><trkpt lat="43.6125167" lon="12.7456033"><ele>473.0</ele><time>2026-05-03T09:19:53.602Z</time></trkpt><trkpt lat="43.6125733" lon="12.7454817"><ele>472.99999999999994</ele><time>2026-05-03T09:19:54.595Z</time></trkpt><trkpt lat="43.6126283" lon="12.7453567"><ele>472.99999999999994</ele><time>2026-05-03T09:19:55.604Z</time></trkpt><trkpt lat="43.6126817" lon="12.7452367"><ele>473.0</ele><time>2026-05-03T09:19:56.607Z</time></trkpt><trkpt lat="43.6127433" lon="12.7451217"><ele>473.0</ele><time>2026-05-03T09:19:57.608Z</time></trkpt><trkpt lat="43.6128167" lon="12.7450183"><ele>467.79999999999995</ele><time>2026-05-03T09:19:58.608Z</time></trkpt><trkpt lat="43.612895" lon="12.74493"><ele>462.59999999999997</ele><time>2026-05-03T09:19:59.604Z</time></trkpt><trkpt lat="43.612975" lon="12.7448517"><ele>457.40000000000003</ele><time>2026-05-03T09:20:00.612Z</time></trkpt><trkpt lat="43.6130533" lon="12.7447867"><ele>452.20000000000005</ele><time>2026-05-03T09:20:01.606Z</time></trkpt><trkpt lat="43.6131317" lon="12.74473"><ele>447.0</ele><time>2026-05-03T09:20:02.604Z</time></trkpt><trkpt lat="43.6131933" lon="12.7446767"><ele>447.0</ele><time>2026-05-03T09:20:03.606Z</time></trkpt><trkpt lat="43.61327" lon="12.74457"><ele>447.00000000000006</ele><time>2026-05-03T09:20:05.601Z</time></trkpt><trkpt lat="43.6132767" lon="12.74441"><ele>447.00000000000006</ele><time>2026-05-03T09:20:07.601Z</time></trkpt><trkpt lat="43.6132583" lon="12.7443133"><ele>447.0</ele><time>2026-05-03T09:20:08.61Z</time></trkpt><trkpt lat="43.6132433" lon="12.7442217"><ele>447.0</ele><time>2026-05-03T09:20:09.606Z</time></trkpt><trkpt lat="43.613255" lon="12.7440767"><ele>447.0</ele><time>2026-05-03T09:20:11.601Z</time></trkpt><trkpt lat="43.6133167" lon="12.74401"><ele>447.0</ele><time>2026-05-03T09:20:13.602Z</time></trkpt><trkpt lat="43.6133967" lon="12.7440883"><ele>447.0</ele><time>2026-05-03T09:20:15.605Z</time></trkpt><trkpt lat="43.61345" lon="12.7442483"><ele>447.0</ele><time>2026-05-03T09:20:17.607Z</time></trkpt><trkpt lat="43.6134617" lon="12.7443383"><ele>447.0</ele><time>2026-05-03T09:20:18.604Z</time></trkpt><trkpt lat="43.6134717" lon="12.7444317"><ele>447.0</ele><time>2026-05-03T09:20:19.611Z</time></trkpt><trkpt lat="43.6134783" lon="12.74452"><ele>447.0</ele><time>2026-05-03T09:20:20.609Z</time></trkpt><trkpt lat="43.61349" lon="12.7446567"><ele>447.00000000000006</ele><time>2026-05-03T09:20:22.606Z</time></trkpt><trkpt lat="43.61356" lon="12.7447267"><ele>447.00000000000006</ele><time>2026-05-03T09:20:24.602Z</time></trkpt><trkpt lat="43.613625" lon="12.74467"><ele>447.0</ele><time>2026-05-03T09:20:26.602Z</time></trkpt><trkpt lat="43.61365" lon="12.7445083"><ele>447.0</ele><time>2026-05-03T09:20:28.608Z</time></trkpt><trkpt lat="43.6136483" lon="12.7444017"><ele>446.0</ele><time>2026-05-03T09:20:29.595Z</time></trkpt><trkpt lat="43.613645" lon="12.7442717"><ele>445.0</ele><time>2026-05-03T09:20:30.601Z</time></trkpt><trkpt lat="43.613635" lon="12.7441467"><ele>444.0</ele><time>2026-05-03T09:20:31.605Z</time></trkpt><trkpt lat="43.613615" lon="12.7440333"><ele>443.0</ele><time>2026-05-03T09:20:32.604Z</time></trkpt><trkpt lat="43.613595" lon="12.74393"><ele>442.0</ele><time>2026-05-03T09:20:33.599Z</time></trkpt><trkpt lat="43.613575" lon="12.7438317"><ele>441.0</ele><time>2026-05-03T09:20:34.609Z</time></trkpt><trkpt lat="43.61355" lon="12.7437367"><ele>441.0</ele><time>2026-05-03T09:20:35.605Z</time></trkpt><trkpt lat="43.613525" lon="12.7436433"><ele>441.0</ele><time>2026-05-03T09:20:36.602Z</time></trkpt><trkpt lat="43.6135" lon="12.74356"><ele>441.0</ele><time>2026-05-03T09:20:37.607Z</time></trkpt><trkpt lat="43.61347" lon="12.74348"><ele>441.0</ele><time>2026-05-03T09:20:38.604Z</time></trkpt><trkpt lat="43.6134283" lon="12.7433433"><ele>441.0</ele><time>2026-05-03T09:20:40.606Z</time></trkpt><trkpt lat="43.6134433" lon="12.743245"><ele>441.0</ele><time>2026-05-03T09:20:42.603Z</time></trkpt><trkpt lat="43.61351" lon="12.7432267"><ele>436.8</ele><time>2026-05-03T09:20:44.606Z</time></trkpt><trkpt lat="43.6135633" lon="12.7433233"><ele>432.6</ele><time>2026-05-03T09:20:46.599Z</time></trkpt><trkpt lat="43.613605" lon="12.7434617"><ele>428.4</ele><time>2026-05-03T09:20:48.604Z</time></trkpt><trkpt lat="43.613665" lon="12.743605"><ele>424.2</ele><time>2026-05-03T09:20:50.606Z</time></trkpt><trkpt lat="43.613735" lon="12.7437483"><ele>420.0</ele><time>2026-05-03T09:20:52.604Z</time></trkpt><trkpt lat="43.6137767" lon="12.74382"><ele>418.8333333333333</ele><time>2026-05-03T09:20:53.606Z</time></trkpt><trkpt lat="43.6138117" lon="12.743895"><ele>417.66666666666663</ele><time>2026-05-03T09:20:54.605Z</time></trkpt><trkpt lat="43.6138683" lon="12.7440417"><ele>416.5</ele><time>2026-05-03T09:20:56.604Z</time></trkpt><trkpt lat="43.6139117" lon="12.7441583"><ele>415.3333333333333</ele><time>2026-05-03T09:20:58.604Z</time></trkpt><trkpt lat="43.6139733" lon="12.7442067"><ele>414.16666666666663</ele><time>2026-05-03T09:21:00.599Z</time></trkpt><trkpt lat="43.6140383" lon="12.744145"><ele>413.0</ele><time>2026-05-03T09:21:02.604Z</time></trkpt><trkpt lat="43.614045" lon="12.744025"><ele>412.99999999999994</ele><time>2026-05-03T09:21:04.604Z</time></trkpt><trkpt lat="43.6139833" lon="12.7438717"><ele>413.0</ele><time>2026-05-03T09:21:06.608Z</time></trkpt><trkpt lat="43.6139517" lon="12.7437917"><ele>413.0</ele><time>2026-05-03T09:21:07.608Z</time></trkpt><trkpt lat="43.6139217" lon="12.7437083"><ele>413.0</ele><time>2026-05-03T09:21:08.606Z</time></trkpt><trkpt lat="43.613895" lon="12.7436183"><ele>412.99999999999994</ele><time>2026-05-03T09:21:09.606Z</time></trkpt><trkpt lat="43.6138717" lon="12.743525"><ele>413.0</ele><time>2026-05-03T09:21:10.604Z</time></trkpt><trkpt lat="43.6138567" lon="12.7434317"><ele>411.42857142857144</ele><time>2026-05-03T09:21:11.601Z</time></trkpt><trkpt lat="43.61385" lon="12.7433333"><ele>409.8571428571429</ele><time>2026-05-03T09:21:12.607Z</time></trkpt><trkpt lat="43.6138467" lon="12.743235"><ele>408.2857142857143</ele><time>2026-05-03T09:21:13.597Z</time></trkpt><trkpt lat="43.6138483" lon="12.743135"><ele>406.7142857142857</ele><time>2026-05-03T09:21:14.604Z</time></trkpt><trkpt lat="43.6138483" lon="12.7430383"><ele>405.14285714285717</ele><time>2026-05-03T09:21:15.606Z</time></trkpt><trkpt lat="43.6138433" lon="12.7429383"><ele>403.57142857142856</ele><time>2026-05-03T09:21:16.608Z</time></trkpt><trkpt lat="43.6138283" lon="12.74285"><ele>402.0</ele><time>2026-05-03T09:21:17.609Z</time></trkpt><trkpt lat="43.6138117" lon="12.7427617"><ele>402.57142857142856</ele><time>2026-05-03T09:21:18.604Z</time></trkpt><trkpt lat="43.6137917" lon="12.742665"><ele>403.14285714285717</ele><time>2026-05-03T09:21:19.609Z</time></trkpt><trkpt lat="43.61377" lon="12.74257"><ele>403.7142857142857</ele><time>2026-05-03T09:21:20.607Z</time></trkpt><trkpt lat="43.6137483" lon="12.742475"><ele>404.2857142857143</ele><time>2026-05-03T09:21:21.604Z</time></trkpt><trkpt lat="43.6137283" lon="12.7423883"><ele>404.8571428571429</ele><time>2026-05-03T09:21:22.605Z</time></trkpt><trkpt lat="43.6137017" lon="12.7422917"><ele>405.42857142857144</ele><time>2026-05-03T09:21:23.601Z</time></trkpt><trkpt lat="43.613675" lon="12.7422017"><ele>406.0</ele><time>2026-05-03T09:21:24.602Z</time></trkpt><trkpt lat="43.6136433" lon="12.7421117"><ele>406.0</ele><time>2026-05-03T09:21:25.6Z</time></trkpt><trkpt lat="43.613615" lon="12.7420283"><ele>406.0</ele><time>2026-05-03T09:21:26.603Z</time></trkpt><trkpt lat="43.6135567" lon="12.7418867"><ele>406.0</ele><time>2026-05-03T09:21:28.604Z</time></trkpt><trkpt lat="43.61353" lon="12.7417567"><ele>406.0</ele><time>2026-05-03T09:21:30.606Z</time></trkpt><trkpt lat="43.6135767" lon="12.7416667"><ele>406.0</ele><time>2026-05-03T09:21:32.612Z</time></trkpt><trkpt lat="43.6136617" lon="12.7417083"><ele>402.6</ele><time>2026-05-03T09:21:34.6Z</time></trkpt><trkpt lat="43.6137233" lon="12.7418517"><ele>399.20000000000005</ele><time>2026-05-03T09:21:36.621Z</time></trkpt><trkpt lat="43.6137533" lon="12.74193"><ele>395.79999999999995</ele><time>2026-05-03T09:21:37.607Z</time></trkpt><trkpt lat="43.6138167" lon="12.7420867"><ele>392.4</ele><time>2026-05-03T09:21:39.607Z</time></trkpt><trkpt lat="43.6138533" lon="12.7421667"><ele>389.0</ele><time>2026-05-03T09:21:40.604Z</time></trkpt><trkpt lat="43.6138917" lon="12.7422467"><ele>389.0</ele><time>2026-05-03T09:21:41.615Z</time></trkpt><trkpt lat="43.6139333" lon="12.7423267"><ele>389.0</ele><time>2026-05-03T09:21:42.6Z</time></trkpt><trkpt lat="43.6139783" lon="12.7424033"><ele>389.0</ele><time>2026-05-03T09:21:43.615Z</time></trkpt><trkpt lat="43.6140267" lon="12.7424767"><ele>389.0</ele><time>2026-05-03T09:21:44.616Z</time></trkpt><trkpt lat="43.6140817" lon="12.7425467"><ele>389.0</ele><time>2026-05-03T09:21:45.604Z</time></trkpt><trkpt lat="43.6141367" lon="12.7426133"><ele>389.0</ele><time>2026-05-03T09:21:46.608Z</time></trkpt><trkpt lat="43.614195" lon="12.7426667"><ele>389.0</ele><time>2026-05-03T09:21:47.609Z</time></trkpt><trkpt lat="43.6142517" lon="12.74271"><ele>391.16666666666663</ele><time>2026-05-03T09:21:48.606Z</time></trkpt><trkpt lat="43.614315" lon="12.7427333"><ele>393.3333333333333</ele><time>2026-05-03T09:21:49.61Z</time></trkpt><trkpt lat="43.614435" lon="12.742725"><ele>395.5</ele><time>2026-05-03T09:21:51.605Z</time></trkpt><trkpt lat="43.6144917" lon="12.7426833"><ele>397.66666666666663</ele><time>2026-05-03T09:21:52.601Z</time></trkpt><trkpt lat="43.61455" lon="12.7426183"><ele>399.8333333333333</ele><time>2026-05-03T09:21:53.606Z</time></trkpt><trkpt lat="43.6146117" lon="12.7425383"><ele>402.0</ele><time>2026-05-03T09:21:54.606Z</time></trkpt><trkpt lat="43.61468" lon="12.7424583"><ele>397.0</ele><time>2026-05-03T09:21:55.605Z</time></trkpt><trkpt lat="43.6147533" lon="12.7423917"><ele>392.0</ele><time>2026-05-03T09:21:56.61Z</time></trkpt><trkpt lat="43.6148317" lon="12.7423417"><ele>387.0</ele><time>2026-05-03T09:21:57.611Z</time></trkpt><trkpt lat="43.6149133" lon="12.7423117"><ele>382.0</ele><time>2026-05-03T09:21:58.605Z</time></trkpt><trkpt lat="43.6149917" lon="12.7422883"><ele>377.0</ele><time>2026-05-03T09:21:59.604Z</time></trkpt><trkpt lat="43.61506" lon="12.7422633"><ele>372.0</ele><time>2026-05-03T09:22:00.609Z</time></trkpt><trkpt lat="43.6151233" lon="12.74224"><ele>372.0</ele><time>2026-05-03T09:22:01.608Z</time></trkpt><trkpt lat="43.6152183" lon="12.74216"><ele>372.0</ele><time>2026-05-03T09:22:03.606Z</time></trkpt><trkpt lat="43.6152683" lon="12.7420417"><ele>372.0</ele><time>2026-05-03T09:22:05.603Z</time></trkpt><trkpt lat="43.6152867" lon="12.74189"><ele>372.0</ele><time>2026-05-03T09:22:07.608Z</time></trkpt><trkpt lat="43.615265" lon="12.741755"><ele>372.0</ele><time>2026-05-03T09:22:09.606Z</time></trkpt><trkpt lat="43.615195" lon="12.7416717"><ele>371.20000000000005</ele><time>2026-05-03T09:22:11.601Z</time></trkpt><trkpt lat="43.615095" lon="12.741625"><ele>370.4</ele><time>2026-05-03T09:22:13.606Z</time></trkpt><trkpt lat="43.6149817" lon="12.7416017"><ele>369.6</ele><time>2026-05-03T09:22:15.608Z</time></trkpt><trkpt lat="43.614865" lon="12.741615"><ele>368.79999999999995</ele><time>2026-05-03T09:22:17.608Z</time></trkpt><trkpt lat="43.6147567" lon="12.741645"><ele>368.0</ele><time>2026-05-03T09:22:19.61Z</time></trkpt><trkpt lat="43.6146733" lon="12.7417067"><ele>368.0</ele><time>2026-05-03T09:22:21.605Z</time></trkpt><trkpt lat="43.6146183" lon="12.7418117"><ele>368.0</ele><time>2026-05-03T09:22:23.605Z</time></trkpt><trkpt lat="43.6145567" lon="12.741875"><ele>368.0</ele><time>2026-05-03T09:22:25.613Z</time></trkpt><trkpt lat="43.6144967" lon="12.7417967"><ele>368.0</ele><time>2026-05-03T09:22:28.604Z</time></trkpt><trkpt lat="43.614565" lon="12.7416783"><ele>368.0</ele><time>2026-05-03T09:22:30.603Z</time></trkpt><trkpt lat="43.6146083" lon="12.7416133"><ele>368.0</ele><time>2026-05-03T09:22:31.604Z</time></trkpt><trkpt lat="43.614665" lon="12.7415517"><ele>368.0</ele><time>2026-05-03T09:22:32.606Z</time></trkpt><trkpt lat="43.6147317" lon="12.7415033"><ele>368.0</ele><time>2026-05-03T09:22:33.604Z</time></trkpt><trkpt lat="43.6147967" lon="12.7414633"><ele>368.0</ele><time>2026-05-03T09:22:34.602Z</time></trkpt><trkpt lat="43.6148633" lon="12.7414267"><ele>368.0</ele><time>2026-05-03T09:22:35.606Z</time></trkpt><trkpt lat="43.6149267" lon="12.7413867"><ele>368.0</ele><time>2026-05-03T09:22:36.603Z</time></trkpt><trkpt lat="43.61499" lon="12.74135"><ele>368.0</ele><time>2026-05-03T09:22:37.604Z</time></trkpt><trkpt lat="43.615055" lon="12.7413067"><ele>368.0</ele><time>2026-05-03T09:22:38.613Z</time></trkpt><trkpt lat="43.6151217" lon="12.7412633"><ele>368.0</ele><time>2026-05-03T09:22:39.603Z</time></trkpt><trkpt lat="43.6151883" lon="12.741225"><ele>368.0</ele><time>2026-05-03T09:22:40.609Z</time></trkpt><trkpt lat="43.615255" lon="12.74119"><ele>368.0</ele><time>2026-05-03T09:22:41.607Z</time></trkpt><trkpt lat="43.6153167" lon="12.7411517"><ele>368.0</ele><time>2026-05-03T09:22:42.609Z</time></trkpt><trkpt lat="43.6153817" lon="12.74112"><ele>368.0</ele><time>2026-05-03T09:22:43.603Z</time></trkpt><trkpt lat="43.61544" lon="12.741075"><ele>368.0</ele><time>2026-05-03T09:22:44.601Z</time></trkpt><trkpt lat="43.6155383" lon="12.7409717"><ele>364.79999999999995</ele><time>2026-05-03T09:22:46.603Z</time></trkpt><trkpt lat="43.6155767" lon="12.7408167"><ele>361.6</ele><time>2026-05-03T09:22:48.604Z</time></trkpt><trkpt lat="43.6155633" lon="12.7406717"><ele>358.4</ele><time>2026-05-03T09:22:50.595Z</time></trkpt><trkpt lat="43.6155067" lon="12.7405683"><ele>355.20000000000005</ele><time>2026-05-03T09:22:52.608Z</time></trkpt><trkpt lat="43.6154067" lon="12.740565"><ele>352.0</ele><time>2026-05-03T09:22:54.606Z</time></trkpt><trkpt lat="43.6153" lon="12.7406167"><ele>352.0</ele><time>2026-05-03T09:22:56.608Z</time></trkpt><trkpt lat="43.6151933" lon="12.74068"><ele>352.0</ele><time>2026-05-03T09:22:58.602Z</time></trkpt><trkpt lat="43.6150817" lon="12.7407433"><ele>352.0</ele><time>2026-05-03T09:23:00.605Z</time></trkpt><trkpt lat="43.6149733" lon="12.740815"><ele>352.0</ele><time>2026-05-03T09:23:02.604Z</time></trkpt><trkpt lat="43.6149117" lon="12.74085"><ele>352.0</ele><time>2026-05-03T09:23:03.614Z</time></trkpt><trkpt lat="43.6148" lon="12.740915"><ele>352.0</ele><time>2026-05-03T09:23:05.605Z</time></trkpt><trkpt lat="43.6146967" lon="12.7409167"><ele>352.0</ele><time>2026-05-03T09:23:07.604Z</time></trkpt><trkpt lat="43.6146867" lon="12.7408167"><ele>352.0</ele><time>2026-05-03T09:23:09.603Z</time></trkpt><trkpt lat="43.614725" lon="12.7407367"><ele>352.0</ele><time>2026-05-03T09:23:10.603Z</time></trkpt><trkpt lat="43.614775" lon="12.74066"><ele>352.0</ele><time>2026-05-03T09:23:11.606Z</time></trkpt><trkpt lat="43.614835" lon="12.7405883"><ele>352.0</ele><time>2026-05-03T09:23:12.611Z</time></trkpt><trkpt lat="43.614895" lon="12.7405133"><ele>352.0</ele><time>2026-05-03T09:23:13.603Z</time></trkpt><trkpt lat="43.6149567" lon="12.7404333"><ele>352.0</ele><time>2026-05-03T09:23:14.608Z</time></trkpt><trkpt lat="43.6150183" lon="12.7403517"><ele>352.0</ele><time>2026-05-03T09:23:15.604Z</time></trkpt><trkpt lat="43.6150833" lon="12.7402717"><ele>352.0</ele><time>2026-05-03T09:23:16.605Z</time></trkpt><trkpt lat="43.6151433" lon="12.74019"><ele>352.0</ele><time>2026-05-03T09:23:17.611Z</time></trkpt><trkpt lat="43.6152117" lon="12.7401117"><ele>352.0</ele><time>2026-05-03T09:23:18.61Z</time></trkpt><trkpt lat="43.615275" lon="12.7400417"><ele>348.0</ele><time>2026-05-03T09:23:19.61Z</time></trkpt><trkpt lat="43.6153417" lon="12.73997"><ele>344.0</ele><time>2026-05-03T09:23:20.618Z</time></trkpt><trkpt lat="43.6154067" lon="12.7399033"><ele>340.0</ele><time>2026-05-03T09:23:21.606Z</time></trkpt><trkpt lat="43.61547" lon="12.7398267"><ele>336.0</ele><time>2026-05-03T09:23:22.603Z</time></trkpt><trkpt lat="43.61553" lon="12.739735"><ele>332.0</ele><time>2026-05-03T09:23:23.605Z</time></trkpt><trkpt lat="43.6155883" lon="12.7396333"><ele>328.0</ele><time>2026-05-03T09:23:24.604Z</time></trkpt><trkpt lat="43.615645" lon="12.7395283"><ele>328.0</ele><time>2026-05-03T09:23:25.61Z</time></trkpt><trkpt lat="43.6156967" lon="12.739435"><ele>328.0</ele><time>2026-05-03T09:23:26.605Z</time></trkpt><trkpt lat="43.6157433" lon="12.7393567"><ele>328.0</ele><time>2026-05-03T09:23:27.603Z</time></trkpt><trkpt lat="43.6157833" lon="12.7392833"><ele>328.0</ele><time>2026-05-03T09:23:28.602Z</time></trkpt><trkpt lat="43.6158033" lon="12.7392"><ele>328.0</ele><time>2026-05-03T09:23:29.604Z</time></trkpt><trkpt lat="43.6157667" lon="12.7390367"><ele>328.0</ele><time>2026-05-03T09:23:31.603Z</time></trkpt><trkpt lat="43.6157217" lon="12.7389583"><ele>326.0</ele><time>2026-05-03T09:23:32.613Z</time></trkpt><trkpt lat="43.6156467" lon="12.7388633"><ele>324.0</ele><time>2026-05-03T09:23:33.606Z</time></trkpt><trkpt lat="43.6155633" lon="12.73877"><ele>322.0</ele><time>2026-05-03T09:23:34.611Z</time></trkpt><trkpt lat="43.6154817" lon="12.738685"><ele>320.0</ele><time>2026-05-03T09:23:35.602Z</time></trkpt><trkpt lat="43.6154067" lon="12.7386033"><ele>318.0</ele><time>2026-05-03T09:23:36.607Z</time></trkpt><trkpt lat="43.61534" lon="12.7385333"><ele>317.5</ele><time>2026-05-03T09:23:37.615Z</time></trkpt><trkpt lat="43.6152783" lon="12.738465"><ele>317.0</ele><time>2026-05-03T09:23:38.609Z</time></trkpt><trkpt lat="43.6152333" lon="12.7383817"><ele>316.5</ele><time>2026-05-03T09:23:39.609Z</time></trkpt><trkpt lat="43.6152083" lon="12.738285"><ele>316.0</ele><time>2026-05-03T09:23:40.603Z</time></trkpt><trkpt lat="43.6152" lon="12.7381767"><ele>315.5</ele><time>2026-05-03T09:23:41.606Z</time></trkpt><trkpt lat="43.6152117" lon="12.7380533"><ele>315.0</ele><time>2026-05-03T09:23:42.605Z</time></trkpt><trkpt lat="43.6152433" lon="12.7379183"><ele>315.0</ele><time>2026-05-03T09:23:43.607Z</time></trkpt><trkpt lat="43.61529" lon="12.7377833"><ele>315.0</ele><time>2026-05-03T09:23:44.611Z</time></trkpt><trkpt lat="43.6153467" lon="12.7376617"><ele>315.0</ele><time>2026-05-03T09:23:45.605Z</time></trkpt><trkpt lat="43.6154" lon="12.73755"><ele>315.0</ele><time>2026-05-03T09:23:46.606Z</time></trkpt><trkpt lat="43.615445" lon="12.7374467"><ele>315.0</ele><time>2026-05-03T09:23:47.608Z</time></trkpt><trkpt lat="43.615485" lon="12.7373483"><ele>314.1666666666667</ele><time>2026-05-03T09:23:48.606Z</time></trkpt><trkpt lat="43.6155183" lon="12.7372567"><ele>313.3333333333333</ele><time>2026-05-03T09:23:49.607Z</time></trkpt><trkpt lat="43.615545" lon="12.73717"><ele>312.5</ele><time>2026-05-03T09:23:50.606Z</time></trkpt><trkpt lat="43.6155633" lon="12.73708"><ele>311.66666666666663</ele><time>2026-05-03T09:23:51.612Z</time></trkpt><trkpt lat="43.6155917" lon="12.7369817"><ele>310.8333333333333</ele><time>2026-05-03T09:23:52.614Z</time></trkpt><trkpt lat="43.6156333" lon="12.736875"><ele>310.0</ele><time>2026-05-03T09:23:53.606Z</time></trkpt><trkpt lat="43.6156817" lon="12.7367683"><ele>309.8333333333333</ele><time>2026-05-03T09:23:54.605Z</time></trkpt><trkpt lat="43.61573" lon="12.7366733"><ele>309.66666666666663</ele><time>2026-05-03T09:23:55.605Z</time></trkpt><trkpt lat="43.6157883" lon="12.7365817"><ele>309.5</ele><time>2026-05-03T09:23:56.609Z</time></trkpt><trkpt lat="43.6158417" lon="12.7365033"><ele>309.3333333333333</ele><time>2026-05-03T09:23:57.604Z</time></trkpt><trkpt lat="43.6158917" lon="12.7364217"><ele>309.1666666666667</ele><time>2026-05-03T09:23:58.602Z</time></trkpt><trkpt lat="43.61595" lon="12.73634"><ele>309.0</ele><time>2026-05-03T09:23:59.606Z</time></trkpt><trkpt lat="43.6160067" lon="12.736255"><ele>309.0</ele><time>2026-05-03T09:24:00.613Z</time></trkpt><trkpt lat="43.6160683" lon="12.736165"><ele>309.0</ele><time>2026-05-03T09:24:01.606Z</time></trkpt><trkpt lat="43.6161333" lon="12.7360717"><ele>309.0</ele><time>2026-05-03T09:24:02.613Z</time></trkpt><trkpt lat="43.616205" lon="12.7359867"><ele>309.0</ele><time>2026-05-03T09:24:03.605Z</time></trkpt><trkpt lat="43.6162733" lon="12.7358967"><ele>309.0</ele><time>2026-05-03T09:24:04.609Z</time></trkpt><trkpt lat="43.6163567" lon="12.735795"><ele>306.25</ele><time>2026-05-03T09:24:05.607Z</time></trkpt><trkpt lat="43.6164583" lon="12.7356667"><ele>303.5</ele><time>2026-05-03T09:24:06.608Z</time></trkpt><trkpt lat="43.6165617" lon="12.73554"><ele>300.75</ele><time>2026-05-03T09:24:07.607Z</time></trkpt><trkpt lat="43.6166717" lon="12.735425"><ele>298.0</ele><time>2026-05-03T09:24:08.61Z</time></trkpt><trkpt lat="43.6167967" lon="12.7353117"><ele>296.66666666666663</ele><time>2026-05-03T09:24:09.605Z</time></trkpt><trkpt lat="43.6169367" lon="12.7351917"><ele>295.3333333333333</ele><time>2026-05-03T09:24:10.606Z</time></trkpt><trkpt lat="43.6170817" lon="12.7350617"><ele>294.0</ele><time>2026-05-03T09:24:11.597Z</time></trkpt><trkpt lat="43.6172183" lon="12.7349367"><ele>294.0</ele><time>2026-05-03T09:24:12.609Z</time></trkpt><trkpt lat="43.617355" lon="12.7348117"><ele>294.0</ele><time>2026-05-03T09:24:13.603Z</time></trkpt><trkpt lat="43.6174983" lon="12.734695"><ele>294.0</ele><time>2026-05-03T09:24:14.607Z</time></trkpt><trkpt lat="43.61765" lon="12.7345833"><ele>294.0</ele><time>2026-05-03T09:24:15.604Z</time></trkpt><trkpt lat="43.6177967" lon="12.73448"><ele>294.0</ele><time>2026-05-03T09:24:16.609Z</time></trkpt><trkpt lat="43.6179417" lon="12.734375"><ele>294.0</ele><time>2026-05-03T09:24:17.604Z</time></trkpt><trkpt lat="43.6180817" lon="12.7342717"><ele>293.3333333333333</ele><time>2026-05-03T09:24:18.605Z</time></trkpt><trkpt lat="43.6182233" lon="12.7341517"><ele>292.66666666666663</ele><time>2026-05-03T09:24:19.607Z</time></trkpt><trkpt lat="43.6183733" lon="12.7339933"><ele>292.0</ele><time>2026-05-03T09:24:20.616Z</time></trkpt><trkpt lat="43.618525" lon="12.7338017"><ele>291.66666666666663</ele><time>2026-05-03T09:24:21.603Z</time></trkpt><trkpt lat="43.6186733" lon="12.73359"><ele>291.3333333333333</ele><time>2026-05-03T09:24:22.609Z</time></trkpt><trkpt lat="43.6188183" lon="12.7333817"><ele>291.0</ele><time>2026-05-03T09:24:23.605Z</time></trkpt><trkpt lat="43.618955" lon="12.7331783"><ele>291.0</ele><time>2026-05-03T09:24:24.607Z</time></trkpt><trkpt lat="43.619085" lon="12.7329817"><ele>291.0</ele><time>2026-05-03T09:24:25.61Z</time></trkpt><trkpt lat="43.619215" lon="12.73278"><ele>291.0</ele><time>2026-05-03T09:24:26.607Z</time></trkpt><trkpt lat="43.6193483" lon="12.7325783"><ele>291.6666666666667</ele><time>2026-05-03T09:24:27.61Z</time></trkpt><trkpt lat="43.6194783" lon="12.7323883"><ele>292.33333333333337</ele><time>2026-05-03T09:24:28.606Z</time></trkpt><trkpt lat="43.6196067" lon="12.73221"><ele>293.0</ele><time>2026-05-03T09:24:29.61Z</time></trkpt><trkpt lat="43.6197317" lon="12.7320367"><ele>288.6666666666667</ele><time>2026-05-03T09:24:30.605Z</time></trkpt><trkpt lat="43.6198667" lon="12.7318833"><ele>284.3333333333333</ele><time>2026-05-03T09:24:31.605Z</time></trkpt><trkpt lat="43.6200167" lon="12.7317383"><ele>280.0</ele><time>2026-05-03T09:24:32.602Z</time></trkpt><trkpt lat="43.62019" lon="12.7315983"><ele>278.0</ele><time>2026-05-03T09:24:33.605Z</time></trkpt><trkpt lat="43.620365" lon="12.7314567"><ele>276.0</ele><time>2026-05-03T09:24:34.606Z</time></trkpt><trkpt lat="43.6205283" lon="12.731325"><ele>274.0</ele><time>2026-05-03T09:24:35.608Z</time></trkpt><trkpt lat="43.6206917" lon="12.731195"><ele>274.0</ele><time>2026-05-03T09:24:36.605Z</time></trkpt><trkpt lat="43.6208567" lon="12.7310683"><ele>274.0</ele><time>2026-05-03T09:24:37.611Z</time></trkpt><trkpt lat="43.6210233" lon="12.7309433"><ele>274.0</ele><time>2026-05-03T09:24:38.605Z</time></trkpt><trkpt lat="43.6211833" lon="12.7308267"><ele>272.0</ele><time>2026-05-03T09:24:39.607Z</time></trkpt><trkpt lat="43.6213333" lon="12.730715"><ele>270.0</ele><time>2026-05-03T09:24:40.607Z</time></trkpt><trkpt lat="43.6214767" lon="12.73061"><ele>268.0</ele><time>2026-05-03T09:24:41.61Z</time></trkpt><trkpt lat="43.6216167" lon="12.730515"><ele>268.0</ele><time>2026-05-03T09:24:42.608Z</time></trkpt><trkpt lat="43.6217517" lon="12.73042"><ele>268.0</ele><time>2026-05-03T09:24:43.606Z</time></trkpt><trkpt lat="43.6218717" lon="12.7303317"><ele>268.0</ele><time>2026-05-03T09:24:44.597Z</time></trkpt><trkpt lat="43.621975" lon="12.7302517"><ele>268.0</ele><time>2026-05-03T09:24:45.601Z</time></trkpt><trkpt lat="43.6220717" lon="12.73016"><ele>266.5</ele><time>2026-05-03T09:24:46.608Z</time></trkpt><trkpt lat="43.622175" lon="12.7300433"><ele>265.0</ele><time>2026-05-03T09:24:47.603Z</time></trkpt><trkpt lat="43.6222817" lon="12.7298983"><ele>263.5</ele><time>2026-05-03T09:24:48.611Z</time></trkpt><trkpt lat="43.62239" lon="12.7297417"><ele>262.0</ele><time>2026-05-03T09:24:49.609Z</time></trkpt><trkpt lat="43.6224983" lon="12.7295883"><ele>262.0</ele><time>2026-05-03T09:24:50.604Z</time></trkpt><trkpt lat="43.6226" lon="12.729445"><ele>262.0</ele><time>2026-05-03T09:24:51.604Z</time></trkpt><trkpt lat="43.62268" lon="12.729315"><ele>262.0</ele><time>2026-05-03T09:24:52.602Z</time></trkpt><trkpt lat="43.6227367" lon="12.72918"><ele>262.0</ele><time>2026-05-03T09:24:53.605Z</time></trkpt><trkpt lat="43.6227717" lon="12.7290183"><ele>261.75</ele><time>2026-05-03T09:24:54.607Z</time></trkpt><trkpt lat="43.62279" lon="12.7288267"><ele>261.5</ele><time>2026-05-03T09:24:55.606Z</time></trkpt><trkpt lat="43.6227967" lon="12.72863"><ele>261.25</ele><time>2026-05-03T09:24:56.605Z</time></trkpt><trkpt lat="43.6228017" lon="12.7284467"><ele>261.0</ele><time>2026-05-03T09:24:57.604Z</time></trkpt><trkpt lat="43.6228033" lon="12.72829"><ele>261.6666666666667</ele><time>2026-05-03T09:24:58.605Z</time></trkpt><trkpt lat="43.6228083" lon="12.7281683"><ele>262.3333333333333</ele><time>2026-05-03T09:24:59.604Z</time></trkpt><trkpt lat="43.6228167" lon="12.72807"><ele>263.0</ele><time>2026-05-03T09:25:00.603Z</time></trkpt><trkpt lat="43.6228683" lon="12.7279483"><ele>263.66666666666663</ele><time>2026-05-03T09:25:02.61Z</time></trkpt><trkpt lat="43.622935" lon="12.7279367"><ele>264.3333333333333</ele><time>2026-05-03T09:25:03.606Z</time></trkpt><trkpt lat="43.6230167" lon="12.7279217"><ele>265.0</ele><time>2026-05-03T09:25:04.61Z</time></trkpt><trkpt lat="43.6230917" lon="12.727895"><ele>263.85714285714283</ele><time>2026-05-03T09:25:05.603Z</time></trkpt><trkpt lat="43.6231517" lon="12.7278467"><ele>262.7142857142857</ele><time>2026-05-03T09:25:06.607Z</time></trkpt><trkpt lat="43.6232033" lon="12.7277867"><ele>261.57142857142856</ele><time>2026-05-03T09:25:07.609Z</time></trkpt><trkpt lat="43.6232417" lon="12.727715"><ele>260.42857142857144</ele><time>2026-05-03T09:25:08.606Z</time></trkpt><trkpt lat="43.6232717" lon="12.7276333"><ele>259.2857142857143</ele><time>2026-05-03T09:25:09.613Z</time></trkpt><trkpt lat="43.6233" lon="12.7275483"><ele>258.1428571428571</ele><time>2026-05-03T09:25:10.612Z</time></trkpt><trkpt lat="43.623325" lon="12.7274617"><ele>257.0</ele><time>2026-05-03T09:25:11.606Z</time></trkpt><trkpt lat="43.623355" lon="12.7273733"><ele>257.0</ele><time>2026-05-03T09:25:12.603Z</time></trkpt><trkpt lat="43.6233917" lon="12.7272767"><ele>257.0</ele><time>2026-05-03T09:25:13.604Z</time></trkpt><trkpt lat="43.6234283" lon="12.7271767"><ele>257.0</ele><time>2026-05-03T09:25:14.604Z</time></trkpt><trkpt lat="43.62347" lon="12.7270767"><ele>257.0</ele><time>2026-05-03T09:25:15.61Z</time></trkpt><trkpt lat="43.623515" lon="12.7269867"><ele>257.0</ele><time>2026-05-03T09:25:16.61Z</time></trkpt><trkpt lat="43.6235583" lon="12.7269033"><ele>257.0</ele><time>2026-05-03T09:25:17.611Z</time></trkpt><trkpt lat="43.6236033" lon="12.726815"><ele>255.0</ele><time>2026-05-03T09:25:18.61Z</time></trkpt><trkpt lat="43.623655" lon="12.7267133"><ele>253.0</ele><time>2026-05-03T09:25:19.607Z</time></trkpt><trkpt lat="43.6237133" lon="12.7266067"><ele>251.0</ele><time>2026-05-03T09:25:20.607Z</time></trkpt><trkpt lat="43.6237683" lon="12.7265067"><ele>249.0</ele><time>2026-05-03T09:25:21.61Z</time></trkpt><trkpt lat="43.6238267" lon="12.7264067"><ele>247.0</ele><time>2026-05-03T09:25:22.615Z</time></trkpt><trkpt lat="43.6238833" lon="12.7263"><ele>247.0</ele><time>2026-05-03T09:25:23.612Z</time></trkpt><trkpt lat="43.62394" lon="12.72619"><ele>247.0</ele><time>2026-05-03T09:25:24.61Z</time></trkpt><trkpt lat="43.62399" lon="12.726085"><ele>247.0</ele><time>2026-05-03T09:25:25.608Z</time></trkpt><trkpt lat="43.6240333" lon="12.7259783"><ele>247.0</ele><time>2026-05-03T09:25:26.602Z</time></trkpt><trkpt lat="43.6240833" lon="12.72587"><ele>247.0</ele><time>2026-05-03T09:25:27.601Z</time></trkpt><trkpt lat="43.62415" lon="12.72576"><ele>247.39999999999998</ele><time>2026-05-03T09:25:28.602Z</time></trkpt><trkpt lat="43.624225" lon="12.72565"><ele>247.79999999999998</ele><time>2026-05-03T09:25:29.609Z</time></trkpt><trkpt lat="43.6243083" lon="12.7255383"><ele>248.2</ele><time>2026-05-03T09:25:30.613Z</time></trkpt><trkpt lat="43.6243883" lon="12.7254367"><ele>248.6</ele><time>2026-05-03T09:25:31.608Z</time></trkpt><trkpt lat="43.6244683" lon="12.7253467"><ele>249.0</ele><time>2026-05-03T09:25:32.606Z</time></trkpt><trkpt lat="43.624545" lon="12.7252617"><ele>248.2</ele><time>2026-05-03T09:25:33.601Z</time></trkpt><trkpt lat="43.62462" lon="12.72518"><ele>247.39999999999998</ele><time>2026-05-03T09:25:34.606Z</time></trkpt><trkpt lat="43.6246933" lon="12.725105"><ele>246.6</ele><time>2026-05-03T09:25:35.6Z</time></trkpt><trkpt lat="43.6247717" lon="12.7250367"><ele>245.8</ele><time>2026-05-03T09:25:36.612Z</time></trkpt><trkpt lat="43.6248633" lon="12.7249783"><ele>245.0</ele><time>2026-05-03T09:25:37.604Z</time></trkpt><trkpt lat="43.6249617" lon="12.7249233"><ele>245.0</ele><time>2026-05-03T09:25:38.614Z</time></trkpt><trkpt lat="43.6250683" lon="12.7248833"><ele>245.0</ele><time>2026-05-03T09:25:39.604Z</time></trkpt><trkpt lat="43.6251717" lon="12.7248567"><ele>245.0</ele><time>2026-05-03T09:25:40.602Z</time></trkpt><trkpt lat="43.6252717" lon="12.72483"><ele>245.0</ele><time>2026-05-03T09:25:41.605Z</time></trkpt><trkpt lat="43.6253767" lon="12.7248033"><ele>245.0</ele><time>2026-05-03T09:25:42.607Z</time></trkpt><trkpt lat="43.625485" lon="12.72477"><ele>243.2</ele><time>2026-05-03T09:25:43.604Z</time></trkpt><trkpt lat="43.625595" lon="12.7247317"><ele>241.4</ele><time>2026-05-03T09:25:44.599Z</time></trkpt><trkpt lat="43.6256983" lon="12.7246767"><ele>239.60000000000002</ele><time>2026-05-03T09:25:45.612Z</time></trkpt><trkpt lat="43.6257967" lon="12.7246133"><ele>237.8</ele><time>2026-05-03T09:25:46.611Z</time></trkpt><trkpt lat="43.6258867" lon="12.72453"><ele>236.0</ele><time>2026-05-03T09:25:47.607Z</time></trkpt><trkpt lat="43.6259767" lon="12.724435"><ele>234.75</ele><time>2026-05-03T09:25:48.608Z</time></trkpt><trkpt lat="43.6260717" lon="12.7243233"><ele>233.5</ele><time>2026-05-03T09:25:49.611Z</time></trkpt><trkpt lat="43.6261733" lon="12.7242017"><ele>232.25</ele><time>2026-05-03T09:25:50.612Z</time></trkpt><trkpt lat="43.6262733" lon="12.7240817"><ele>231.0</ele><time>2026-05-03T09:25:51.604Z</time></trkpt><trkpt lat="43.6263717" lon="12.723975"><ele>231.0</ele><time>2026-05-03T09:25:52.611Z</time></trkpt><trkpt lat="43.6264733" lon="12.723875"><ele>231.0</ele><time>2026-05-03T09:25:53.61Z</time></trkpt><trkpt lat="43.6265833" lon="12.723775"><ele>231.0</ele><time>2026-05-03T09:25:54.606Z</time></trkpt><trkpt lat="43.62669" lon="12.7236783"><ele>231.0</ele><time>2026-05-03T09:25:55.606Z</time></trkpt><trkpt lat="43.6267967" lon="12.7235833"><ele>230.25</ele><time>2026-05-03T09:25:56.603Z</time></trkpt><trkpt lat="43.6269033" lon="12.7234883"><ele>229.5</ele><time>2026-05-03T09:25:57.606Z</time></trkpt><trkpt lat="43.627005" lon="12.7234067"><ele>228.75</ele><time>2026-05-03T09:25:58.608Z</time></trkpt><trkpt lat="43.627105" lon="12.7233333"><ele>228.0</ele><time>2026-05-03T09:25:59.608Z</time></trkpt><trkpt lat="43.6272" lon="12.7232633"><ele>228.0</ele><time>2026-05-03T09:26:00.609Z</time></trkpt><trkpt lat="43.6272983" lon="12.7232033"><ele>228.0</ele><time>2026-05-03T09:26:01.604Z</time></trkpt><trkpt lat="43.6273883" lon="12.7231367"><ele>228.0</ele><time>2026-05-03T09:26:02.608Z</time></trkpt><trkpt lat="43.6274883" lon="12.7230717"><ele>228.0</ele><time>2026-05-03T09:26:03.604Z</time></trkpt><trkpt lat="43.6275917" lon="12.7230033"><ele>228.0</ele><time>2026-05-03T09:26:04.611Z</time></trkpt><trkpt lat="43.6276917" lon="12.7229417"><ele>228.0</ele><time>2026-05-03T09:26:05.602Z</time></trkpt><trkpt lat="43.62779" lon="12.7228817"><ele>228.0</ele><time>2026-05-03T09:26:06.605Z</time></trkpt><trkpt lat="43.6278917" lon="12.7228183"><ele>228.0</ele><time>2026-05-03T09:26:07.605Z</time></trkpt><trkpt lat="43.62799" lon="12.7227583"><ele>228.0</ele><time>2026-05-03T09:26:08.61Z</time></trkpt><trkpt lat="43.628085" lon="12.7227033"><ele>228.0</ele><time>2026-05-03T09:26:09.598Z</time></trkpt><trkpt lat="43.62818" lon="12.7226533"><ele>226.5</ele><time>2026-05-03T09:26:10.609Z</time></trkpt><trkpt lat="43.6282617" lon="12.7225833"><ele>225.0</ele><time>2026-05-03T09:26:11.6Z</time></trkpt><trkpt lat="43.62833" lon="12.722475"><ele>223.5</ele><time>2026-05-03T09:26:12.607Z</time></trkpt><trkpt lat="43.6283817" lon="12.7223167"><ele>222.0</ele><time>2026-05-03T09:26:13.604Z</time></trkpt><trkpt lat="43.62842" lon="12.7221283"><ele>222.0</ele><time>2026-05-03T09:26:14.612Z</time></trkpt><trkpt lat="43.6284483" lon="12.7219383"><ele>222.0</ele><time>2026-05-03T09:26:15.606Z</time></trkpt><trkpt lat="43.62847" lon="12.72176"><ele>222.0</ele><time>2026-05-03T09:26:16.607Z</time></trkpt><trkpt lat="43.628485" lon="12.7215833"><ele>222.0</ele><time>2026-05-03T09:26:17.603Z</time></trkpt><trkpt lat="43.62849" lon="12.7214033"><ele>224.25</ele><time>2026-05-03T09:26:18.606Z</time></trkpt><trkpt lat="43.6285" lon="12.72123"><ele>226.5</ele><time>2026-05-03T09:26:19.612Z</time></trkpt><trkpt lat="43.6285233" lon="12.721065"><ele>228.75</ele><time>2026-05-03T09:26:20.608Z</time></trkpt><trkpt lat="43.628575" lon="12.720905"><ele>231.0</ele><time>2026-05-03T09:26:21.607Z</time></trkpt><trkpt lat="43.6286567" lon="12.7207467"><ele>224.0</ele><time>2026-05-03T09:26:22.601Z</time></trkpt><trkpt lat="43.628755" lon="12.7205883"><ele>217.0</ele><time>2026-05-03T09:26:23.602Z</time></trkpt><trkpt lat="43.628855" lon="12.7204233"><ele>210.0</ele><time>2026-05-03T09:26:24.61Z</time></trkpt><trkpt lat="43.628945" lon="12.72025"><ele>213.0</ele><time>2026-05-03T09:26:25.613Z</time></trkpt><trkpt lat="43.6290317" lon="12.7200733"><ele>216.0</ele><time>2026-05-03T09:26:26.609Z</time></trkpt><trkpt lat="43.6291117" lon="12.7198917"><ele>219.0</ele><time>2026-05-03T09:26:27.6Z</time></trkpt><trkpt lat="43.6291867" lon="12.71972"><ele>219.0</ele><time>2026-05-03T09:26:28.603Z</time></trkpt><trkpt lat="43.6292567" lon="12.7195517"><ele>219.0</ele><time>2026-05-03T09:26:29.596Z</time></trkpt><trkpt lat="43.6293317" lon="12.7193817"><ele>219.0</ele><time>2026-05-03T09:26:30.6Z</time></trkpt><trkpt lat="43.6294117" lon="12.71921"><ele>219.0</ele><time>2026-05-03T09:26:31.604Z</time></trkpt><trkpt lat="43.6295017" lon="12.7190267"><ele>215.0</ele><time>2026-05-03T09:26:32.608Z</time></trkpt><trkpt lat="43.6296017" lon="12.7188283"><ele>211.0</ele><time>2026-05-03T09:26:33.61Z</time></trkpt><trkpt lat="43.62971" lon="12.7186417"><ele>207.0</ele><time>2026-05-03T09:26:34.607Z</time></trkpt><trkpt lat="43.6298133" lon="12.71846"><ele>206.0</ele><time>2026-05-03T09:26:35.61Z</time></trkpt><trkpt lat="43.629915" lon="12.71828"><ele>205.0</ele><time>2026-05-03T09:26:36.607Z</time></trkpt><trkpt lat="43.63" lon="12.7181"><ele>204.0</ele><time>2026-05-03T09:26:37.609Z</time></trkpt><trkpt lat="43.6300783" lon="12.7179217"><ele>204.0</ele><time>2026-05-03T09:26:38.607Z</time></trkpt><trkpt lat="43.6301583" lon="12.7177567"><ele>204.0</ele><time>2026-05-03T09:26:39.615Z</time></trkpt><trkpt lat="43.6302583" lon="12.7176067"><ele>204.0</ele><time>2026-05-03T09:26:40.611Z</time></trkpt><trkpt lat="43.63038" lon="12.71746"><ele>203.33333333333331</ele><time>2026-05-03T09:26:41.605Z</time></trkpt><trkpt lat="43.6305033" lon="12.7173083"><ele>202.66666666666666</ele><time>2026-05-03T09:26:42.6Z</time></trkpt><trkpt lat="43.6306133" lon="12.7171583"><ele>202.0</ele><time>2026-05-03T09:26:43.603Z</time></trkpt><trkpt lat="43.630715" lon="12.717015"><ele>204.75</ele><time>2026-05-03T09:26:44.604Z</time></trkpt><trkpt lat="43.6308167" lon="12.7168767"><ele>207.5</ele><time>2026-05-03T09:26:45.603Z</time></trkpt><trkpt lat="43.6309233" lon="12.7167433"><ele>210.25</ele><time>2026-05-03T09:26:46.625Z</time></trkpt><trkpt lat="43.63103" lon="12.7166133"><ele>213.0</ele><time>2026-05-03T09:26:47.602Z</time></trkpt><trkpt lat="43.631125" lon="12.7164767"><ele>208.66666666666669</ele><time>2026-05-03T09:26:48.601Z</time></trkpt><trkpt lat="43.631215" lon="12.7163267"><ele>204.33333333333334</ele><time>2026-05-03T09:26:49.602Z</time></trkpt><trkpt lat="43.631305" lon="12.716155"><ele>200.0</ele><time>2026-05-03T09:26:50.605Z</time></trkpt><trkpt lat="43.6313917" lon="12.7159683"><ele>198.5</ele><time>2026-05-03T09:26:51.597Z</time></trkpt><trkpt lat="43.6314733" lon="12.7157867"><ele>197.0</ele><time>2026-05-03T09:26:52.602Z</time></trkpt><trkpt lat="43.6315517" lon="12.7156133"><ele>195.5</ele><time>2026-05-03T09:26:53.61Z</time></trkpt><trkpt lat="43.6316267" lon="12.7154517"><ele>194.0</ele><time>2026-05-03T09:26:54.605Z</time></trkpt><trkpt lat="43.6316983" lon="12.7152917"><ele>194.25</ele><time>2026-05-03T09:26:55.597Z</time></trkpt><trkpt lat="43.631765" lon="12.7151267"><ele>194.5</ele><time>2026-05-03T09:26:56.607Z</time></trkpt><trkpt lat="43.6318233" lon="12.7149667"><ele>194.75</ele><time>2026-05-03T09:26:57.602Z</time></trkpt><trkpt lat="43.6318883" lon="12.71482"><ele>195.0</ele><time>2026-05-03T09:26:58.602Z</time></trkpt><trkpt lat="43.6319617" lon="12.7146833"><ele>195.5</ele><time>2026-05-03T09:26:59.604Z</time></trkpt><trkpt lat="43.6320417" lon="12.714555"><ele>196.0</ele><time>2026-05-03T09:27:00.612Z</time></trkpt><trkpt lat="43.6321317" lon="12.7144383"><ele>196.5</ele><time>2026-05-03T09:27:01.6Z</time></trkpt><trkpt lat="43.632235" lon="12.7143283"><ele>197.0</ele><time>2026-05-03T09:27:02.606Z</time></trkpt><trkpt lat="43.6323483" lon="12.714225"><ele>197.0</ele><time>2026-05-03T09:27:03.604Z</time></trkpt><trkpt lat="43.63247" lon="12.7141183"><ele>197.0</ele><time>2026-05-03T09:27:04.6Z</time></trkpt><trkpt lat="43.6326" lon="12.71401"><ele>197.0</ele><time>2026-05-03T09:27:05.604Z</time></trkpt><trkpt lat="43.6327317" lon="12.7139083"><ele>197.0</ele><time>2026-05-03T09:27:06.616Z</time></trkpt><trkpt lat="43.632865" lon="12.713825"><ele>194.75</ele><time>2026-05-03T09:27:07.6Z</time></trkpt><trkpt lat="43.632995" lon="12.7137567"><ele>192.5</ele><time>2026-05-03T09:27:08.603Z</time></trkpt><trkpt lat="43.6331183" lon="12.713695"><ele>190.25</ele><time>2026-05-03T09:27:09.603Z</time></trkpt><trkpt lat="43.6332333" lon="12.7136367"><ele>188.0</ele><time>2026-05-03T09:27:10.606Z</time></trkpt><trkpt lat="43.6333417" lon="12.7135783"><ele>188.0</ele><time>2026-05-03T09:27:11.597Z</time></trkpt><trkpt lat="43.6334433" lon="12.7135283"><ele>188.0</ele><time>2026-05-03T09:27:12.6Z</time></trkpt><trkpt lat="43.63354" lon="12.7134883"><ele>188.0</ele><time>2026-05-03T09:27:13.605Z</time></trkpt><trkpt lat="43.6336283" lon="12.713445"><ele>188.0</ele><time>2026-05-03T09:27:14.604Z</time></trkpt><trkpt lat="43.6337083" lon="12.7134083"><ele>188.0</ele><time>2026-05-03T09:27:15.599Z</time></trkpt><trkpt lat="43.63378" lon="12.713375"><ele>188.0</ele><time>2026-05-03T09:27:16.598Z</time></trkpt><trkpt lat="43.63384" lon="12.7133417"><ele>188.0</ele><time>2026-05-03T09:27:17.599Z</time></trkpt><trkpt lat="43.633945" lon="12.7132683"><ele>188.0</ele><time>2026-05-03T09:27:19.602Z</time></trkpt><trkpt lat="43.6340367" lon="12.713175"><ele>188.0</ele><time>2026-05-03T09:27:21.614Z</time></trkpt><trkpt lat="43.6341267" lon="12.71304"><ele>188.0</ele><time>2026-05-03T09:27:23.606Z</time></trkpt><trkpt lat="43.634175" lon="12.71295"><ele>188.0</ele><time>2026-05-03T09:27:24.614Z</time></trkpt><trkpt lat="43.63423" lon="12.712855"><ele>188.0</ele><time>2026-05-03T09:27:25.598Z</time></trkpt><trkpt lat="43.6342833" lon="12.7127683"><ele>188.0</ele><time>2026-05-03T09:27:26.603Z</time></trkpt><trkpt lat="43.6343417" lon="12.712675"><ele>188.0</ele><time>2026-05-03T09:27:27.608Z</time></trkpt><trkpt lat="43.6344117" lon="12.71259"><ele>188.0</ele><time>2026-05-03T09:27:28.612Z</time></trkpt><trkpt lat="43.6344933" lon="12.7125067"><ele>186.8</ele><time>2026-05-03T09:27:29.609Z</time></trkpt><trkpt lat="43.6345717" lon="12.7124283"><ele>185.60000000000002</ele><time>2026-05-03T09:27:30.607Z</time></trkpt><trkpt lat="43.6346517" lon="12.7123567"><ele>184.39999999999998</ele><time>2026-05-03T09:27:31.612Z</time></trkpt><trkpt lat="43.6347333" lon="12.7122767"><ele>183.2</ele><time>2026-05-03T09:27:32.603Z</time></trkpt><trkpt lat="43.6348" lon="12.7121867"><ele>182.0</ele><time>2026-05-03T09:27:33.599Z</time></trkpt><trkpt lat="43.63486" lon="12.7120917"><ele>182.0</ele><time>2026-05-03T09:27:34.603Z</time></trkpt><trkpt lat="43.6349067" lon="12.7119867"><ele>182.0</ele><time>2026-05-03T09:27:35.595Z</time></trkpt><trkpt lat="43.634945" lon="12.71189"><ele>182.0</ele><time>2026-05-03T09:27:36.6Z</time></trkpt><trkpt lat="43.6349867" lon="12.71181"><ele>182.0</ele><time>2026-05-03T09:27:37.599Z</time></trkpt><trkpt lat="43.6350233" lon="12.7117333"><ele>182.0</ele><time>2026-05-03T09:27:38.608Z</time></trkpt><trkpt lat="43.635115" lon="12.7116317"><ele>182.0</ele><time>2026-05-03T09:27:40.599Z</time></trkpt><trkpt lat="43.6351967" lon="12.7115883"><ele>181.8</ele><time>2026-05-03T09:27:42.6Z</time></trkpt><trkpt lat="43.6352717" lon="12.7115517"><ele>181.6</ele><time>2026-05-03T09:27:44.61Z</time></trkpt><trkpt lat="43.63537" lon="12.71152"><ele>181.4</ele><time>2026-05-03T09:27:46.6Z</time></trkpt><trkpt lat="43.6354983" lon="12.7114867"><ele>181.20000000000002</ele><time>2026-05-03T09:27:48.601Z</time></trkpt><trkpt lat="43.635565" lon="12.7114683"><ele>181.0</ele><time>2026-05-03T09:27:49.602Z</time></trkpt><trkpt lat="43.6356383" lon="12.71145"><ele>180.85714285714286</ele><time>2026-05-03T09:27:50.602Z</time></trkpt><trkpt lat="43.63571" lon="12.7114367"><ele>180.71428571428572</ele><time>2026-05-03T09:27:51.606Z</time></trkpt><trkpt lat="43.6357783" lon="12.7114283"><ele>180.57142857142856</ele><time>2026-05-03T09:27:52.615Z</time></trkpt><trkpt lat="43.635855" lon="12.7114083"><ele>180.42857142857144</ele><time>2026-05-03T09:27:53.601Z</time></trkpt><trkpt lat="43.6359233" lon="12.711395"><ele>180.2857142857143</ele><time>2026-05-03T09:27:54.601Z</time></trkpt><trkpt lat="43.6359883" lon="12.7113817"><ele>180.14285714285714</ele><time>2026-05-03T09:27:55.602Z</time></trkpt><trkpt lat="43.6360567" lon="12.7113817"><ele>180.0</ele><time>2026-05-03T09:27:56.604Z</time></trkpt><trkpt lat="43.63612" lon="12.711385"><ele>185.2</ele><time>2026-05-03T09:27:57.606Z</time></trkpt><trkpt lat="43.6361883" lon="12.7113983"><ele>190.4</ele><time>2026-05-03T09:27:58.599Z</time></trkpt><trkpt lat="43.6362883" lon="12.71147"><ele>195.60000000000002</ele><time>2026-05-03T09:28:00.606Z</time></trkpt><trkpt lat="43.6363367" lon="12.711605"><ele>200.8</ele><time>2026-05-03T09:28:02.611Z</time></trkpt><trkpt lat="43.6363717" lon="12.711725"><ele>206.0</ele><time>2026-05-03T09:28:04.605Z</time></trkpt><trkpt lat="43.63646" lon="12.711875"><ele>202.20000000000002</ele><time>2026-05-03T09:28:18.603Z</time></trkpt><trkpt lat="43.6364883" lon="12.711975"><ele>198.4</ele><time>2026-05-03T09:28:19.614Z</time></trkpt><trkpt lat="43.63653" lon="12.712095"><ele>194.6</ele><time>2026-05-03T09:28:20.605Z</time></trkpt><trkpt lat="43.6365833" lon="12.7122117"><ele>190.8</ele><time>2026-05-03T09:28:21.611Z</time></trkpt><trkpt lat="43.63665" lon="12.7123233"><ele>187.0</ele><time>2026-05-03T09:28:22.596Z</time></trkpt><trkpt lat="43.636735" lon="12.712435"><ele>187.0</ele><time>2026-05-03T09:28:23.616Z</time></trkpt><trkpt lat="43.6368283" lon="12.7125433"><ele>187.0</ele><time>2026-05-03T09:28:24.611Z</time></trkpt><trkpt lat="43.636925" lon="12.7126433"><ele>187.0</ele><time>2026-05-03T09:28:25.608Z</time></trkpt><trkpt lat="43.63702" lon="12.7127317"><ele>187.0</ele><time>2026-05-03T09:28:26.614Z</time></trkpt><trkpt lat="43.6371183" lon="12.7128"><ele>186.8</ele><time>2026-05-03T09:28:27.607Z</time></trkpt><trkpt lat="43.6372217" lon="12.7128583"><ele>186.6</ele><time>2026-05-03T09:28:28.606Z</time></trkpt><trkpt lat="43.6373267" lon="12.712915"><ele>186.4</ele><time>2026-05-03T09:28:29.606Z</time></trkpt><trkpt lat="43.6374317" lon="12.7129633"><ele>186.20000000000002</ele><time>2026-05-03T09:28:30.606Z</time></trkpt><trkpt lat="43.6375267" lon="12.7130133"><ele>186.0</ele><time>2026-05-03T09:28:31.602Z</time></trkpt><trkpt lat="43.6376133" lon="12.7130633"><ele>186.0</ele><time>2026-05-03T09:28:32.617Z</time></trkpt><trkpt lat="43.6376967" lon="12.713105"><ele>186.0</ele><time>2026-05-03T09:28:33.603Z</time></trkpt><trkpt lat="43.6377733" lon="12.713145"><ele>186.0</ele><time>2026-05-03T09:28:34.612Z</time></trkpt><trkpt lat="43.6378483" lon="12.7131767"><ele>186.0</ele><time>2026-05-03T09:28:35.607Z</time></trkpt><trkpt lat="43.6379233" lon="12.71321"><ele>186.0</ele><time>2026-05-03T09:28:36.604Z</time></trkpt><trkpt lat="43.6379983" lon="12.71324"><ele>186.0</ele><time>2026-05-03T09:28:37.608Z</time></trkpt><trkpt lat="43.6380767" lon="12.7132683"><ele>187.16666666666666</ele><time>2026-05-03T09:28:38.605Z</time></trkpt><trkpt lat="43.63816" lon="12.713305"><ele>188.33333333333331</ele><time>2026-05-03T09:28:39.612Z</time></trkpt><trkpt lat="43.6382433" lon="12.7133483"><ele>189.5</ele><time>2026-05-03T09:28:40.606Z</time></trkpt><trkpt lat="43.63833" lon="12.7133933"><ele>190.66666666666666</ele><time>2026-05-03T09:28:41.602Z</time></trkpt><trkpt lat="43.6384117" lon="12.7134433"><ele>191.83333333333331</ele><time>2026-05-03T09:28:42.605Z</time></trkpt><trkpt lat="43.63849" lon="12.7135017"><ele>193.0</ele><time>2026-05-03T09:28:43.608Z</time></trkpt><trkpt lat="43.63857" lon="12.7135683"><ele>193.0</ele><time>2026-05-03T09:28:44.612Z</time></trkpt><trkpt lat="43.6386483" lon="12.7136367"><ele>193.0</ele><time>2026-05-03T09:28:45.608Z</time></trkpt><trkpt lat="43.6387283" lon="12.7137083"><ele>193.0</ele><time>2026-05-03T09:28:46.611Z</time></trkpt><trkpt lat="43.6388117" lon="12.713785"><ele>193.0</ele><time>2026-05-03T09:28:47.602Z</time></trkpt><trkpt lat="43.638895" lon="12.71386"><ele>193.0</ele><time>2026-05-03T09:28:48.61Z</time></trkpt><trkpt lat="43.63898" lon="12.7139383"><ele>193.0</ele><time>2026-05-03T09:28:49.605Z</time></trkpt><trkpt lat="43.6390667" lon="12.7140183"><ele>193.0</ele><time>2026-05-03T09:28:50.615Z</time></trkpt><trkpt lat="43.6391517" lon="12.7140967"><ele>193.0</ele><time>2026-05-03T09:28:51.608Z</time></trkpt><trkpt lat="43.6392383" lon="12.7141833"><ele>193.0</ele><time>2026-05-03T09:28:52.606Z</time></trkpt><trkpt lat="43.63932" lon="12.714265"><ele>193.0</ele><time>2026-05-03T09:28:53.612Z</time></trkpt><trkpt lat="43.6394017" lon="12.7143483"><ele>192.4</ele><time>2026-05-03T09:28:54.608Z</time></trkpt><trkpt lat="43.639485" lon="12.7144283"><ele>191.8</ele><time>2026-05-03T09:28:55.603Z</time></trkpt><trkpt lat="43.6395667" lon="12.7145117"><ele>191.2</ele><time>2026-05-03T09:28:56.61Z</time></trkpt><trkpt lat="43.63965" lon="12.7145983"><ele>190.6</ele><time>2026-05-03T09:28:57.605Z</time></trkpt><trkpt lat="43.6397317" lon="12.7146817"><ele>190.0</ele><time>2026-05-03T09:28:58.605Z</time></trkpt><trkpt lat="43.63981" lon="12.7147617"><ele>190.0</ele><time>2026-05-03T09:28:59.61Z</time></trkpt><trkpt lat="43.639895" lon="12.7148467"><ele>190.0</ele><time>2026-05-03T09:29:00.607Z</time></trkpt><trkpt lat="43.6399883" lon="12.7149367"><ele>190.0</ele><time>2026-05-03T09:29:01.603Z</time></trkpt><trkpt lat="43.6400867" lon="12.7150267"><ele>190.0</ele><time>2026-05-03T09:29:02.606Z</time></trkpt><trkpt lat="43.6401817" lon="12.7151083"><ele>190.0</ele><time>2026-05-03T09:29:03.612Z</time></trkpt><trkpt lat="43.6402733" lon="12.7151867"><ele>189.8</ele><time>2026-05-03T09:29:04.609Z</time></trkpt><trkpt lat="43.6403683" lon="12.7152733"><ele>189.6</ele><time>2026-05-03T09:29:05.613Z</time></trkpt><trkpt lat="43.6404633" lon="12.7153567"><ele>189.39999999999998</ele><time>2026-05-03T09:29:06.607Z</time></trkpt><trkpt lat="43.640555" lon="12.7154433"><ele>189.2</ele><time>2026-05-03T09:29:07.61Z</time></trkpt><trkpt lat="43.6406367" lon="12.71554"><ele>189.0</ele><time>2026-05-03T09:29:08.602Z</time></trkpt><trkpt lat="43.6407117" lon="12.71564"><ele>189.0</ele><time>2026-05-03T09:29:09.603Z</time></trkpt><trkpt lat="43.640785" lon="12.7157417"><ele>189.0</ele><time>2026-05-03T09:29:10.605Z</time></trkpt><trkpt lat="43.64086" lon="12.7158383"><ele>189.0</ele><time>2026-05-03T09:29:11.605Z</time></trkpt><trkpt lat="43.64094" lon="12.715925"><ele>189.0</ele><time>2026-05-03T09:29:12.608Z</time></trkpt><trkpt lat="43.641025" lon="12.71601"><ele>189.0</ele><time>2026-05-03T09:29:13.606Z</time></trkpt><trkpt lat="43.6411183" lon="12.7160983"><ele>200.33333333333331</ele><time>2026-05-03T09:29:14.614Z</time></trkpt><trkpt lat="43.64123" lon="12.7162033"><ele>211.66666666666666</ele><time>2026-05-03T09:29:15.604Z</time></trkpt><trkpt lat="43.6413667" lon="12.71632"><ele>223.0</ele><time>2026-05-03T09:29:16.605Z</time></trkpt><trkpt lat="43.64149" lon="12.71645"><ele>223.0</ele><time>2026-05-03T09:29:17.607Z</time></trkpt><trkpt lat="43.6416167" lon="12.7166017"><ele>223.0</ele><time>2026-05-03T09:29:18.603Z</time></trkpt><trkpt lat="43.6417467" lon="12.7167883"><ele>223.0</ele><time>2026-05-03T09:29:19.606Z</time></trkpt><trkpt lat="43.6418917" lon="12.7169867"><ele>223.0</ele><time>2026-05-03T09:29:20.62Z</time></trkpt><trkpt lat="43.6420383" lon="12.7171633"><ele>223.0</ele><time>2026-05-03T09:29:21.6Z</time></trkpt><trkpt lat="43.6421833" lon="12.7172983"><ele>223.0</ele><time>2026-05-03T09:29:22.606Z</time></trkpt><trkpt lat="43.6423183" lon="12.717435"><ele>223.0</ele><time>2026-05-03T09:29:23.606Z</time></trkpt><trkpt lat="43.6424467" lon="12.717565"><ele>223.0</ele><time>2026-05-03T09:29:24.609Z</time></trkpt><trkpt lat="43.6425733" lon="12.7177017"><ele>223.0</ele><time>2026-05-03T09:29:25.601Z</time></trkpt><trkpt lat="43.642705" lon="12.7178183"><ele>223.0</ele><time>2026-05-03T09:29:26.61Z</time></trkpt><trkpt lat="43.6428283" lon="12.7179217"><ele>223.0</ele><time>2026-05-03T09:29:27.603Z</time></trkpt><trkpt lat="43.6429417" lon="12.718015"><ele>223.0</ele><time>2026-05-03T09:29:28.607Z</time></trkpt><trkpt lat="43.64305" lon="12.7180933"><ele>223.0</ele><time>2026-05-03T09:29:29.608Z</time></trkpt><trkpt lat="43.64315" lon="12.7181633"><ele>223.0</ele><time>2026-05-03T09:29:30.597Z</time></trkpt><trkpt lat="43.6432483" lon="12.7182333"><ele>223.0</ele><time>2026-05-03T09:29:31.611Z</time></trkpt><trkpt lat="43.6433517" lon="12.7183317"><ele>223.0</ele><time>2026-05-03T09:29:32.609Z</time></trkpt><trkpt lat="43.6434617" lon="12.7184533"><ele>223.0</ele><time>2026-05-03T09:29:33.61Z</time></trkpt><trkpt lat="43.6435733" lon="12.7185967"><ele>286.25</ele><time>2026-05-03T09:29:34.605Z</time></trkpt><trkpt lat="43.643675" lon="12.7187383"><ele>349.5</ele><time>2026-05-03T09:29:35.608Z</time></trkpt><trkpt lat="43.643765" lon="12.71888"><ele>412.75</ele><time>2026-05-03T09:29:36.605Z</time></trkpt><trkpt lat="43.643855" lon="12.7190267"><ele>476.0</ele><time>2026-05-03T09:29:37.602Z</time></trkpt><trkpt lat="43.64394" lon="12.7191817"><ele>476.0</ele><time>2026-05-03T09:29:38.607Z</time></trkpt><trkpt lat="43.644015" lon="12.719335"><ele>476.0</ele><time>2026-05-03T09:29:39.612Z</time></trkpt><trkpt lat="43.644085" lon="12.719485"><ele>476.0</ele><time>2026-05-03T09:29:40.609Z</time></trkpt><trkpt lat="43.64415" lon="12.7196617"><ele>476.0</ele><time>2026-05-03T09:29:41.603Z</time></trkpt><trkpt lat="43.6442117" lon="12.719855"><ele>468.25</ele><time>2026-05-03T09:29:42.611Z</time></trkpt><trkpt lat="43.6442717" lon="12.720045"><ele>460.5</ele><time>2026-05-03T09:29:43.605Z</time></trkpt><trkpt lat="43.6443267" lon="12.7202283"><ele>452.75</ele><time>2026-05-03T09:29:44.607Z</time></trkpt><trkpt lat="43.6443817" lon="12.7204"><ele>445.0</ele><time>2026-05-03T09:29:45.602Z</time></trkpt><trkpt lat="43.6444367" lon="12.72056"><ele>444.0</ele><time>2026-05-03T09:29:46.605Z</time></trkpt><trkpt lat="43.6444933" lon="12.7207067"><ele>443.0</ele><time>2026-05-03T09:29:47.606Z</time></trkpt><trkpt lat="43.6445567" lon="12.72084"><ele>442.0</ele><time>2026-05-03T09:29:48.605Z</time></trkpt><trkpt lat="43.644635" lon="12.720965"><ele>441.0</ele><time>2026-05-03T09:29:49.607Z</time></trkpt><trkpt lat="43.644725" lon="12.7210933"><ele>441.0</ele><time>2026-05-03T09:29:50.6Z</time></trkpt><trkpt lat="43.6448283" lon="12.7212267"><ele>441.0</ele><time>2026-05-03T09:29:51.607Z</time></trkpt><trkpt lat="43.6449467" lon="12.72136"><ele>441.0</ele><time>2026-05-03T09:29:52.597Z</time></trkpt><trkpt lat="43.6450683" lon="12.7215"><ele>441.0</ele><time>2026-05-03T09:29:53.607Z</time></trkpt><trkpt lat="43.6451883" lon="12.7216233"><ele>441.0</ele><time>2026-05-03T09:29:54.602Z</time></trkpt><trkpt lat="43.645305" lon="12.7217333"><ele>441.0</ele><time>2026-05-03T09:29:55.606Z</time></trkpt><trkpt lat="43.6454183" lon="12.7218367"><ele>441.0</ele><time>2026-05-03T09:29:56.603Z</time></trkpt><trkpt lat="43.6455167" lon="12.7219383"><ele>441.20000000000005</ele><time>2026-05-03T09:29:57.603Z</time></trkpt><trkpt lat="43.6456067" lon="12.7220333"><ele>441.40000000000003</ele><time>2026-05-03T09:29:58.606Z</time></trkpt><trkpt lat="43.6456817" lon="12.7221317"><ele>441.6</ele><time>2026-05-03T09:29:59.599Z</time></trkpt><trkpt lat="43.64575" lon="12.722245"><ele>441.8</ele><time>2026-05-03T09:30:00.609Z</time></trkpt><trkpt lat="43.6458183" lon="12.722375"><ele>442.0</ele><time>2026-05-03T09:30:01.601Z</time></trkpt><trkpt lat="43.6458967" lon="12.7225267"><ele>442.0</ele><time>2026-05-03T09:30:02.609Z</time></trkpt><trkpt lat="43.64597" lon="12.7226783"><ele>442.0</ele><time>2026-05-03T09:30:03.605Z</time></trkpt><trkpt lat="43.6460333" lon="12.7228217"><ele>442.0</ele><time>2026-05-03T09:30:04.612Z</time></trkpt><trkpt lat="43.6460983" lon="12.72295"><ele>442.0</ele><time>2026-05-03T09:30:05.613Z</time></trkpt><trkpt lat="43.6461467" lon="12.7230717"><ele>441.6666666666667</ele><time>2026-05-03T09:30:06.607Z</time></trkpt><trkpt lat="43.6461883" lon="12.72318"><ele>441.33333333333337</ele><time>2026-05-03T09:30:07.603Z</time></trkpt><trkpt lat="43.64622" lon="12.7232933"><ele>441.0</ele><time>2026-05-03T09:30:08.603Z</time></trkpt><trkpt lat="43.6462417" lon="12.7233967"><ele>440.66666666666663</ele><time>2026-05-03T09:30:09.609Z</time></trkpt><trkpt lat="43.6462583" lon="12.7234983"><ele>440.3333333333333</ele><time>2026-05-03T09:30:10.603Z</time></trkpt><trkpt lat="43.646275" lon="12.723595"><ele>440.0</ele><time>2026-05-03T09:30:11.606Z</time></trkpt><trkpt lat="43.6463083" lon="12.7237333"><ele>440.0</ele><time>2026-05-03T09:30:13.609Z</time></trkpt><trkpt lat="43.64635" lon="12.72395"><ele>440.0</ele><time>2026-05-03T09:31:05.598Z</time></trkpt><trkpt lat="43.6463667" lon="12.7240717"><ele>440.0</ele><time>2026-05-03T09:31:07.599Z</time></trkpt><trkpt lat="43.646395" lon="12.7242083"><ele>440.0</ele><time>2026-05-03T09:31:09.598Z</time></trkpt><trkpt lat="43.6464217" lon="12.7243517"><ele>443.6</ele><time>2026-05-03T09:31:11.61Z</time></trkpt><trkpt lat="43.6464467" lon="12.7245283"><ele>447.2</ele><time>2026-05-03T09:31:13.6Z</time></trkpt><trkpt lat="43.6464633" lon="12.7246317"><ele>450.79999999999995</ele><time>2026-05-03T09:31:14.604Z</time></trkpt><trkpt lat="43.6464883" lon="12.72474"><ele>454.4</ele><time>2026-05-03T09:31:15.605Z</time></trkpt><trkpt lat="43.6465183" lon="12.7248567"><ele>458.0</ele><time>2026-05-03T09:31:16.601Z</time></trkpt><trkpt lat="43.6465533" lon="12.7250017"><ele>458.0</ele><time>2026-05-03T09:31:17.6Z</time></trkpt><trkpt lat="43.6465917" lon="12.7251633"><ele>458.0</ele><time>2026-05-03T09:31:18.605Z</time></trkpt><trkpt lat="43.6466333" lon="12.725325"><ele>458.0</ele><time>2026-05-03T09:31:19.61Z</time></trkpt><trkpt lat="43.6466767" lon="12.725475"><ele>458.0</ele><time>2026-05-03T09:31:20.601Z</time></trkpt><trkpt lat="43.6467167" lon="12.7256167"><ele>460.0</ele><time>2026-05-03T09:31:21.604Z</time></trkpt><trkpt lat="43.64675" lon="12.7257467"><ele>461.99999999999994</ele><time>2026-05-03T09:31:22.594Z</time></trkpt><trkpt lat="43.646785" lon="12.72587"><ele>463.99999999999994</ele><time>2026-05-03T09:31:23.603Z</time></trkpt><trkpt lat="43.6468183" lon="12.7259917"><ele>466.0</ele><time>2026-05-03T09:31:24.6Z</time></trkpt><trkpt lat="43.6468533" lon="12.7261067"><ele>468.0</ele><time>2026-05-03T09:31:25.602Z</time></trkpt><trkpt lat="43.6468967" lon="12.72621"><ele>468.0</ele><time>2026-05-03T09:31:26.607Z</time></trkpt><trkpt lat="43.64694" lon="12.7263133"><ele>468.0</ele><time>2026-05-03T09:31:27.596Z</time></trkpt><trkpt lat="43.646995" lon="12.726405"><ele>468.0</ele><time>2026-05-03T09:31:28.597Z</time></trkpt><trkpt lat="43.647055" lon="12.7264833"><ele>468.0</ele><time>2026-05-03T09:31:29.604Z</time></trkpt><trkpt lat="43.6471167" lon="12.7265567"><ele>468.0</ele><time>2026-05-03T09:31:30.602Z</time></trkpt><trkpt lat="43.6471767" lon="12.7266317"><ele>468.0</ele><time>2026-05-03T09:31:31.596Z</time></trkpt><trkpt lat="43.647235" lon="12.7266983"><ele>464.0</ele><time>2026-05-03T09:31:32.611Z</time></trkpt><trkpt lat="43.6473" lon="12.7267667"><ele>459.99999999999994</ele><time>2026-05-03T09:31:33.61Z</time></trkpt><trkpt lat="43.6473717" lon="12.7268383"><ele>455.99999999999994</ele><time>2026-05-03T09:31:34.601Z</time></trkpt><trkpt lat="43.64744" lon="12.7269167"><ele>452.0</ele><time>2026-05-03T09:31:35.61Z</time></trkpt><trkpt lat="43.6475317" lon="12.72699"><ele>448.0</ele><time>2026-05-03T09:31:36.61Z</time></trkpt><trkpt lat="43.6476433" lon="12.7270783"><ele>448.0</ele><time>2026-05-03T09:31:37.603Z</time></trkpt><trkpt lat="43.6477567" lon="12.7271783"><ele>448.0</ele><time>2026-05-03T09:31:38.606Z</time></trkpt><trkpt lat="43.647865" lon="12.7272733"><ele>448.0</ele><time>2026-05-03T09:31:39.604Z</time></trkpt><trkpt lat="43.647965" lon="12.7273517"><ele>448.0</ele><time>2026-05-03T09:31:40.6Z</time></trkpt><trkpt lat="43.6480583" lon="12.7274317"><ele>452.4</ele><time>2026-05-03T09:31:41.6Z</time></trkpt><trkpt lat="43.6481467" lon="12.7275033"><ele>456.79999999999995</ele><time>2026-05-03T09:31:42.617Z</time></trkpt><trkpt lat="43.6482333" lon="12.7275567"><ele>461.2</ele><time>2026-05-03T09:31:43.602Z</time></trkpt><trkpt lat="43.648315" lon="12.7275933"><ele>465.6</ele><time>2026-05-03T09:31:44.614Z</time></trkpt><trkpt lat="43.64838" lon="12.7276183"><ele>470.0</ele><time>2026-05-03T09:31:45.604Z</time></trkpt><trkpt lat="43.648485" lon="12.727635"><ele>470.0</ele><time>2026-05-03T09:31:47.607Z</time></trkpt><trkpt lat="43.64855" lon="12.7276417"><ele>470.0</ele><time>2026-05-03T09:31:49.605Z</time></trkpt><trkpt lat="43.6486283" lon="12.72767"><ele>470.0</ele><time>2026-05-03T09:31:52.603Z</time></trkpt><trkpt lat="43.6487517" lon="12.7277133"><ele>470.0</ele><time>2026-05-03T09:31:54.607Z</time></trkpt><trkpt lat="43.6488383" lon="12.7277383"><ele>470.0</ele><time>2026-05-03T09:31:55.608Z</time></trkpt><trkpt lat="43.648925" lon="12.72776"><ele>472.6</ele><time>2026-05-03T09:31:56.603Z</time></trkpt><trkpt lat="43.6489933" lon="12.727795"><ele>475.2</ele><time>2026-05-03T09:31:57.611Z</time></trkpt><trkpt lat="43.6491033" lon="12.727825"><ele>477.79999999999995</ele><time>2026-05-03T09:31:59.606Z</time></trkpt><trkpt lat="43.6492183" lon="12.7278667"><ele>480.4</ele><time>2026-05-03T09:32:01.61Z</time></trkpt><trkpt lat="43.6492767" lon="12.7279033"><ele>483.0</ele><time>2026-05-03T09:32:02.609Z</time></trkpt><trkpt lat="43.649385" lon="12.7279767"><ele>488.0</ele><time>2026-05-03T09:32:04.609Z</time></trkpt><trkpt lat="43.649485" lon="12.728085"><ele>493.0</ele><time>2026-05-03T09:32:06.608Z</time></trkpt><trkpt lat="43.64954" lon="12.72814"><ele>498.0</ele><time>2026-05-03T09:32:07.606Z</time></trkpt><trkpt lat="43.6495967" lon="12.7282117"><ele>503.0</ele><time>2026-05-03T09:32:08.602Z</time></trkpt><trkpt lat="43.649655" lon="12.72828"><ele>508.0</ele><time>2026-05-03T09:32:09.61Z</time></trkpt><trkpt lat="43.6497167" lon="12.7283517"><ele>513.0</ele><time>2026-05-03T09:32:10.609Z</time></trkpt><trkpt lat="43.6497867" lon="12.728425"><ele>513.0</ele><time>2026-05-03T09:32:11.608Z</time></trkpt><trkpt lat="43.6498633" lon="12.7285067"><ele>513.0</ele><time>2026-05-03T09:32:12.618Z</time></trkpt><trkpt lat="43.64995" lon="12.7286033"><ele>513.0</ele><time>2026-05-03T09:32:13.601Z</time></trkpt><trkpt lat="43.65005" lon="12.7287217"><ele>513.0</ele><time>2026-05-03T09:32:14.607Z</time></trkpt><trkpt lat="43.6501483" lon="12.7288417"><ele>512.8</ele><time>2026-05-03T09:32:15.602Z</time></trkpt><trkpt lat="43.6502417" lon="12.72897"><ele>512.5999999999999</ele><time>2026-05-03T09:32:16.606Z</time></trkpt><trkpt lat="43.6503217" lon="12.7290883"><ele>512.4000000000001</ele><time>2026-05-03T09:32:17.606Z</time></trkpt><trkpt lat="43.6503917" lon="12.7291933"><ele>512.2</ele><time>2026-05-03T09:32:18.612Z</time></trkpt><trkpt lat="43.6504517" lon="12.7292767"><ele>512.0</ele><time>2026-05-03T09:32:19.608Z</time></trkpt><trkpt lat="43.650505" lon="12.72934"><ele>497.75</ele><time>2026-05-03T09:32:20.608Z</time></trkpt><trkpt lat="43.6506033" lon="12.7294383"><ele>483.5</ele><time>2026-05-03T09:32:22.603Z</time></trkpt><trkpt lat="43.65072" lon="12.7295083"><ele>469.25</ele><time>2026-05-03T09:32:24.612Z</time></trkpt><trkpt lat="43.6508433" lon="12.7295317"><ele>455.0</ele><time>2026-05-03T09:32:26.603Z</time></trkpt><trkpt lat="43.6509467" lon="12.7295367"><ele>455.0</ele><time>2026-05-03T09:32:28.608Z</time></trkpt><trkpt lat="43.65102" lon="12.7295233"><ele>455.0</ele><time>2026-05-03T09:32:30.61Z</time></trkpt><trkpt lat="43.651085" lon="12.7295117"><ele>455.0</ele><time>2026-05-03T09:32:33.606Z</time></trkpt></trkseg></trk></gpx>